[[[{"header":{"parameterUnit":"kt","parameterCategory":2,"dx":1,"dy":1,"la1":29.285339999999998,"la2":30.599998999999997,"lo1":-89.70041500000002,"lo2":-87.6738589999976,"nx":112,"ny":82,"refTime":"2022-10-08T00:00:00:Z","depth":0,"parameterNumber":1,"parameterNumberName":"U-component_of_WINDS"},"data":[-3.9265,-3.9214,0.0,-3.8877,-3.8786,0.0,-3.7864,0.0,-3.7686,0.0,0.0,0.0,0.0,0.0,0.0,0.0,0.0,0.0,0.0,-3.4488,0.0,0.0,0.0,0.0,0.0,0.0,0.0,0.0,0.0,0.0,0.0,0.0,-4.2276,-4.2721,-4.3279,-4.3863,-4.4568,-4.4568,-4.4568,-4.4568,-4.4568,-4.4568,-4.4568,-4.4568,-4.4568,-4.4568,-4.4568,-4.4568,-4.4568,-4.4568,-4.4568,-4.4568,-4.4568,-4.4811,-4.5461,-4.6408,-4.7226,-4.7889,-4.7889,-4.7889,-4.7889,-4.7889,-4.7889,-4.7889,-4.7889,-4.7889,-4.785,-4.7642,-4.7733,-4.7837,-4.7642,-4.7746,-4.7889,-4.7889,-4.7889,-4.6413,-4.1095,-3.7862,-3.4482,-2.9173,-2.6074,-2.4301,-2.4301,-2.4301,-2.4301,-2.4301,-2.4301,-2.4301,-2.4301,-2.4301,-2.4301,-2.4301,-2.4301,-2.4301,-2.4301,-2.4301,-2.4301,-2.4301,-2.4301,-2.4301,-2.4301,-2.4301,-2.4301,-2.4301,-2.4301,-2.4301,-2.4301,-2.4301,-2.4301,-2.4301,-2.4301,-2.4301,0.0,0.0,-3.8098,-3.7721,0.0,0.0,0.0,0.0,0.0,0.0,0.0,0.0,0.0,0.0,0.0,0.0,0.0,0.0,0.0,0.0,0.0,0.0,0.0,0.0,0.0,0.0,0.0,0.0,0.0,0.0,0.0,-4.176,-4.2357,-4.2721,-4.3474,-4.4058,-4.4568,-4.4568,-4.4568,-4.4568,-4.4568,-4.4568,-4.4568,-4.4568,-4.4568,-4.4568,-4.4568,-4.4568,-4.4568,-4.4568,-4.4568,-4.4594,-4.4668,-4.511,-4.5746,-4.6707,-4.7408,-4.7889,-4.7889,-4.7889,-4.7889,-4.7889,-4.7889,-4.7889,-4.7889,-4.7889,-4.7889,-4.7889,-4.7889,-4.7889,-4.7889,-4.7889,-4.7889,-4.7889,-4.6857,-4.4789,-4.0804,-3.6983,-3.2858,-2.8883,-2.6074,-2.4301,-2.4301,-2.4301,-2.4301,-2.4301,-2.4301,-2.4301,-2.4301,-2.4301,-2.4301,-2.4301,-2.4301,-2.4301,-2.4301,-2.4301,-2.4301,-2.4301,-2.4301,-2.4301,-2.4301,-2.4301,-2.4301,-2.4301,-2.4301,-2.4301,-2.4301,-2.4301,-2.4301,-2.4301,-2.4301,-2.4301,0.0,0.0,0.0,-3.5835,0.0,0.0,0.0,0.0,-3.5533,0.0,0.0,0.0,0.0,0.0,0.0,0.0,0.0,0.0,0.0,0.0,0.0,0.0,0.0,0.0,0.0,0.0,0.0,0.0,0.0,0.0,-4.1059,-4.2123,-4.2747,-4.276,-4.385,-4.4568,-4.4568,-4.4568,-4.4568,-4.4568,-4.4568,-4.4568,-4.4568,-4.4568,-4.4568,-4.4568,-4.4568,-4.4568,-4.4568,-4.4568,-4.4568,-4.4633,-4.511,-4.5694,-4.6279,-4.6863,-4.7421,-4.7889,-4.7889,-4.7889,-4.7889,-4.7889,-4.7889,-4.7889,-4.7889,-4.7889,-4.7889,-4.7889,-4.7889,-4.7889,-4.7889,-4.7889,-4.7889,-4.7889,-4.4789,-4.0949,-3.7129,-3.3006,-2.9024,-2.5188,-2.4451,-2.4301,-2.4301,-2.4301,-2.4301,-2.4301,-2.4301,-2.4301,-2.4301,-2.4301,-2.4301,-2.4301,-2.4301,-2.4301,-2.4301,-2.4301,-2.4301,-2.4301,-2.4301,-2.4301,-2.4301,-2.4301,-2.4301,-2.4301,-2.4301,-2.4301,-2.4301,-2.4301,-2.4301,-2.4301,-2.4301,-2.4301,-3.6332,0.0,0.0,0.0,0.0,0.0,0.0,0.0,0.0,0.0,0.0,0.0,0.0,0.0,0.0,0.0,0.0,-2.642,0.0,0.0,0.0,0.0,0.0,0.0,0.0,0.0,0.0,0.0,0.0,-4.1214,-4.1643,-4.2344,-4.2928,-4.3331,-4.4058,-4.4568,-4.4568,-4.4568,-4.4568,-4.4568,-4.4568,-4.4568,-4.4568,-4.4568,-4.4568,-4.4568,-4.4568,-4.4568,-4.4568,-4.4568,-4.4568,-4.4633,-4.511,-4.5694,-4.6331,-4.7304,-4.7759,-4.7889,-4.7889,-4.7889,-4.7889,-4.7889,-4.7889,-4.7889,-4.7889,-4.7889,-4.7889,-4.7889,-4.7889,-4.7889,-4.7889,-4.7889,-4.7889,-4.7889,-4.4789,-4.1688,-4.0658,-3.4915,-2.9761,-2.8734,-2.6224,-2.4301,-2.4301,-2.4301,-2.4301,-2.4301,-2.4301,-2.4301,-2.4301,-2.4301,-2.4301,-2.4301,-2.4301,-2.4301,-2.4301,-2.4301,-2.4301,-2.4301,-2.4301,-2.4301,-2.4301,-2.4301,-2.4301,-2.4301,-2.4301,-2.4301,-2.4301,-2.4301,-2.4301,-2.4301,-2.4301,-2.4301,0.0,0.0,0.0,0.0,0.0,0.0,-2.642,0.0,-2.6195,0.0,0.0,0.0,0.0,0.0,0.0,0.0,-2.3732,0.0,0.0,0.0,0.0,0.0,0.0,0.0,0.0,0.0,0.0,0.0,-3.8873,-3.9754,-4.1864,-4.2422,-4.2993,-4.3552,-4.4136,-4.4568,-4.4568,-4.4568,-4.4568,-4.4568,-4.4568,-4.4568,-4.4568,-4.4568,-4.4568,-4.4568,-4.4568,-4.4568,-4.4568,-4.4568,-4.4568,-4.4659,-4.537,-4.6058,-4.6668,-4.7564,-4.7889,-4.7889,-4.7889,-4.7889,-4.7889,-4.7889,-4.7889,-4.7889,-4.7889,-4.7889,-4.7889,-4.7889,-4.7889,-4.7889,-4.7889,-4.7889,-4.7889,-4.7889,-4.3608,-3.9481,-3.9481,-3.3302,-2.7698,-2.7698,-2.5781,-2.4301,-2.4301,-2.4301,-2.4301,-2.4301,-2.4301,-2.4301,-2.4301,-2.4301,-2.4301,-2.4301,-2.4301,-2.4301,-2.4301,-2.4301,-2.4301,-2.4301,-2.4301,-2.4301,-2.4301,-2.4301,-2.4301,-2.4301,-2.4301,-2.4301,-2.4301,-2.4301,-2.4301,-2.4301,-2.4301,-2.4301,0.0,0.0,0.0,0.0,-2.5154,0.0,0.0,0.0,-2.4914,-2.4914,0.0,0.0,0.0,0.0,0.0,0.0,0.0,0.0,0.0,0.0,0.0,0.0,0.0,0.0,0.0,-2.8182,-3.1688,-3.509,-3.5724,-3.7612,-4.1312,-4.2334,-4.3019,-4.3656,-4.4175,-4.4568,-4.4568,-4.4568,-4.4568,-4.4568,-4.4568,-4.4568,-4.4568,-4.4568,-4.4568,-4.4568,-4.4568,-4.4568,-4.4568,-4.4568,-4.462,-4.4655,-4.5772,-4.6551,-4.7123,-4.7681,-4.7889,-4.7889,-4.7889,-4.7889,-4.7889,-4.7889,-4.7889,-4.7889,-4.7889,-4.7889,-4.7889,-4.7889,-4.7889,-4.7889,-4.7889,-4.7889,-4.7889,-4.7889,-4.2135,-3.6689,-3.6249,-3.0207,-2.4895,-2.4451,-2.4301,-2.4301,-2.4301,-2.4301,-2.4301,-2.4301,-2.4301,-2.4301,-2.4301,-2.4301,-2.4301,-2.4301,-2.4301,-2.4301,-2.4301,-2.4301,-2.4301,-2.4301,-2.4301,-2.4301,-2.4301,-2.4301,-2.4301,-2.4301,-2.4301,-2.4301,-2.4301,-2.4301,-2.4301,-2.4301,-2.4301,-2.4301,0.0,0.0,0.0,0.0,0.0,-1.896,0.0,0.0,0.0,0.0,0.0,0.0,0.0,0.0,0.0,0.0,0.0,0.0,0.0,0.0,0.0,0.0,0.0,0.0,-2.1379,-2.4683,-2.8163,-3.1562,-3.4455,-3.675,-3.8457,-4.1221,-4.3214,-4.424,-4.4516,-4.4568,-4.4568,-4.4568,-4.4568,-4.4568,-4.4568,-4.4568,-4.4568,-4.4568,-4.4568,-4.4568,-4.4568,-4.4568,-4.4568,-4.4568,-4.472,-4.524,-4.5941,-4.6551,-4.7123,-4.7681,-4.7889,-4.7889,-4.7889,-4.7889,-4.7889,-4.7889,-4.7889,-4.7889,-4.7889,-4.7889,-4.7889,-4.7889,-4.7889,-4.7889,-4.7889,-4.7889,-4.7889,-4.7889,-4.4199,-4.0064,-3.6836,-3.2414,-2.8145,-2.4895,-2.4301,-2.4301,-2.4301,-2.4301,-2.4301,-2.4301,-2.4301,-2.4301,-2.4301,-2.4301,-2.4301,-2.4301,-2.4301,-2.4301,-2.4301,-2.4301,-2.4301,-2.4301,-2.4301,-2.4301,-2.4301,-2.4301,-2.4301,-2.4301,-2.4301,-2.4301,-2.4301,-2.4301,-2.4301,-2.4301,-2.4301,-2.4301,-2.2062,-1.945,0.0,-1.7306,0.0,0.0,0.0,-1.3187,-1.3777,-1.5333,-1.4526,-1.4037,-1.5771,-1.4853,-1.4499,-1.6261,-1.6616,-1.6737,-1.687,0.0,0.0,0.0,0.0,0.0,-2.0602,-2.2264,-2.4001,-2.5773,-2.8923,-3.2843,-3.7412,-3.9303,-4.1526,-4.4409,-4.4568,-4.4568,-4.4568,-4.4568,-4.4568,-4.4568,-4.4568,-4.4568,-4.4568,-4.4568,-4.4568,-4.4568,-4.4568,-4.4568,-4.4568,-4.4568,-4.4967,-4.5811,-4.6097,-4.672,-4.7499,-4.7785,-4.7889,-4.7889,-4.7889,-4.7889,-4.7889,-4.7889,-4.7889,-4.7889,-4.7889,-4.7889,-4.7889,-4.7889,-4.7889,-4.7889,-4.7889,-4.7889,-4.7889,-4.7889,-4.4789,-4.1397,-3.9481,-3.5945,-3.1979,-2.7996,-2.8883,-2.962,-2.7548,-2.7257,-2.6516,-2.4594,-2.4301,-2.4301,-2.4301,-2.4301,-2.4301,-2.4301,-2.4301,-2.4301,-2.4301,-2.4301,-2.4301,-2.4301,-2.4301,-2.4301,-2.4301,-2.4301,-2.4301,-2.4301,-2.4301,-2.4301,-2.4301,-2.4301,-2.4301,-2.4301,-2.4301,-2.438,-1.7245,-1.4764,-1.292,-1.2375,-1.0425,0.0,-0.8726,-0.8838,-0.9501,0.0,-1.0573,-0.9696,-1.2508,-1.09,-1.0118,-1.2975,-1.339,-1.3501,-1.3746,-1.4426,-1.5996,0.0,0.0,0.0,-2.0813,-2.0839,-2.0839,-2.0839,-2.3368,-2.7998,-3.5325,-3.695,-3.9521,-4.3317,-4.4168,-4.4568,-4.4568,-4.4568,-4.4568,-4.4568,-4.4568,-4.4568,-4.4568,-4.4568,-4.4568,-4.4568,-4.4568,-4.4568,-4.4568,-4.4568,-4.5271,-4.6214,-4.6214,-4.6889,-4.7889,-4.7889,-4.7889,-4.7732,-4.7001,-4.6701,-4.6701,-4.6701,-4.6701,-4.6857,-4.7589,-4.7889,-4.7889,-4.7889,-4.7889,-4.7889,-4.7889,-4.7889,-4.7889,-4.7889,-4.5379,-4.2872,-4.2135,-3.9481,-3.6386,-3.2997,-3.5062,-3.5945,-3.197,-3.0644,-2.9024,-2.5931,-2.4745,-2.4301,-2.4301,-2.4301,-2.4301,-2.4301,-2.4301,-2.4301,-2.4301,-2.4301,-2.4301,-2.4301,-2.4301,-2.4301,-2.4301,-2.4301,-2.4301,-2.4301,-2.4301,-2.4301,-2.4301,-2.4301,-2.4301,-2.4301,-2.436,-2.4518,-1.4328,-1.3244,-1.2375,-0.9884,-0.9014,0.0,-0.8731,-0.8875,-0.9243,0.0,-0.9521,-0.9513,-0.9886,-0.9771,-0.9655,-1.0029,-1.002,-1.0202,-1.0368,-1.3089,-1.5342,-1.6066,-1.8831,-2.08,-2.0833,-2.0839,-2.0839,-2.0839,-2.1091,-2.3405,-2.8128,-3.4324,-3.8331,-3.9638,-4.2808,-4.4568,-4.4568,-4.4568,-4.4568,-4.4568,-4.4568,-4.4568,-4.4568,-4.4568,-4.4568,-4.4568,-4.4568,-4.4568,-4.4568,-4.4568,-4.5271,-4.6214,-4.6214,-4.6889,-4.7889,-4.7889,-4.7889,-4.7301,-4.3898,-4.2571,-4.2571,-4.2571,-4.2571,-4.3307,-4.6701,-4.7889,-4.7889,-4.7889,-4.7889,-4.7889,-4.7889,-4.7889,-4.7889,-4.7889,-4.7445,-4.6256,-4.2727,-4.1688,-4.1252,-4.0804,-4.1095,-4.0075,-3.6102,-3.2562,-2.9909,-2.962,-2.6516,-2.4301,-2.4301,-2.4301,-2.4301,-2.4301,-2.4301,-2.4301,-2.4301,-2.4301,-2.4301,-2.4301,-2.4301,-2.4301,-2.4301,-2.4301,-2.4301,-2.4301,-2.4301,-2.4301,-2.4301,-2.4301,-2.4301,-2.4307,-2.4571,-2.4716,-1.129,-0.9227,-0.76,-0.6407,0.0,0.0,-0.3673,-0.3752,-0.4407,0.0,-0.5208,-0.4548,-0.6457,-0.5302,-0.461,-0.6544,-0.519,-0.4788,-0.6882,-1.0278,-1.3195,-1.5341,-1.8615,-2.0839,-2.0839,-2.0839,-2.0839,-2.0839,-2.0839,-2.1579,-2.3377,-2.8578,-3.2899,-3.5685,-3.9392,-4.131,-4.131,-4.3488,-4.4568,-4.4568,-4.4568,-4.4568,-4.4568,-4.4568,-4.4568,-4.4568,-4.4568,-4.4568,-4.4302,-4.226,-4.3335,-4.6214,-4.6214,-4.6889,-4.7889,-4.7889,-4.6413,-4.4488,-4.5223,-4.3898,-4.1978,-4.1978,-4.3464,-4.5235,-4.4633,-4.5968,-4.7889,-4.7889,-4.7889,-4.7889,-4.7889,-4.7889,-4.7889,-4.7889,-4.7889,-4.7301,-4.568,-4.5379,-4.5379,-4.5379,-4.5379,-4.4187,-4.0221,-3.8155,-3.5504,-3.0793,-2.8734,-2.6815,-2.4594,-2.4301,-2.4301,-2.4301,-2.4301,-2.4301,-2.4301,-2.4301,-2.4301,-2.4301,-2.4301,-2.4301,-2.4301,-2.4301,-2.4301,-2.4301,-2.4301,-2.4301,-2.4301,-2.4301,-2.4393,-2.4564,-2.4868,-2.5092,-0.8469,0.0,0.0,0.0,0.0,0.0,0.0,0.0,-0.0704,-0.306,-0.1665,-0.0721,-0.3132,-0.1583,-0.0738,-0.3096,-0.152,-0.0901,-0.3473,-0.6866,-1.0293,-1.3793,-1.7177,-1.9788,-2.0704,-2.0839,-2.0839,0.0,-2.0839,-2.0839,-2.0839,-2.3785,-2.7434,-3.169,-3.5507,-3.8031,-3.8987,-4.1712,-4.3075,-4.3075,-4.4022,-4.4035,-4.3075,-4.4035,-4.4022,-4.3075,-4.3075,-4.2394,-4.1298,-3.9661,-4.1256,-4.4763,-4.5911,-4.6889,-4.7889,-4.7889,-4.5379,-4.228,-4.4055,-4.1978,-3.874,-3.874,-4.0658,-4.2571,-4.0949,-4.3162,-4.6256,-4.6256,-4.7001,-4.7889,-4.7889,-4.7889,-4.7889,-4.7889,-4.7889,-4.7889,-4.7889,-4.7889,-4.7889,-4.7889,-4.7889,-4.6857,-4.4043,-4.2716,-3.9627,-3.2858,-3.0793,-2.8726,-2.4745,-2.4301,-2.4301,-2.4301,-2.4301,-2.4301,-2.4301,-2.4301,-2.4301,-2.4301,-2.4301,-2.4301,-2.4301,-2.4301,-2.4301,-2.4301,-2.4301,-2.4301,-2.4301,-2.4386,-2.4577,-2.4874,-2.5092,-2.5342,0.0,0.0,0.0,-0.0778,-0.0112,0.0,0.0,0.0,0.0,-0.012,-0.012,0.0,-0.0122,-0.0123,0.0,-0.0127,0.0,0.0,-0.0131,-0.3134,-0.6652,-1.0166,-1.3668,-1.7042,-2.0446,-2.0839,-2.0839,-2.0839,-2.0839,-2.0839,-2.0839,-2.1129,-2.3387,-2.763,-3.1545,-3.5308,-3.8987,-3.9122,-3.9257,-3.9257,-4.2808,-4.2662,-3.9392,-4.2942,-4.2528,-3.9257,-3.9257,-3.7208,-3.4083,-3.7625,-3.9706,-4.1171,-4.4763,-4.6889,-4.7889,-4.7889,-4.5379,-4.1397,-3.7716,-3.3883,-3.0496,-3.0496,-3.0496,-3.1377,-3.5209,-3.9043,-4.2135,-4.2135,-4.4934,-4.7889,-4.7889,-4.7889,-4.7889,-4.7889,-4.7889,-4.7889,-4.7889,-4.7889,-4.7889,-4.7889,-4.7889,-4.7745,-4.7602,-4.4488,-4.0658,-3.6542,-3.2562,-2.8726,-2.4745,-2.4301,-2.4301,-2.4301,-2.4301,-2.4301,-2.4301,-2.4301,-2.4301,-2.4301,-2.4301,-2.4301,-2.4301,-2.4301,-2.4301,-2.4301,-2.4301,-2.4301,-2.4301,-2.4591,-2.4887,-2.5184,-2.5346,-2.5342,-0.2502,-0.1415,-0.1203,-0.0222,0.0,0.0,0.0,0.0,0.0,0.0,0.0,0.0,0.0,0.0,0.0,0.0,0.0,0.0,0.0,-0.3004,-0.574,-0.6912,-1.2104,-1.6003,-1.7177,-1.9395,-2.0839,-2.0839,-2.0839,0.0,-2.0839,-2.0992,-2.1976,-2.3688,-2.5228,-2.7815,-3.1603,-3.6655,-3.776,-3.5444,-3.9122,-3.8976,-3.5444,-3.9122,-3.8841,-3.5444,-3.8031,-3.557,-2.9974,-3.1192,-3.3741,-3.6925,-3.8204,-3.9225,-4.0064,-4.0064,-3.7559,-3.4326,-3.566,-3.3449,-3.0058,-3.0058,-3.197,-3.3892,-3.2562,-3.6826,-4.1978,-4.1978,-4.4789,-4.7889,-4.7889,-4.7889,-4.7889,-4.7889,-4.7889,-4.7889,-4.7889,-4.7889,-4.7889,-4.7889,-4.7889,-4.7889,-4.7889,-4.6713,-4.4488,-4.0658,-3.6689,-3.271,-2.8734,-2.5931,-2.4301,-2.4301,-2.4301,-2.4301,-2.4301,-2.4301,-2.4301,-2.4301,-2.4301,-2.4301,-2.4301,-2.4301,-2.4301,-2.4301,-2.4301,-2.4498,-2.4894,-2.4993,-2.5191,-2.5467,-2.5467,-2.5619,-0.0762,0.0,0.0,0.0,0.0,0.0,0.0,0.0,0.0,0.0,0.0,0.0,0.0,0.0,0.0,0.0,0.0,0.0,0.0,-0.196,-0.3786,-0.5089,-0.9117,-1.2882,-1.5351,-1.7564,-1.9395,-2.0704,-2.0839,-2.0839,-2.0839,-2.1017,-2.1301,-2.1683,-2.1881,-2.3254,-2.6002,-3.2023,-3.3926,-3.1475,-3.5298,-3.5162,-3.1612,-3.5298,-3.5026,-3.1612,-3.4073,-3.1612,-2.6141,-2.7509,-2.9863,-3.2959,-3.4228,-3.5325,-3.6102,-3.6102,-3.3597,-3.0496,-3.3154,-3.1386,-2.7996,-2.7996,-2.9761,-3.1386,-2.8883,-3.2562,-3.8008,-3.9481,-4.2716,-4.6112,-4.7445,-4.7889,-4.7889,-4.7889,-4.7889,-4.7889,-4.7889,-4.7889,-4.7889,-4.7889,-4.7889,-4.7889,-4.7889,-4.7889,-4.6557,-4.2571,-3.9919,-3.6249,-3.0793,-2.7996,-2.5781,-2.4451,-2.4301,-2.4301,-2.4301,-2.4301,-2.4301,-2.4301,-2.4301,-2.4301,-2.4301,-2.4406,-2.4459,-2.4459,-2.4564,-2.4861,-2.5342,-2.5342,-2.5487,-2.5764,-2.5764,-2.587,-0.0762,0.0,0.0,0.0,0.0,0.0,0.0,0.0,0.0,0.0,0.0,0.0,0.0,0.0,0.0,0.0,0.0,0.0,0.0,0.0,-0.1177,-0.4569,-0.5089,-0.7819,-1.444,-1.5351,-1.6913,-2.0311,-2.0704,-2.0839,-2.0839,-2.0839,-2.1103,-2.1817,-2.1831,-2.1987,-2.258,-2.601,-2.7639,-2.7778,-3.1475,-3.1201,-2.7778,-3.1475,-3.1201,-2.7639,-2.7639,-2.5733,-2.2859,-2.628,-2.8193,-2.94,-3.2808,-3.474,-3.5484,-3.5504,-3.3154,-2.9761,-2.9761,-2.7406,-2.4301,-2.4301,-2.4301,-2.4301,-2.4301,-2.6965,-3.0941,-3.4768,-3.875,-4.2861,-4.6557,-4.7602,-4.7889,-4.7889,-4.7889,-4.7889,-4.7889,-4.7889,-4.7889,-4.7889,-4.7889,-4.7889,-4.7889,-4.7889,-4.6557,-4.2861,-4.2135,-3.9189,-3.1412,-3.0529,-2.8915,-2.4792,-2.4497,-2.4641,-2.4347,-2.4347,-2.4347,-2.4347,-2.4347,-2.4347,-2.4347,-2.4617,-2.4769,-2.4769,-2.5078,-2.5369,-2.5632,-2.5632,-2.5771,-2.6048,-2.6048,-2.6048,-0.0762,0.0,0.0,0.0,0.0,0.0,0.0,0.0,0.0,0.0,0.0,0.0,0.0,0.0,0.0,0.0,0.0,0.0,0.0,0.0,-0.0392,-0.1177,-0.3656,-0.6,-0.7689,-1.2493,-1.5874,-1.6784,-1.9266,-2.0839,-2.0839,-2.0839,-2.1103,-2.1817,-2.1831,-2.1987,-2.258,-2.3404,-2.3954,-2.3954,-2.7648,-2.7509,-2.4094,-2.7786,-2.7379,-2.3954,-2.3954,-2.3404,-2.2586,-2.3543,-2.4178,-2.4685,-2.591,-2.6691,-2.7093,-2.7175,-2.6666,-2.5781,-2.5781,-2.5188,-2.4301,-2.4301,-2.4301,-2.4301,-2.4301,-2.6965,-3.0355,-3.1386,-3.6679,-4.228,-4.3162,-4.5668,-4.7889,-4.7889,-4.7889,-4.7889,-4.7889,-4.7889,-4.7889,-4.7889,-4.7889,-4.7889,-4.7889,-4.7889,-4.7445,-4.6413,-4.3898,-4.0352,-3.5501,-3.5092,-3.2669,-2.5704,-2.7851,-2.845,-2.5269,-2.4966,-2.4966,-2.4966,-2.4966,-2.4966,-2.4966,-2.5039,-2.5078,-2.5078,-2.5573,-2.587,-2.5936,-2.5936,-2.5975,-2.6048,-2.6048,-2.6048,-0.0436,0.0,0.0,0.0,0.0,0.0,0.0,0.0,0.0,0.0,0.0,0.0,0.0,0.0,0.0,0.0,0.0,0.0,0.0,0.0,0.0,0.0,-0.1699,-0.3525,-0.5089,-0.873,-1.2233,-1.5351,-1.7435,-1.9137,-2.0704,-2.0839,-2.105,-2.1499,-2.1637,-2.1921,-2.2389,-2.2521,-2.2586,-2.2586,-2.4643,-2.4504,-2.2586,-2.4636,-2.4504,-2.2586,-2.2586,-2.2586,-2.2586,-2.2586,-2.2745,-2.3028,-2.3331,-2.3628,-2.3925,-2.4195,-2.4301,-2.4301,-2.4301,-2.4301,-2.4301,-2.4301,-2.4301,-2.4301,-2.4301,-2.5781,-2.7996,-2.962,-3.3302,-3.7559,-4.1095,-4.3608,-4.5668,-4.7445,-4.7889,-4.7889,-4.7889,-4.7889,-4.7889,-4.7889,-4.7889,-4.7967,-4.8226,-4.8265,-4.8356,-4.8603,-4.6692,-4.3948,-4.017,-3.9892,-3.6811,-2.8846,-3.0082,-2.9773,-2.5658,-2.5197,-2.5197,-2.5197,-2.5197,-2.5197,-2.5197,-2.5309,-2.5375,-2.5375,-2.5817,-2.6048,-2.6048,-2.6048,-2.6048,-2.6048,-2.6048,-2.6048,0.0,0.0,0.0,0.0,0.0,0.0,0.0,0.0,0.0,0.0,0.0,0.0,0.0,0.0,0.0,0.0,0.0,0.0,0.0,0.0,0.0,0.0,0.0,-0.1177,-0.4308,-0.4959,-0.7689,-1.3663,-1.5092,-1.6913,-1.9917,-2.0575,-2.0978,-2.1143,-2.1551,-2.1841,-2.2138,-2.2435,-2.2586,-2.2586,-2.2586,-2.2586,-2.2586,-2.2586,-2.2586,-2.2586,-2.2586,-2.2586,-2.2586,-2.2586,-2.2725,-2.2975,-2.3312,-2.3602,-2.3872,-2.4182,-2.4301,-2.4301,-2.4301,-2.4301,-2.4301,-2.4301,-2.4301,-2.4301,-2.4301,-2.4301,-2.5038,-2.8436,-2.9769,-3.1822,-3.9335,-4.1542,-4.3017,-4.6857,-4.7445,-4.7158,-4.7745,-4.7889,-4.7889,-4.7889,-4.7954,-4.8161,-4.8668,-4.8811,-4.9031,-4.9525,-4.959,-4.7939,-4.3565,-4.3426,-4.04,-3.174,-3.1285,-2.9914,-2.5772,-2.5309,-2.5309,-2.5309,-2.5309,-2.5309,-2.5309,-2.5533,-2.5665,-2.5665,-2.5922,-2.6048,-2.6048,-2.6048,-2.6048,-2.6048,-2.6048,-2.6048,0.0,0.0,0.0,0.0,0.0,0.0,0.0,0.0,0.0,0.0,0.0,0.0,0.0,0.0,0.0,0.0,0.0,0.0,0.0,0.0,0.0,0.0,0.0,-0.0262,-0.0785,-0.3526,-0.574,-0.691,-1.2363,-1.5868,-1.6391,-1.9266,-2.0978,-2.1143,-2.1551,-2.1841,-2.2138,-2.2435,-2.2586,-2.2586,-2.2586,-2.2586,-2.2586,-2.2586,-2.2586,-2.2586,-2.2586,-2.2586,-2.2586,-2.2586,-2.2613,-2.2712,-2.3239,-2.3476,-2.3589,-2.4109,-2.4301,-2.4301,-2.4301,-2.4301,-2.4301,-2.4301,-2.4301,-2.4301,-2.4301,-2.4301,-2.4451,-2.5038,-2.7698,-3.1238,-3.5955,-3.9627,-4.3017,-4.6857,-4.5379,-4.3898,-4.7158,-4.7889,-4.7889,-4.7889,-4.8278,-4.8642,-4.8733,-4.9135,-4.9486,-4.9577,-4.959,-4.6991,-3.986,-4.1939,-3.9614,-2.8238,-3.014,-3.045,-2.6216,-2.5903,-2.5903,-2.5903,-2.5903,-2.5903,-2.5903,-2.5949,-2.5975,-2.5975,-2.6021,-2.6048,-2.6048,-2.6048,-2.6048,-2.6048,-2.6048,-2.6048,0.0,0.0,0.0,0.0,0.0,0.0,0.0,0.0,0.0,0.0,0.0,0.0,0.0,0.0,0.0,0.0,0.0,0.0,0.0,0.0,0.0,0.0,0.0,0.0,0.0,-0.1568,-0.3265,-0.5089,-0.834,-1.0936,-1.276,-1.6137,-1.815,-1.827,-2.0529,-2.1769,-2.1907,-2.2362,-2.2586,-2.2586,-2.2586,-2.2586,-2.2586,-2.2586,-2.2586,-2.2586,-2.2586,-2.2586,-2.2586,-2.2586,-2.2586,-2.2626,-2.3048,-2.3305,-2.3496,-2.3931,-2.4175,-2.4301,-2.4301,-2.4301,-2.4301,-2.4301,-2.4301,-2.4301,-2.4301,-2.4301,-2.4301,-2.4301,-2.5631,-2.7996,-3.1979,-3.4473,-3.7266,-4.3307,-4.3307,-4.3017,-4.7001,-4.7889,-4.798,-4.8278,-4.6763,-4.553,-4.5957,-4.4607,-4.3649,-4.3921,-4.3967,-4.2497,-3.881,-4.0097,-3.8147,-3.0142,-3.11,-3.0629,-2.6363,-2.6048,-2.6048,-2.6048,-2.6048,-2.6048,-2.6048,-2.6048,-2.6048,-2.6048,-2.6048,-2.6048,-2.6048,-2.6048,-2.6048,-2.6048,-2.6048,-2.6048,0.0,0.0,0.0,0.0,0.0,0.0,0.0,0.0,0.0,0.0,0.0,0.0,0.0,0.0,0.0,0.0,0.0,0.0,0.0,0.0,0.0,0.0,0.0,0.0,0.0,0.0,-0.1177,-0.3917,-0.4829,-0.6391,-0.9253,-1.2626,-1.4829,-1.5481,-1.8845,-2.1019,-2.1831,-2.229,-2.2586,-2.2586,-2.2586,-2.2586,-2.2586,-2.2586,-2.2586,-2.2586,-2.2586,-2.2586,-2.2586,-2.2586,-2.2586,-2.2613,-2.289,-2.318,-2.3628,-2.378,-2.4063,-2.4301,-2.4301,-2.4301,-2.4301,-2.4301,-2.4301,-2.4301,-2.4301,-2.4301,-2.4301,-2.4301,-2.4301,-2.5188,-2.9173,-3.0058,-3.197,-3.9043,-4.0658,-4.1845,-4.5668,-4.6557,-4.6432,-4.6228,-4.3587,-4.141,-4.2045,-3.9891,-3.8283,-3.8647,-3.8696,-3.8381,-3.7434,-3.7267,-3.5685,-3.142,-3.0941,-2.9525,-2.6363,-2.6048,-2.6048,-2.6048,-2.6048,-2.6048,-2.6048,-2.6048,-2.6048,-2.6048,-2.6048,-2.6048,-2.6048,-2.6048,-2.6048,-2.6048,-2.6048,-2.6048,0.0,0.0,0.0,0.0,0.0,0.0,0.0,0.0,0.0,0.0,0.0,0.0,0.0,0.0,0.0,0.0,0.0,0.0,0.0,0.0,0.0,0.0,0.0,0.0,0.0,0.0,-0.0131,-0.0392,-0.3396,-0.5349,-0.574,-0.8993,-1.2371,-1.5481,-1.6445,-1.858,-2.1696,-2.229,-2.2586,-2.2586,-2.2586,-2.2586,-2.2586,-2.2586,-2.2586,-2.2586,-2.2586,-2.2586,-2.2586,-2.2586,-2.2586,-2.2613,-2.289,-2.318,-2.3628,-2.378,-2.4063,-2.4301,-2.4301,-2.4301,-2.4301,-2.4301,-2.4301,-2.4301,-2.4301,-2.4301,-2.4301,-2.4301,-2.4301,-2.5188,-2.9173,-3.0058,-3.1238,-3.566,-3.6689,-3.7716,-4.1688,-4.2571,-4.1543,-3.8311,-3.7678,-3.7925,-3.8352,-3.8498,-3.8647,-3.8696,-3.8696,-3.7276,-3.3306,-3.2837,-3.126,-2.6993,-2.6685,-2.6524,-2.6048,-2.6048,-2.6048,-2.6048,-2.6048,-2.6048,-2.6048,-2.6048,-2.6048,-2.6048,-2.6048,-2.6048,-2.6048,-2.6048,-2.6048,-2.6048,-2.6048,-2.6048,-0.0436,0.0,0.0,0.0,0.0,0.0,0.0,0.0,0.0,0.0,0.0,0.0,0.0,0.0,0.0,0.0,0.0,0.0,0.0,0.0,0.0,0.0,0.0,0.0,0.0,0.0,0.0,0.0,-0.1307,-0.209,-0.209,-0.5481,-0.7952,-0.9247,-1.4041,-1.7228,-1.858,-2.1173,-2.2586,-2.2586,-2.2586,-2.2586,-2.2586,-2.2586,-2.2586,-2.2586,-2.2586,-2.2586,-2.2586,-2.2586,-2.2586,-2.26,-2.2705,-2.3035,-2.3608,-2.3582,-2.3912,-2.4301,-2.4301,-2.4301,-2.4301,-2.4301,-2.4301,-2.4301,-2.4301,-2.4301,-2.4301,-2.4301,-2.4301,-2.4594,-2.6224,-2.6666,-2.7556,-3.1534,-3.2562,-3.3597,-3.7569,-3.8667,-3.8408,-3.7206,-3.5346,-3.3891,-3.4426,-3.2587,-3.1116,-3.1116,-3.1116,-3.0485,-2.8739,-2.8578,-2.7944,-2.6209,-2.6048,-2.6048,-2.6048,-2.6048,-2.6048,-2.6048,-2.6048,-2.6048,-2.6048,-2.6048,-2.6048,-2.6048,-2.6048,-2.6048,-2.6048,-2.6048,-2.6048,-2.6048,-2.6048,-2.6048,-0.0762,0.0,0.0,0.0,0.0,0.0,0.0,0.0,0.0,0.0,0.0,0.0,0.0,0.0,0.0,0.0,0.0,0.0,0.0,0.0,0.0,0.0,0.0,0.0,0.0,0.0,0.0,0.0,0.0,0.0,0.0,-0.2352,-0.4178,-0.522,-1.0437,-1.438,-1.6549,-1.936,-2.1449,-2.2586,-2.2586,-2.2586,-2.2586,-2.2586,-2.2586,-2.2586,-2.2586,-2.2586,-2.2586,-2.2586,-2.2586,-2.2586,-2.2586,-2.2883,-2.3325,-2.3411,-2.376,-2.4188,-2.4274,-2.4301,-2.4301,-2.4301,-2.4301,-2.4301,-2.4301,-2.4301,-2.4301,-2.4301,-2.4301,-2.4301,-2.4301,-2.4301,-2.5338,-2.9173,-3.0058,-3.0941,-3.3745,-3.4662,-3.463,-3.3814,-3.1587,-2.9917,-3.0408,-2.7944,-2.6048,-2.6048,-2.6048,-2.6048,-2.6048,-2.6048,-2.6048,-2.6048,-2.6048,-2.6048,-2.6048,-2.6048,-2.6048,-2.6048,-2.6048,-2.6048,-2.6048,-2.6048,-2.6048,-2.6048,-2.6048,-2.6048,-2.6048,-2.6048,-2.6048,-2.6048,-2.6048,-2.6048,-0.0762,0.0,0.0,0.0,0.0,0.0,0.0,0.0,0.0,0.0,0.0,0.0,0.0,0.0,0.0,0.0,0.0,0.0,0.0,0.0,0.0,0.0,0.0,0.0,0.0,0.0,0.0,0.0,0.0,0.0,0.0,0.0,-0.1699,-0.5089,-0.5632,-0.9237,-1.6414,-1.6843,-1.8895,-2.2586,-2.2586,-2.2586,-2.2586,-2.2586,-2.2586,-2.2586,-2.2586,-2.2586,-2.2586,-2.2586,-2.2586,-2.2586,-2.2586,-2.2758,-2.3041,-2.3338,-2.3635,-2.3938,-2.4208,-2.4301,-2.4301,-2.4301,-2.4301,-2.4301,-2.4301,-2.4301,-2.4301,-2.4301,-2.4301,-2.4301,-2.4301,-2.4301,-2.5338,-2.9173,-3.0058,-3.0207,-3.0207,-3.0502,-2.9672,-2.6057,-2.5572,-2.5857,-2.5995,-2.6048,-2.6048,-2.6048,-2.6048,-2.6048,-2.6048,-2.6048,-2.6048,-2.6048,-2.6048,-2.6048,-2.6048,-2.6048,-2.6048,-2.6048,-2.6048,-2.6048,-2.6048,-2.6048,-2.6048,-2.6048,-2.6048,-2.6048,-2.6048,-2.6048,-2.6048,-2.6048,-2.6048,-2.6048,-0.3695,-0.153,0.0,0.0,0.0,0.0,0.0,0.0,0.0,0.0,0.0,0.0,0.0,0.0,0.0,0.0,0.0,0.0,0.0,0.0,0.0,0.0,0.0,0.0,0.0,0.0,0.0,0.0,0.0,0.0,0.0,0.0,-0.0523,-0.1568,-0.4293,-0.6797,-0.9099,-1.4341,-1.7484,-1.8755,-2.1303,-2.2586,-2.2586,-2.2586,-2.2586,-2.2586,-2.2586,-2.2586,-2.2586,-2.2586,-2.2586,-2.2586,-2.2586,-2.2751,-2.3035,-2.3338,-2.3635,-2.3931,-2.4208,-2.4301,-2.4301,-2.4301,-2.4301,-2.4301,-2.4301,-2.4301,-2.4301,-2.4301,-2.4301,-2.4301,-2.4301,-2.4301,-2.4594,-2.5781,-2.6074,-2.6074,-2.6074,-2.6651,-2.6607,-2.5482,-2.558,-2.5942,-2.6034,-2.6048,-2.6048,-2.6048,-2.6048,-2.6048,-2.6048,-2.6048,-2.6048,-2.6048,-2.6048,-2.6048,-2.6048,-2.6048,-2.6048,-2.6048,-2.6048,-2.6048,-2.6048,-2.6048,-2.6048,-2.6048,-2.6048,-2.6048,-2.6048,-2.6048,-2.6048,-2.6048,-2.6048,-2.6048,-0.5105,-0.2176,0.0,0.0,0.0,0.0,0.0,0.0,0.0,0.0,0.0,0.0,0.0,0.0,0.0,0.0,0.0,0.0,0.0,0.0,0.0,0.0,0.0,0.0,0.0,0.0,0.0,0.0,0.0,0.0,0.0,0.0,0.0,0.0,-0.2282,-0.4218,-0.5576,-1.17,-1.4805,-1.4805,-2.0032,-2.2586,-2.2586,-2.2586,-2.2586,-2.2586,-2.2586,-2.2586,-2.2586,-2.2586,-2.2586,-2.2586,-2.2586,-2.2692,-2.289,-2.3298,-2.3562,-2.378,-2.4169,-2.4301,-2.4301,-2.4301,-2.4301,-2.4301,-2.4301,-2.4301,-2.4301,-2.4301,-2.4301,-2.4301,-2.4301,-2.4301,-2.4301,-2.4301,-2.4301,-2.4301,-2.4301,-2.4769,-2.5197,-2.5197,-2.5659,-2.6048,-2.6048,-2.6048,-2.6048,-2.6048,-2.6048,-2.6048,-2.6048,-2.6048,-2.6048,-2.6048,-2.6048,-2.6048,-2.6048,-2.6048,-2.6048,-2.6048,-2.6048,-2.6048,-2.6048,-2.6048,-2.6048,-2.6048,-2.6048,-2.6048,-2.6048,-2.6048,-2.6048,-2.6048,-2.6048,-2.6048,-0.5322,-0.2393,0.0,0.0,0.0,0.0,0.0,0.0,0.0,0.0,0.0,0.0,0.0,0.0,0.0,0.0,0.0,0.0,0.0,0.0,0.0,0.0,0.0,0.0,0.0,0.0,0.0,0.0,0.0,0.0,0.0,0.0,0.0,0.0,0.0,-0.1634,-0.517,-0.9201,-1.1293,-1.1293,-1.8621,-2.23,-2.2586,-2.2586,-2.2586,-2.2586,-2.2586,-2.2586,-2.2586,-2.2586,-2.2586,-2.2586,-2.2586,-2.2586,-2.2652,-2.3206,-2.343,-2.3668,-2.4076,-2.4281,-2.4301,-2.4301,-2.4301,-2.4301,-2.4301,-2.4301,-2.4301,-2.4301,-2.4301,-2.4301,-2.4301,-2.4301,-2.4301,-2.4301,-2.4301,-2.4301,-2.4301,-2.4769,-2.5197,-2.5197,-2.5659,-2.6048,-2.6048,-2.6048,-2.6048,-2.6048,-2.6048,-2.6048,-2.6048,-2.6048,-2.6048,-2.6048,-2.6048,-2.6048,-2.6048,-2.6048,-2.6048,-2.6048,-2.6048,-2.6048,-2.6048,-2.6048,-2.6048,-2.6048,-2.6048,-2.6048,-2.6048,-2.6048,-2.6048,-2.6048,-2.6048,-2.6048,-0.7931,-0.3916,0.0,0.0,0.0,0.0,0.0,0.0,0.0,0.0,0.0,0.0,0.0,0.0,0.0,0.0,0.0,0.0,0.0,0.0,0.0,0.0,0.0,0.0,0.0,0.0,0.0,0.0,0.0,0.0,0.0,0.0,0.0,0.0,0.0,-0.0409,-0.1362,-0.7948,-1.1293,-1.1293,-1.5936,-1.9746,-2.2586,-2.2586,-2.2586,-2.2586,-2.2586,-2.2586,-2.2586,-2.2586,-2.2586,-2.2586,-2.2586,-2.2586,-2.2626,-2.2975,-2.3252,-2.3496,-2.3859,-2.4123,-2.4301,-2.4301,-2.4301,-2.4301,-2.4301,-2.4301,-2.4301,-2.4301,-2.4301,-2.4301,-2.4301,-2.4301,-2.4301,-2.4301,-2.4301,-2.4301,-2.4301,-2.4769,-2.5197,-2.5197,-2.5659,-2.6048,-2.6048,-2.6048,-2.6048,-2.6048,-2.6048,-2.6048,-2.6048,-2.6048,-2.6048,-2.6048,-2.6048,-2.6048,-2.6048,-2.6048,-2.6048,-2.6048,-2.6048,-2.6048,-2.6048,-2.6048,-2.6048,-2.6048,-2.6048,-2.6048,-2.6048,-2.6048,-2.6048,-2.6048,-2.6048,-2.6048,-0.9123,-0.5433,-0.1636,-0.033,0.0,0.0,0.0,0.0,0.0,0.0,0.0,0.0,0.0,0.0,0.0,0.0,0.0,0.0,0.0,0.0,0.0,0.0,0.0,0.0,0.0,0.0,0.0,0.0,0.0,0.0,0.0,0.0,0.0,0.0,0.0,0.0,0.0,-0.572,-0.96,-1.1293,-1.509,-1.8895,-2.2586,-2.2586,-2.2586,-2.2586,-2.2586,-2.2586,-2.2586,-2.2586,-2.2586,-2.2586,-2.2586,-2.2586,-2.2606,-2.2751,-2.2989,-2.3298,-2.374,-2.407,-2.4301,-2.4301,-2.4301,-2.4301,-2.4301,-2.4301,-2.4301,-2.4301,-2.4301,-2.4301,-2.4301,-2.4301,-2.4301,-2.4301,-2.4301,-2.4301,-2.4301,-2.4769,-2.5197,-2.5197,-2.5659,-2.6048,-2.6048,-2.6048,-2.6048,-2.6048,-2.6048,-2.6048,-2.6048,-2.6048,-2.6048,-2.6048,-2.6048,-2.6048,-2.6048,-2.6048,-2.6048,-2.6048,-2.6048,-2.6048,-2.6048,-2.6048,-2.6048,-2.6048,-2.6048,-2.6048,-2.6048,-2.6048,-2.6048,-2.6048,-2.6048,-2.6048,-0.9447,-0.653,-0.3613,-0.0668,0.0,0.0,0.0,0.0,0.0,0.0,0.0,0.0,0.0,0.0,0.0,0.0,0.0,0.0,0.0,0.0,0.0,0.0,0.0,0.0,0.0,0.0,0.0,0.0,0.0,0.0,0.0,0.0,0.0,0.0,0.0,0.0,0.0,-0.3213,-0.6923,-1.1293,-1.4524,-1.8335,-2.2586,-2.2586,-2.2586,-2.2586,-2.2586,-2.2586,-2.2586,-2.2586,-2.2586,-2.2586,-2.2586,-2.2586,-2.2586,-2.2586,-2.2731,-2.3008,-2.3562,-2.3964,-2.4248,-2.4287,-2.4301,-2.4301,-2.4301,-2.4301,-2.4301,-2.4301,-2.4301,-2.4301,-2.4301,-2.4301,-2.4301,-2.4301,-2.4301,-2.4301,-2.4301,-2.4769,-2.5197,-2.5197,-2.5659,-2.6048,-2.6048,-2.6048,-2.6048,-2.6048,-2.6048,-2.6048,-2.6048,-2.6048,-2.6048,-2.6048,-2.6048,-2.6048,-2.6048,-2.6048,-2.6048,-2.6048,-2.6048,-2.6048,-2.6048,-2.6048,-2.6048,-2.6048,-2.6048,-2.6048,-2.6048,-2.6048,-2.6048,-2.6048,-2.6048,-2.6048,-0.8906,-0.6585,-0.3555,-0.067,0.0,0.0,0.0,0.0,0.0,0.0,0.0,0.0,0.0,0.0,0.0,0.0,0.0,0.0,0.0,0.0,0.0,0.0,0.0,0.0,0.0,0.0,0.0,0.0,0.0,0.0,0.0,0.0,0.0,0.0,0.0,0.0,0.0,-0.056,-0.4386,-1.1293,-1.1853,-1.5796,-2.2586,-2.2586,-2.2586,-2.2586,-2.2586,-2.2586,-2.2586,-2.2586,-2.2586,-2.2586,-2.2586,-2.2586,-2.2586,-2.2586,-2.2613,-2.2699,-2.3022,-2.349,-2.3991,-2.4228,-2.4301,-2.4301,-2.4301,-2.4301,-2.4301,-2.4301,-2.4301,-2.4301,-2.4301,-2.4301,-2.4301,-2.4301,-2.4301,-2.4301,-2.4301,-2.4769,-2.5197,-2.5197,-2.5659,-2.6048,-2.6048,-2.6048,-2.6048,-2.6048,-2.6048,-2.6048,-2.6048,-2.6048,-2.6048,-2.6048,-2.6048,-2.6048,-2.6048,-2.6048,-2.6048,-2.6048,-2.6048,-2.6048,-2.6048,-2.6048,-2.6048,-2.6048,-2.6048,-2.6048,-2.6048,-2.6048,-2.6048,-2.6048,-2.6048,-2.6048,-0.7166,-0.4182,-0.1681,-0.0343,0.0,0.0,0.0,0.0,0.0,0.0,0.0,0.0,0.0,0.0,0.0,0.0,0.0,0.0,0.0,0.0,0.0,0.0,0.0,0.0,0.0,0.0,0.0,0.0,0.0,0.0,0.0,0.0,0.0,0.0,0.0,0.0,0.0,0.0,-0.3821,-1.1293,-1.1293,-1.5235,-2.2586,-2.2586,-2.2586,-2.2586,-2.2586,-2.2586,-2.2586,-2.2586,-2.2586,-2.2586,-2.2586,-2.2586,-2.2586,-2.2586,-2.2586,-2.2626,-2.2903,-2.3285,-2.372,-2.4162,-2.4301,-2.4301,-2.4301,-2.4301,-2.4301,-2.4301,-2.4301,-2.4301,-2.4301,-2.4301,-2.4301,-2.4301,-2.4301,-2.4301,-2.4301,-2.4769,-2.5197,-2.5197,-2.5659,-2.6048,-2.6048,-2.6048,-2.6048,-2.6048,-2.6048,-2.6048,-2.6048,-2.6048,-2.6048,-2.6048,-2.6048,-2.6048,-2.6048,-2.6048,-2.6048,-2.6048,-2.6048,-2.6048,-2.6048,-2.6048,-2.6048,-2.6048,-2.6048,-2.6048,-2.6048,-2.6048,-2.6048,-2.6048,-2.6048,-2.6048,-0.4694,0.0,0.0,0.0,0.0,0.0,0.0,0.0,0.0,0.0,0.0,0.0,0.0,0.0,0.0,0.0,0.0,0.0,0.0,0.0,0.0,0.0,0.0,0.0,0.0,0.0,0.0,0.0,0.0,0.0,0.0,0.0,0.0,0.0,0.0,0.0,0.0,0.0,-0.3821,-1.1293,-1.1293,-1.5235,-2.2586,-2.2586,-2.2586,-2.2586,-2.2586,-2.2586,-2.2586,-2.2586,-2.2586,-2.2586,-2.2586,-2.2586,-2.2586,-2.2586,-2.2586,-2.2619,-2.2824,-2.314,-2.3516,-2.3958,-2.4188,-2.4301,-2.4301,-2.4301,-2.4301,-2.4301,-2.4301,-2.4301,-2.4301,-2.4301,-2.4301,-2.4301,-2.4301,-2.4301,-2.4301,-2.4716,-2.5111,-2.5184,-2.5599,-2.5968,-2.6034,-2.6048,-2.6048,-2.6048,-2.6048,-2.6048,-2.6048,-2.6048,-2.6048,-2.6048,-2.6048,-2.6048,-2.6048,-2.6048,-2.6048,-2.6048,-2.6048,-2.6048,-2.6048,-2.6048,-2.6048,-2.6048,-2.6048,-2.6048,-2.6048,-2.6048,-2.6048,-2.6048,-2.6048,-2.6048,0.0,-0.0114,0.0,0.0,0.0,0.0,0.0,0.0,0.0,0.0,0.0,0.0,0.0,0.0,0.0,0.0,0.0,0.0,0.0,0.0,0.0,0.0,0.0,0.0,0.0,0.0,0.0,0.0,0.0,0.0,0.0,0.0,0.0,0.0,0.0,0.0,0.0,0.0,-0.3821,-1.1293,-1.1293,-1.5235,-2.2586,-2.2586,-2.2586,-2.2586,-2.2586,-2.2586,-2.2586,-2.2586,-2.2586,-2.2586,-2.2586,-2.2586,-2.2586,-2.2586,-2.2586,-2.2586,-2.2613,-2.2982,-2.345,-2.3496,-2.3865,-2.4301,-2.4301,-2.4301,-2.4301,-2.4301,-2.4301,-2.4301,-2.4301,-2.4301,-2.4301,-2.4301,-2.4301,-2.4301,-2.4301,-2.4551,-2.4861,-2.5138,-2.5434,-2.5725,-2.6001,-2.6048,-2.6048,-2.6048,-2.6048,-2.6048,-2.6048,-2.6048,-2.6048,-2.6048,-2.6048,-2.6048,-2.6048,-2.6048,-2.6048,-2.6048,-2.6048,-2.6048,-2.6048,-2.6048,-2.6048,-2.6048,-2.6048,-2.6048,-2.6048,-2.6048,-2.6048,-2.6048,-2.6048,-2.6048,-0.0339,0.0,0.0,0.0,0.0,0.0,0.0,0.0,0.0,0.0,0.0,0.0,0.0,0.0,0.0,0.0,0.0,0.0,0.0,0.0,0.0,0.0,0.0,0.0,0.0,0.0,0.0,0.0,0.0,0.0,0.0,0.0,0.0,0.0,0.0,0.0,0.0,0.0,-0.3821,-1.1293,-1.1293,-1.5235,-2.2586,-2.2586,-2.2586,-2.2586,-2.2586,-2.2586,0.0,-2.2586,-2.2586,-2.2586,-2.2586,-2.2586,-2.2586,-2.2586,-2.2586,-2.2586,-2.2586,-2.2844,-2.32,-2.3384,-2.372,-2.4076,-2.4248,-2.4301,-2.4301,-2.4301,-2.4301,-2.4301,-2.4301,-2.4301,-2.4301,-2.4301,-2.4301,-2.4301,-2.4301,-2.4531,-2.4835,-2.5138,-2.5415,-2.5698,-2.5995,-2.6048,-2.6048,-2.6048,-2.6048,-2.6048,-2.6048,-2.6048,-2.6048,-2.6048,-2.6048,-2.6048,-2.6048,-2.6048,-2.6048,-2.6048,-2.6048,-2.6048,-2.6048,-2.6048,-2.6048,-2.6048,-2.6048,-2.6048,-2.6048,-2.6048,-2.6048,-2.6048,-2.6048,-2.6048,0.0,0.0,0.0,0.0,0.0,0.0,0.0,0.0,0.0,0.0,0.0,0.0,0.0,0.0,0.0,0.0,0.0,0.0,0.0,0.0,0.0,0.0,0.0,0.0,0.0,0.0,0.0,0.0,0.0,0.0,0.0,0.0,0.0,0.0,0.0,0.0,0.0,0.0,-0.3821,-1.1293,-1.1293,-1.5235,-2.2586,-2.2586,-2.2586,-2.2586,-2.2586,-2.2586,-2.2586,-2.2586,-2.2586,-2.2586,-2.2586,-2.2586,-2.2586,-2.2586,-2.2586,-2.2586,-2.2586,-2.2764,-2.3028,-2.3233,-2.3569,-2.3925,-2.4116,-2.4235,-2.4301,-2.4301,-2.4301,-2.4301,-2.4301,-2.4301,-2.4301,-2.4301,-2.4301,-2.4301,-2.4301,-2.4459,-2.4696,-2.4993,-2.5283,-2.5566,-2.5856,-2.5988,-2.6048,-2.6048,-2.6048,-2.6048,-2.6048,-2.6048,-2.6048,-2.6048,-2.6048,-2.6048,-2.6048,-2.6048,-2.6048,-2.6048,-2.6048,-2.6048,-2.6048,-2.6048,-2.6048,-2.6048,-2.6048,-2.6048,-2.6048,-2.6048,-2.6048,-2.6048,-2.6048,-2.6048,0.0,0.0,0.0,0.0,0.0,0.0,0.0,0.0,0.0,0.0,0.0,0.0,0.0,0.0,0.0,0.0,0.0,0.0,0.0,0.0,0.0,0.0,0.0,0.0,0.0,0.0,0.0,0.0,0.0,0.0,0.0,0.0,0.0,0.0,0.0,0.0,0.0,0.0,-0.3821,-1.1293,-1.1293,-1.5235,-2.2586,-2.2586,-2.2586,-2.2586,-2.2586,-2.2586,-2.2586,-2.2586,-2.2586,-2.2586,-2.2586,-2.2586,-2.2586,-2.2586,-2.2586,-2.2586,-2.2586,-2.2764,-2.2995,-2.2995,-2.3397,-2.3885,-2.3885,-2.4076,-2.4301,-2.4301,-2.4301,-2.4301,-2.4301,-2.4301,-2.4301,-2.4301,-2.4301,-2.4301,-2.4301,-2.4301,-2.4393,-2.469,-2.4986,-2.5283,-2.556,-2.585,-2.6048,-2.6048,-2.6048,-2.6048,-2.6048,-2.6048,-2.6048,-2.6048,-2.6048,-2.6048,-2.6048,-2.6048,-2.6048,-2.6048,-2.6048,-2.6048,-2.6048,-2.6048,-2.6048,-2.6048,-2.6048,-2.6048,-2.6048,-2.6048,-2.6048,-2.6048,-2.6048,-2.6048,0.0,0.0,0.0,0.0,0.0,0.0,0.0,0.0,0.0,0.0,0.0,0.0,0.0,0.0,0.0,0.0,0.0,0.0,0.0,0.0,0.0,0.0,0.0,0.0,0.0,0.0,0.0,0.0,0.0,0.0,0.0,0.0,0.0,0.0,0.0,0.0,0.0,-0.2655,-0.636,-1.1293,-1.3962,-1.7769,-2.2586,-2.2586,-2.2586,-2.2586,-2.2586,-2.2586,-2.2586,-2.2586,-2.2586,-2.2586,-2.2586,-2.2586,-2.2586,-2.2586,-2.2586,-2.2586,-2.2586,-2.2639,-2.2738,-2.2936,-2.3259,-2.3575,-2.3575,-2.378,-2.405,-2.4248,-2.4301,-2.4301,-2.4301,-2.4301,-2.4301,-2.4301,-2.4301,-2.4301,-2.4301,-2.4301,-2.4393,-2.469,-2.4986,-2.5283,-2.556,-2.585,-2.6048,-2.6048,-2.6048,-2.6048,-2.6048,-2.6048,-2.6048,-2.6048,-2.6048,-2.6048,-2.6048,-2.6048,-2.6048,-2.6048,-2.6048,-2.6048,-2.6048,-2.6048,-2.6048,-2.6048,-2.6048,-2.6048,-2.6048,-2.6048,-2.6048,-2.6048,-2.6048,-2.6048,0.0,0.0,0.0,0.0,0.0,0.0,0.0,0.0,0.0,0.0,0.0,0.0,0.0,0.0,0.0,0.0,0.0,0.0,0.0,0.0,0.0,0.0,0.0,0.0,0.0,0.0,0.0,0.0,0.0,0.0,0.0,0.0,0.0,0.0,0.0,0.0,0.0,-0.377,-0.7485,-1.1293,-1.509,-1.8895,-2.2586,-2.2586,-2.2586,-2.2586,-2.2586,-2.2586,-2.2586,-2.2586,-2.2586,-2.2586,-2.2586,-2.2586,-2.2586,-2.2586,-2.2586,-2.2586,-2.2586,-2.2586,-2.2613,-2.2778,-2.3028,-2.3266,-2.3266,-2.3556,-2.3925,-2.409,-2.4215,-2.4301,-2.4301,-2.4301,-2.4301,-2.4301,-2.4301,-2.4301,-2.4301,-2.4301,-2.4353,-2.4531,-2.4815,-2.5105,-2.5395,-2.5678,-2.5916,-2.6034,-2.6048,-2.6048,-2.6048,-2.6048,-2.6048,-2.6048,-2.6048,-2.6048,-2.6048,-2.6048,-2.6048,-2.6048,-2.6048,-2.6048,-2.6048,-2.6048,-2.6048,-2.6048,-2.6048,-2.6048,-2.6048,-2.6048,-2.6048,-2.6048,-2.6048,-2.6048,0.0,0.0,0.0,0.0,0.0,0.0,0.0,0.0,0.0,0.0,0.0,0.0,0.0,0.0,0.0,0.0,0.0,0.0,0.0,0.0,0.0,0.0,0.0,0.0,0.0,0.0,0.0,0.0,0.0,0.0,0.0,0.0,0.0,0.0,0.0,0.0,0.0,-0.4049,-0.7908,-1.1293,-1.5511,-1.9181,-2.2586,-2.2586,-2.2586,-2.2586,-2.2586,-2.2586,-2.2586,-2.2586,-2.2586,-2.2586,-2.2586,-2.2586,-2.2586,-2.2586,-2.2586,-2.2586,-2.2586,-2.2586,-2.2586,-2.2586,-2.2751,-2.2962,-2.2989,-2.3378,-2.3819,-2.3872,-2.407,-2.4268,-2.4294,-2.4301,-2.4301,-2.4301,-2.4301,-2.4301,-2.4301,-2.4301,-2.4301,-2.4301,-2.4538,-2.4835,-2.5105,-2.5402,-2.5698,-2.5968,-2.6034,-2.6048,-2.6048,-2.6048,-2.6048,-2.6048,-2.6048,-2.6048,-2.6048,-2.6048,-2.6048,-2.6048,-2.6048,-2.6048,-2.6048,-2.6048,-2.6048,-2.6048,-2.6048,-2.6048,-2.6048,-2.6048,-2.6048,-2.6048,-2.6048,-2.6048,0.0,0.0,0.0,0.0,0.0,0.0,0.0,0.0,0.0,0.0,0.0,0.0,0.0,0.0,0.0,0.0,0.0,0.0,0.0,0.0,0.0,0.0,0.0,0.0,0.0,0.0,0.0,0.0,0.0,0.0,0.0,0.0,0.0,0.0,0.0,0.0,0.0,-0.6694,-1.0445,-1.1293,-1.8055,-2.1735,-2.2586,-2.2586,-2.2586,-2.2586,-2.2586,-2.2586,-2.2586,-2.2586,-2.2586,-2.2586,-2.2586,-2.2586,-2.2586,-2.2586,-2.2586,-2.2586,-2.2586,-2.2586,-2.2586,-2.2586,-2.2626,-2.2718,-2.2929,-2.3088,-2.3285,-2.3753,-2.3931,-2.403,-2.4248,-2.4301,-2.4301,-2.4301,-2.4301,-2.4301,-2.4301,-2.4301,-2.4301,-2.4301,-2.4538,-2.4769,-2.4835,-2.5263,-2.5626,-2.5692,-2.5896,-2.6048,-2.6048,-2.6048,-2.6048,-2.6048,-2.6048,-2.6048,-2.6048,-2.6048,-2.6048,-2.6048,-2.6048,-2.6048,-2.6048,-2.6048,-2.6048,-2.6048,-2.6048,-2.6048,-2.6048,-2.6048,-2.6048,-2.6048,-2.6048,-2.6048,0.0,0.0,0.0,0.0,0.0,0.0,0.0,0.0,0.0,0.0,0.0,-0.0523,-0.2221,-0.1177,-0.0523,-0.2221,-0.1046,0.0,0.0,0.0,0.0,0.0,0.0,0.0,0.0,0.0,0.0,0.0,0.0,0.0,0.0,0.0,0.0,0.0,0.0,0.0,0.0,-0.7483,-1.1224,-1.1434,-1.8906,-2.2586,-2.2586,-2.2586,-2.2586,-2.2586,-2.2586,-2.2586,-2.2586,-2.2586,-2.2586,-2.2586,-2.2586,-2.2586,-2.2586,-2.2586,-2.2586,-2.2586,-2.2586,-2.2586,-2.2586,-2.2586,-2.2586,-2.2613,-2.2758,-2.289,-2.3061,-2.3378,-2.3668,-2.3925,-2.407,-2.4202,-2.4301,-2.4301,-2.4301,-2.4301,-2.4301,-2.4301,-2.4301,-2.4301,-2.4426,-2.4577,-2.4722,-2.4993,-2.5243,-2.5388,-2.5652,-2.5837,-2.5837,-2.5837,-2.5837,-2.5837,-2.5962,-2.6048,-2.6048,-2.6048,-2.6048,-2.6048,-2.6048,-2.6048,-2.6048,-2.6048,-2.6048,-2.6048,-2.6048,-2.6048,-2.6048,-2.5909,-2.5837,-2.5837,-2.5698,-2.5639,0.0,0.0,0.0,0.0,0.0,0.0,0.0,-0.0501,-0.0758,-0.013,-0.0914,-0.2482,-0.4829,-0.3396,-0.2613,-0.4829,-0.2873,-0.0654,-0.0131,0.0,0.0,0.0,0.0,0.0,0.0,0.0,0.0,0.0,0.0,0.0,0.0,0.0,0.0,0.0,0.0,-0.0268,-0.0954,-0.7844,-1.1565,-1.2275,-1.9186,-2.2586,-2.2586,-2.2586,-2.2586,-2.2586,-2.2586,-2.2586,-2.2586,-2.2586,-2.2586,-2.2586,-2.2586,-2.2586,-2.2586,-2.2586,-2.2586,-2.2586,-2.2586,-2.2586,-2.2586,-2.2586,-2.2586,-2.2586,-2.2586,-2.2745,-2.2936,-2.2982,-2.3351,-2.376,-2.3865,-2.4057,-2.4241,-2.4287,-2.4301,-2.4301,-2.4301,-2.4301,-2.4301,-2.4301,-2.4301,-2.438,-2.4624,-2.4709,-2.4828,-2.5078,-2.5355,-2.5533,-2.5533,-2.5533,-2.5533,-2.5533,-2.5758,-2.5903,-2.5903,-2.5903,-2.5903,-2.5903,-2.5903,-2.5903,-2.5903,-2.5903,-2.5903,-2.5903,-2.5903,-2.5903,-2.5896,-2.5652,-2.5533,-2.5527,-2.5303,-2.5197,0.0,0.0,0.0,0.0,0.0,0.0,0.0,-0.2358,-0.3644,-0.064,-0.4917,-0.8342,-0.574,-0.7303,-0.8215,-0.5609,-0.4829,-0.3526,-0.0392,0.0,0.0,0.0,0.0,0.0,0.0,0.0,0.0,0.0,0.0,0.0,0.0,0.0,0.0,0.0,0.0,-0.1593,-0.4896,-0.908,-1.295,-1.6212,-2.0458,-2.2586,-2.2586,-2.2586,-2.2586,-2.2586,-2.2586,-2.2586,-2.2586,-2.2586,-2.2586,-2.2586,-2.2586,-2.2586,-2.2586,-2.2586,-2.2586,-2.2586,-2.2586,-2.2586,-2.2586,-2.2586,-2.2586,-2.2586,-2.2586,-2.2613,-2.2692,-2.2929,-2.3055,-2.3233,-2.3753,-2.3918,-2.4004,-2.4241,-2.4301,-2.4301,-2.4301,-2.4301,-2.4301,-2.4301,-2.4301,-2.4314,-2.4353,-2.4571,-2.4755,-2.4802,-2.5059,-2.5406,-2.5406,-2.5406,-2.5406,-2.5406,-2.5283,-2.5309,-2.5309,-2.5309,-2.5309,-2.5309,-2.5309,-2.5309,-2.5309,-2.5309,-2.5309,-2.5309,-2.5309,-2.5309,-2.5309,-2.527,-2.5406,-2.5406,-2.521,-2.5197,0.0,0.0,0.0,0.0,-0.1319,-0.2767,-0.2687,-0.5285,-0.7199,-0.5846,-0.8079,-1.0324,-1.0922,-1.068,-1.0553,-1.0936,-0.7819,-0.4698,-0.3135,-0.1307,0.0,0.0,0.0,0.0,0.0,0.0,0.0,0.0,0.0,0.0,0.0,0.0,0.0,0.0,0.0,-0.0789,-0.2395,-0.8267,-1.3082,-1.673,-2.0665,-2.2586,-2.2586,-2.2586,-2.2586,-2.2586,-2.2586,-2.2586,-2.2586,-2.2586,-2.2586,-2.2586,-2.2586,-2.2586,-2.2586,-2.2586,-2.2586,-2.2586,-2.2586,-2.2586,-2.2586,-2.2586,-2.2586,-2.2586,-2.2586,-2.2586,-2.2613,-2.2731,-2.2877,-2.3061,-2.3318,-2.3516,-2.3714,-2.4004,-2.407,-2.4116,-2.4268,-2.4301,-2.4301,-2.4301,-2.4301,-2.4301,-2.4301,-2.4413,-2.4498,-2.4498,-2.4749,-2.4881,-2.4716,-2.4841,-2.494,-2.494,-2.5092,-2.5197,-2.5197,-2.5197,-2.5197,-2.5197,-2.5197,-2.5197,-2.5197,-2.5197,-2.5197,-2.5197,-2.5197,-2.5197,-2.5197,-2.5026,-2.494,-2.494,-2.4769,-2.4696,-0.2394,-0.2397,-0.2397,-0.2397,-0.4309,-0.5998,-0.6066,-0.8526,-1.0681,-0.9917,-1.1257,-1.3115,-1.5106,-1.4114,-1.3616,-1.5212,-1.0546,-0.6261,-0.535,-0.2221,0.0,0.0,0.0,0.0,0.0,0.0,0.0,0.0,0.0,0.0,0.0,0.0,0.0,0.0,-0.0915,-0.1307,-0.1307,-0.8807,-1.4284,-1.797,-2.0959,-2.2514,-2.2586,-2.2586,-2.2586,-2.2586,-2.2586,-2.2586,-2.2586,-2.2586,-2.2586,-2.2586,-2.2586,-2.2586,-2.2586,-2.2586,-2.2586,-2.2586,-2.2586,-2.2586,-2.2586,-2.2586,-2.2586,-2.2586,-2.2586,-2.2586,-2.2586,-2.2586,-2.2731,-2.291,-2.2982,-2.316,-2.3411,-2.3707,-2.3839,-2.3945,-2.4149,-2.4254,-2.4301,-2.4301,-2.4301,-2.4301,-2.4301,-2.4301,-2.4301,-2.4301,-2.4492,-2.4551,-2.4327,-2.4498,-2.463,-2.463,-2.4835,-2.4966,-2.4966,-2.4966,-2.4966,-2.4966,-2.4966,-2.4966,-2.4966,-2.4966,-2.4966,-2.4966,-2.4966,-2.4966,-2.4966,-2.4742,-2.463,-2.4624,-2.4406,-2.4301,-0.8926,-0.9079,-0.9079,-0.9079,-0.9202,-0.9321,-0.9328,-1.1961,-1.3546,-1.0269,-1.4842,-1.8583,-1.5663,-1.7737,-1.8961,-1.5967,-1.2497,-0.9123,-0.574,-0.2221,0.0,0.0,0.0,0.0,0.0,0.0,0.0,0.0,0.0,0.0,0.0,0.0,0.0,0.0,-0.3265,-0.4959,-0.4959,-1.2284,-1.7926,-2.1864,-2.2021,-2.2316,-2.2586,-2.2586,-2.2586,-2.2586,-2.2586,-2.2586,-2.2586,-2.2586,-2.2586,-2.2586,-2.2586,-2.2586,-2.2586,-2.2586,-2.2586,-2.2586,-2.2586,-2.2586,-2.2586,-2.2586,-2.2586,-2.2586,-2.2586,-2.2586,-2.2586,-2.2586,-2.2593,-2.2666,-2.2929,-2.3008,-2.3094,-2.3397,-2.3687,-2.3892,-2.3905,-2.4116,-2.4301,-2.4301,-2.4301,-2.4301,-2.4301,-2.4301,-2.4301,-2.4301,-2.4314,-2.432,-2.4307,-2.4314,-2.4327,-2.4327,-2.434,-2.4347,-2.4347,-2.4347,-2.4347,-2.4347,-2.4347,-2.4347,-2.4347,-2.4347,-2.4347,-2.4347,-2.4347,-2.4347,-2.4347,-2.4334,-2.4327,-2.4327,-2.4307,-2.4301,-0.9283,-0.9365,-0.9556,-0.9556,-1.11,-1.2645,-1.2645,-1.5215,-1.7246,-1.6071,-1.7894,-1.9411,-1.8446,-1.9249,-1.9786,-1.8616,-1.5708,-1.3106,-1.1822,-0.6873,-0.3396,-0.3396,-0.1438,0.0,0.0,0.0,0.0,0.0,-0.209,-0.3396,-0.3396,-0.5481,-0.6782,-0.6782,-0.7954,-0.8603,-0.8603,-1.3342,-1.6672,-1.8339,-2.086,-2.2197,-2.2303,-2.2494,-2.2586,-2.2586,-2.2586,-2.2586,-2.2586,-2.2586,-2.2586,-2.2586,-2.2586,-2.2586,-2.2586,-2.2586,-2.2586,-2.2586,-2.2586,-2.2586,-2.2586,-2.2586,-2.2586,-2.2586,-2.2586,-2.2586,-2.2586,-2.2586,-2.2586,-2.2613,-2.2705,-2.2731,-2.2804,-2.3088,-2.3239,-2.3371,-2.3562,-2.3832,-2.4037,-2.4037,-2.4182,-2.4301,-2.4301,-2.4301,-2.4301,-2.4301,-2.4301,-2.4301,-2.4301,-2.4301,-2.4301,-2.4301,-2.4301,-2.4301,-2.4301,-2.4301,-2.4301,-2.4301,-2.4301,-2.4301,-2.4301,-2.4301,-2.4301,-2.4301,-2.4301,-2.4301,-2.4301,-2.4301,-2.4301,-2.4301,-2.4301,-2.4301,-1.233,-1.2409,-1.2492,-1.2738,-1.4262,-1.5881,-1.5959,-1.7531,-1.9145,-1.9223,-1.9263,-1.9475,-1.9778,-1.9831,-1.9864,-1.9969,-1.7241,-1.5063,-1.5063,-1.0211,-0.6696,-0.6858,-0.3759,-0.169,-0.1698,-0.2731,-0.3371,-0.3371,-0.5595,-0.7043,-0.7043,-0.9256,-1.0556,-1.0556,-1.1592,-1.2241,-1.2241,-1.5615,-1.7388,-1.769,-2.0534,-2.1855,-2.1868,-2.2257,-2.2435,-2.2441,-2.254,-2.2586,-2.2586,-2.2586,-2.2586,-2.2586,-2.2586,-2.2586,-2.2586,-2.2586,-2.2586,-2.2586,-2.2586,-2.2586,-2.2586,-2.2586,-2.2586,-2.2586,-2.2586,-2.2586,-2.2586,-2.2586,-2.2586,-2.2586,-2.2586,-2.2586,-2.2633,-2.2817,-2.2929,-2.3055,-2.3252,-2.3529,-2.374,-2.374,-2.3885,-2.4043,-2.4149,-2.4162,-2.4195,-2.4287,-2.4301,-2.4235,-2.4037,-2.4017,-2.4017,-2.4017,-2.4017,-2.4017,-2.4017,-2.4017,-2.4017,-2.4017,-2.4017,-2.4017,-2.4017,-2.4017,-2.4017,-2.4017,-2.4017,-2.4017,-2.4017,-2.4017,-2.4017,-2.4017,-2.4017,-2.4017,-1.8492,-1.8446,-1.8367,-1.8928,-1.8868,-1.875,-1.902,-1.9086,-1.9092,-1.9092,-1.9092,-1.9178,-1.9589,-1.9521,-1.9498,-1.991,-1.7077,-1.4956,-1.4956,-1.1845,-0.9782,-1.0051,-0.7014,-0.5134,-0.5465,-0.8228,-0.9941,-0.9941,-1.0334,-1.0676,-1.0676,-1.0813,-1.0813,-1.0813,-1.4056,-1.5739,-1.5739,-1.9131,-2.0839,-2.0839,-2.0999,-2.1143,-2.1169,-2.1861,-2.2125,-2.2145,-2.2435,-2.2567,-2.2573,-2.2573,-2.258,-2.2586,-2.2586,-2.2586,-2.2586,-2.2586,-2.2586,-2.2586,-2.2586,-2.2586,-2.2586,-2.2586,-2.2586,-2.2586,-2.2586,-2.2586,-2.2586,-2.2586,-2.2586,-2.2586,-2.2586,-2.2586,-2.2586,-2.2586,-2.2791,-2.2982,-2.2982,-2.3219,-2.343,-2.343,-2.3582,-2.3536,-2.3826,-2.3879,-2.3971,-2.4235,-2.4274,-2.4076,-2.3516,-2.3589,-2.3589,-2.3589,-2.3589,-2.3589,-2.3589,-2.3589,-2.3589,-2.3589,-2.3589,-2.3589,-2.3589,-2.3589,-2.3589,-2.3589,-2.3589,-2.3589,-2.3589,-2.3589,-2.3589,-2.3589,-2.3589,-2.3589,-1.7939,-1.813,-1.8275,-1.8433,-1.8578,-1.8697,-1.8776,-1.8947,-1.9092,-1.9092,-1.9092,-1.9112,-1.9198,-1.9211,-1.9237,-1.9323,-1.8783,-1.8296,-1.8174,-1.5364,-1.3365,-1.3423,-1.0418,-0.9303,-1.1864,-1.0568,-0.9664,-0.9664,-1.2215,-1.3851,-1.3851,-1.6441,-1.7969,-1.7969,-1.8873,-1.9395,-1.9395,-2.0317,-2.0839,-2.0839,-2.0919,-2.1077,-2.1156,-2.1446,-2.1631,-2.1822,-2.1907,-2.2066,-2.2263,-2.2263,-2.2389,-2.2586,-2.2586,-2.2586,-2.2586,-2.2586,-2.2586,-2.2586,-2.2586,-2.2586,-2.2586,-2.2586,-2.2586,-2.2586,-2.2586,-2.2586,-2.2586,-2.2586,-2.2586,-2.2586,-2.2586,-2.2586,-2.2586,-2.2586,-2.2646,-2.2699,-2.2699,-2.2923,-2.312,-2.312,-2.3298,-2.3476,-2.3556,-2.3569,-2.3595,-2.3674,-2.3681,-2.3622,-2.3615,-2.3589,-2.3589,-2.3589,-2.3589,-2.3589,-2.3589,-2.3589,-2.3589,-2.3589,-2.3589,-2.3589,-2.3589,-2.3589,-2.3589,-2.3589,-2.3589,-2.3589,-2.3589,-2.3589,-2.3589,-2.3589,-2.3589,-2.3589,-1.7576,-1.7747,-1.7932,-1.8176,-1.8275,-1.8341,-1.8466,-1.8618,-1.873,-1.873,-1.8829,-1.8921,-1.8921,-1.9013,-1.9092,-1.9092,-1.9237,-1.9349,-1.923,-1.7659,-1.6567,-1.6673,-1.487,-1.4323,-1.6407,-1.4772,-1.3716,-1.3716,-1.5912,-1.7189,-1.7189,-1.9342,-2.0655,-2.0655,-2.0773,-2.0839,-2.0839,-2.0839,-2.0839,-2.0839,-2.0839,-2.0932,-2.0966,-2.0966,-2.1255,-2.1532,-2.1644,-2.1795,-2.196,-2.196,-2.2132,-2.2402,-2.2402,-2.2474,-2.2573,-2.2448,-2.2402,-2.2422,-2.254,-2.2586,-2.2586,-2.2586,-2.2586,-2.2586,-2.2586,-2.2586,-2.2586,-2.2586,-2.2586,-2.2586,-2.2586,-2.2586,-2.2586,-2.2586,-2.2586,-2.2586,-2.2586,-2.2712,-2.2824,-2.2824,-2.2969,-2.312,-2.3239,-2.3259,-2.3219,-2.3107,-2.3088,-2.3088,-2.3088,-2.3088,-2.3088,-2.3088,-2.3088,-2.3088,-2.3088,-2.3088,-2.3088,-2.3088,-2.3088,-2.3088,-2.3088,-2.3088,-2.3088,-2.3088,-2.3088,-2.3088,-2.3088,-2.3088,-2.3088,-2.3088,-2.3088,-2.3088,-1.7271,-1.7271,-1.7389,-1.8011,-1.8076,-1.797,0.0,-1.8209,-1.8235,-1.8235,-1.8446,-1.8631,-1.8631,-1.8855,-1.9046,-1.9046,-1.9073,-1.9092,-1.9092,-1.9092,-1.9191,-1.9335,-1.9131,-1.9092,-1.9092,-1.921,-1.9361,-1.9361,-1.9765,-1.993,-1.993,-2.0193,-2.0352,-2.0352,-2.0635,-2.0787,-2.0787,-2.082,-2.0839,-2.0839,-2.0839,-2.0839,-2.0839,-2.0839,-2.0855,-2.111,-2.1492,-2.1604,-2.1738,-2.1637,-2.1822,-2.2092,-2.2092,-2.2257,-2.2455,-2.2191,-2.2092,-2.2138,-2.2435,-2.2534,-2.254,-2.2573,-2.2586,-2.2586,-2.2586,-2.2586,-2.2586,-2.2586,-2.2586,-2.2586,-2.2586,-2.2586,-2.2586,-2.2586,-2.2586,-2.2586,-2.2586,-2.2586,-2.2586,-2.2586,-2.2586,-2.2666,-2.291,-2.2956,-2.287,-2.2626,-2.2586,-2.2586,-2.2586,-2.2586,-2.2586,-2.2586,-2.2586,-2.2586,-2.2586,-2.2586,-2.2586,-2.2586,-2.2586,-2.2586,-2.2586,-2.2586,-2.2586,-2.2586,-2.2586,-2.2586,-2.2586,-2.2586,-2.2586,-2.2586,-2.2586,-2.2553,0.0,0.0,0.0,0.0,0.0,0.0,0.0,-1.8064,-1.8235,-1.8235,-1.8281,-1.8321,-1.8321,-1.8558,-1.8756,-1.8756,-1.8947,-1.9092,-1.9092,-1.9092,-1.9112,-1.9171,-1.9125,-1.9092,-1.9092,-1.9138,-1.9178,-1.9178,-1.9335,-1.9498,-1.9498,-1.9903,-2.0061,-2.0061,-2.0338,-2.0477,-2.0477,-2.0721,-2.0839,-2.0839,-2.0839,-2.0839,-2.0839,-2.0839,-2.0866,-2.0925,-2.0984,-2.1004,-2.1024,-2.1261,-2.1525,-2.1782,-2.1782,-2.1822,-2.1861,-2.1809,-2.1782,-2.1828,-2.2125,-2.223,-2.227,-2.2507,-2.2586,-2.2586,-2.2586,-2.2586,-2.2586,-2.2586,-2.2586,-2.2586,-2.2586,-2.2586,-2.2586,-2.2586,-2.2586,-2.2586,-2.2586,-2.2586,-2.2586,-2.2586,-2.2586,-2.2606,-2.2659,-2.2666,-2.2646,-2.2593,-2.2586,-2.2586,-2.2586,-2.2586,-2.2586,-2.2586,-2.2586,-2.2586,-2.2586,-2.2586,-2.2586,-2.2586,-2.2586,-2.2586,-2.2586,-2.2586,-2.2586,-2.2586,-2.2586,-2.2586,-2.2586,-2.2586,-2.2586,-2.2586,-2.2586,-2.2329,0.0,0.0,0.0,0.0,0.0,0.0,0.0,0.0,0.0,0.0,0.0,-1.8123,-1.8123,0.0,-1.8459,-1.8459,-1.8572,-1.8717,-1.8862,-1.8888,-1.8888,-1.8888,-1.8888,-1.8941,-1.9079,-1.9092,-1.9092,-1.9092,-1.9224,-1.919,-1.919,-1.96,-1.9758,-1.9758,-2.0035,-2.0187,-2.0187,-2.0338,-2.0411,-2.0411,-2.0549,-2.0615,-2.0622,-2.0767,-2.0839,-2.0839,-2.0839,-2.0839,-2.0846,-2.0998,-2.1228,-2.1479,-2.1327,-2.1268,-2.1288,-2.1433,-2.1492,-2.1532,-2.1822,-2.1921,-2.1947,-2.2092,-2.2145,-2.2171,-2.2323,-2.2362,-2.2395,-2.2547,-2.2586,-2.2586,-2.2586,-2.2586,-2.2586,-2.2586,-2.2586,-2.2586,-2.2586,-2.2586,-2.2586,-2.2586,-2.2586,-2.2586,-2.2586,-2.2586,-2.2586,-2.2586,-2.2586,-2.2586,-2.2586,-2.2586,-2.2586,-2.2586,-2.2586,-2.2586,-2.2586,-2.2586,-2.2586,-2.2586,-2.2586,-2.2586,-2.2586,-2.2441,-2.2362,-2.2362,-2.2217,-2.2145,-2.2145,-2.2145,-2.2145,-2.2138,-2.1848,-2.1551,0.0,0.0,0.0,0.0,0.0,0.0,0.0,0.0,0.0,0.0,0.0,0.0,0.0,0.0,0.0,-1.815,-1.8196,-1.8321,-1.8558,-1.8545,-1.8532,-1.8585,-1.8591,-1.8677,-1.8901,-1.898,-1.9013,-1.9013,-1.9059,-1.9092,-1.9092,-1.9197,-1.9328,-1.9328,-1.9738,-1.9897,-1.9897,-1.9956,-1.9982,-1.9989,-2.0207,0.0,-2.0325,-2.0563,-2.0675,-2.0675,-2.0675,-2.0701,-2.0754,-2.0754,-2.0925,-2.1032,-2.0813,-2.0675,-2.0708,-2.0874,-2.0979,-2.1032,-2.1499,-2.1617,-2.1624,-2.1817,-2.1831,-2.1743,-2.1987,-2.2059,0.0,-2.2349,-2.2455,-2.2501,-2.2501,-2.254,-2.2586,-2.2586,-2.2586,-2.2586,-2.2586,-2.2586,-2.2586,-2.2586,-2.2586,-2.2586,-2.2586,-2.2586,-2.272,-2.3543,-2.2992,-2.2859,-2.3543,-2.2999,-2.2586,-2.2586,-2.2586,-2.2586,-2.2586,-2.2586,-2.2586,-2.2586,-2.2534,-2.2474,-2.2415,-2.2184,-2.2059,-2.2059,-2.1822,-2.167,-2.1617,-2.1617,-2.1591,-2.1518,-2.0945,-2.0675,0.0,0.0,0.0,0.0,0.0,0.0,0.0,0.0,0.0,0.0,0.0,0.0,0.0,0.0,0.0,0.0,-1.8064,-1.8248,-1.8281,-1.8169,-1.8103,-1.8255,-1.8288,-1.8295,-1.8328,-1.8572,-1.873,-1.873,-1.8954,-1.9092,-1.9092,-1.9119,0.0,0.0,0.0,-1.9466,-1.9466,-1.9851,-1.9982,-1.9982,-2.0015,-2.0029,-2.0029,-2.0068,-2.0081,-2.0081,-2.0081,-2.022,-2.0444,-2.0444,-2.0622,-2.0833,-2.0292,-2.0081,-2.0114,-2.0391,-2.0497,-2.0576,-2.1136,0.0,0.0,-2.1617,-2.1831,-2.1703,-2.1877,-2.1749,-2.189,-2.1789,-2.1987,-2.2191,-2.2191,-2.2389,-2.2586,-2.2586,-2.2586,-2.2586,-2.2586,-2.2586,-2.2586,-2.2586,-2.2586,-2.2586,-2.2586,-2.2586,-2.3683,-2.6826,-2.4643,-2.3683,-2.6956,-2.4504,-2.2586,-2.2586,-2.2586,0.0,-2.2586,-2.2586,-2.2586,-2.2586,-2.2336,-2.2072,-2.1809,-2.1769,-2.1749,-2.1749,-2.1851,-2.1578,-2.1195,-2.1195,-2.1195,-2.0919,-2.0345,-2.0081,0.0,0.0,0.0,0.0,0.0,0.0,0.0,0.0,0.0,0.0,0.0,0.0,0.0,0.0,0.0,0.0,-1.7655,-1.8276,-1.9996,-1.8704,-1.7655,-1.8056,-1.8089,-1.8156,-1.8216,-1.8347,-1.842,-1.842,-1.8532,-1.8591,-1.8591,-1.8756,-1.8848,-1.8848,-1.9125,-1.9158,-1.9158,-1.9402,-1.9462,-1.9468,-1.964,-1.9719,-1.9725,-1.9903,-1.9982,-1.9982,-1.9982,-2.0048,-2.0154,-2.0154,-2.0233,-2.0319,0.0,0.0,0.0,0.0,-2.0154,-2.0193,-2.0444,-2.053,-2.0569,-2.0853,-2.0938,-2.1004,-2.1354,-2.1453,-2.1492,-2.165,-2.1789,-2.1881,-2.1881,-2.198,-2.2072,-2.2072,-2.2072,-2.2118,-2.229,-2.2329,-2.2375,-2.2553,-2.2586,0.0,-2.4684,-2.6627,-2.7826,-2.7421,-2.7691,-2.7826,-2.7421,-2.7699,-2.7969,-2.7969,-2.6229,-2.5017,-2.5017,-2.3279,0.0,0.0,0.0,-2.1828,-2.1703,-2.1831,0.0,0.0,0.0,-2.0648,-2.053,-2.053,0.0,0.0,-1.8921,-1.8789,0.0,0.0,0.0,0.0,0.0,0.0,0.0,0.0,0.0,0.0,0.0,0.0,0.0,0.0,0.0,0.0,-1.896,-1.948,-2.2321,-2.0326,-1.8831,-1.9907,-1.8644,-1.8083,-1.9075,-1.8622,-1.811,-1.811,-1.8189,-1.8235,-1.8235,-1.844,-1.8558,-1.8558,-1.875,-1.8855,-1.8855,-1.8855,-1.8895,-1.898,-1.9079,-1.9217,-1.9295,-1.964,-1.9738,-1.9738,-1.9738,-1.9785,-1.9857,-1.9857,-1.991,-2.0079,-2.0558,-2.0341,-1.9633,-1.9712,-2.0396,-2.1207,-2.1284,-2.071,-2.0015,-2.0213,-2.0279,-2.0365,-2.0793,-2.0925,-2.0984,-2.1261,-2.14,-2.1479,-2.1565,-2.1637,-2.1831,-2.1831,-2.1831,-2.189,-2.1973,-2.2019,-2.2085,-2.2296,-2.384,-2.5713,-2.7849,-3.0248,-3.1432,-2.9994,-3.0907,-3.1301,-2.9862,-3.1038,-3.1827,-3.1827,-2.9721,-2.8153,-2.8153,-2.5914,-2.4605,-2.4605,-2.4301,-2.3815,-2.2904,-2.2735,-2.192,-2.0609,-2.0114,-1.9785,0.0,0.0,0.0,0.0,0.0,0.0,0.0,0.0,0.0,0.0,0.0,0.0,0.0,0.0,0.0,0.0,0.0,0.0,0.0,0.0,0.0,0.0,0.0,0.0,-2.5268,-2.3274,-2.2436,-2.5278,-2.0653,-1.8452,-2.1202,-1.9255,-1.7917,-1.7917,-1.8182,-1.8235,-1.8235,-1.8248,-1.8248,-1.8248,-1.8255,-1.8262,-1.8262,-1.8262,-1.8407,-1.869,-1.8703,-1.8848,-1.9106,-1.9112,-1.9119,-1.9119,-1.9119,-1.9284,-1.9426,-1.9426,-1.9719,-2.0266,-2.2056,-2.1106,-1.875,-1.902,-2.1182,-2.4004,-2.4458,-2.2521,-1.9982,-1.9996,-1.9996,-2.0002,-2.0015,-2.0022,-2.0081,-2.0358,-2.0642,-2.0932,-2.109,-2.1499,-2.1831,-2.1831,-2.1831,-2.1837,-2.1844,-2.1844,-2.1851,-2.1723,-2.7135,-3.1593,-3.1695,-3.1827,-3.3007,-3.6442,-3.4063,0.0,-3.6572,-3.3932,-3.1827,-3.1827,-3.1817,-3.1695,-3.1695,-3.1564,-3.1564,-3.1564,-3.0685,-2.8842,-2.5806,-2.5011,-2.318,-2.0132,-1.9705,-1.9158,-1.8723,0.0,0.0,0.0,0.0,0.0,0.0,0.0,0.0,0.0,0.0,0.0,0.0,0.0,0.0,0.0,0.0,0.0,0.0,0.0,0.0,0.0,0.0,0.0,0.0,-2.6204,-2.4733,-2.5784,-2.411,-2.3371,-2.4321,-2.3699,-2.314,-2.314,-2.1452,-2.0457,-2.0457,-1.8928,-1.805,-1.805,-1.813,-1.8235,-1.8235,-1.8235,-1.8288,-1.8387,-1.8387,-1.8433,-1.8633,-2.0434,-2.1216,-2.133,-2.3235,-2.3082,-2.1497,-2.3426,-2.4292,-2.4484,-2.5109,-2.4836,-2.3967,-2.4087,-2.4783,-2.5815,-2.5952,-2.5312,-2.4498,-2.5122,-2.3991,-2.2904,-2.5404,-2.6036,-2.6062,-2.6182,-2.6312,-2.6317,-2.6446,-2.6575,-2.6669,-2.6669,-2.6984,-2.7361,-2.7493,-2.7872,-2.8115,-2.8366,-3.1169,-3.3379,-3.3379,-3.5237,-3.6487,-3.5371,-3.6533,-3.7003,-3.5996,-3.7046,-3.7885,-3.7885,-3.5959,-3.4556,-3.4556,-3.2248,-3.0701,-3.0701,-3.0041,-2.9107,-2.8124,-2.569,-2.3764,-2.2469,-2.0161,-1.9691,-2.1057,0.0,0.0,0.0,0.0,0.0,0.0,0.0,0.0,0.0,0.0,0.0,0.0,0.0,0.0,0.0,0.0,0.0,0.0,0.0,0.0,0.0,0.0,0.0,0.0,0.0,0.0,-2.87,-2.7041,0.0,-2.7251,-2.6413,-2.5889,-2.5889,-2.411,-2.3062,-2.3062,-2.1586,-2.0751,-2.0751,-2.0859,-2.0975,-2.0975,-2.0975,-2.1037,-2.1161,-2.1161,-2.1223,-2.1331,-2.3092,-2.3862,-2.3973,-2.5838,-2.5627,-2.4169,-2.7804,-2.8112,-2.6402,-2.7539,-2.7381,-2.6527,-2.6563,-2.7282,-2.8161,-2.7052,-2.7392,-2.8264,-2.771,-2.6304,-2.5153,-2.7507,-2.8264,-2.8293,-2.833,-2.8602,-2.8757,-2.8911,-2.9056,-2.9172,-2.9172,-2.9507,-2.9779,-2.9936,-3.0332,-3.1311,-3.3708,-3.5243,-3.6061,-3.6061,-3.7876,-3.848,-3.6298,-3.8177,-3.9146,-3.6923,-3.8836,-4.0422,-4.0422,-3.8428,-3.7185,-3.7185,-3.4786,-3.3371,-3.3371,-3.2652,-3.1692,-3.0617,-2.805,-2.6014,-2.4836,-2.2563,-2.1986,0.0,0.0,0.0,0.0,0.0,0.0,0.0,0.0,0.0,0.0,0.0,0.0,0.0,0.0,0.0,0.0,0.0,0.0,0.0,0.0,0.0,0.0,0.0,0.0,0.0,0.0,0.0,-3.3753,-2.9519,0.0,0.0,0.0,0.0,-2.6308,-2.6099,-2.6099,-2.6099,-2.5889,-2.5889,-2.5889,-2.5889,-2.5889,-2.5889,-2.5889,-2.6,-2.6198,-2.6198,-2.6393,-2.6553,-2.6763,-2.6773,-2.6773,-2.6983,-2.6883,-2.7143,-3.2173,-3.113,-2.6558,-2.9554,-2.8995,-2.6677,-2.6955,-2.8866,-3.1081,-2.809,-2.8976,-3.0961,-2.7761,-2.6893,-2.7022,-2.6912,-2.6932,0.0,0.0,-2.7861,-2.8504,-2.8693,-2.9104,-2.9528,-2.9528,-2.9538,-2.9557,-2.9557,-2.9587,-3.1405,-3.7178,-3.8799,-3.9045,-3.9045,0.0,-3.9163,-3.9071,-3.9228,-3.9136,-3.928,-3.9188,-3.9214,-3.9214,-3.9214,-3.9214,-3.9214,-3.928,-3.9241,-3.9241,-3.8189,-3.6274,-3.3369,-3.1966,-2.9893,-2.6883,-2.6373,0.0,0.0,0.0,0.0,0.0,0.0,0.0,0.0,0.0,0.0,0.0,0.0,0.0,0.0,0.0,0.0,0.0,0.0,0.0,0.0,0.0,0.0,0.0,0.0,0.0,0.0,-3.2095,-3.2089,-3.3475,-3.2407,-3.1949,0.0,0.0,0.0,0.0,0.0,0.0,-2.8919,-2.6937,-2.5889,-2.5889,-2.5889,-2.5889,-2.5889,-2.5889,-2.5843,-2.5951,-2.5951,-2.601,-2.6108,-2.8122,-2.9072,-2.9177,-3.1312,-3.1091,-2.9377,-3.2813,-3.333,-3.2186,-3.2966,-3.2809,-3.2187,-3.2217,-3.2799,-3.3345,-3.2578,-3.2799,-3.302,-3.003,-3.0831,-3.2457,-3.0369,0.0,0.0,0.0,0.0,-3.3938,-3.3961,-3.4094,-3.4203,-3.4203,-3.4493,-3.4783,-3.4783,-3.5515,-3.6158,-3.6533,-3.6709,-3.6813,-3.6813,-3.6813,0.0,-3.7371,-3.7799,-3.8228,-3.8656,-3.9072,-3.9214,-3.9214,-3.9214,-3.9214,-3.9214,-3.8552,-3.8072,-3.8072,-3.7007,-3.6044,-3.5241,-3.2469,-3.0414,-2.9083,0.0,0.0,0.0,0.0,0.0,0.0,0.0,0.0,0.0,0.0,0.0,0.0,0.0,0.0,0.0,0.0,0.0,0.0,0.0,0.0,0.0,0.0,0.0,0.0,0.0,0.0,0.0,-3.1787,-3.232,-3.2891,-3.3055,-3.3086,0.0,0.0,0.0,0.0,0.0,0.0,0.0,0.0,0.0,-2.9135,-2.9337,-2.9553,-2.9553,-2.9553,-2.9553,-2.9553,-2.9553,-2.9553,-2.9553,-3.113,-3.175,-3.1853,-3.3548,-3.333,-3.1968,-3.3536,-3.4177,-3.4177,0.0,0.0,0.0,0.0,-3.4177,-3.4177,-3.4177,-3.4177,-3.3972,-3.2277,0.0,0.0,0.0,0.0,0.0,0.0,0.0,-3.5566,-3.5566,-3.5761,-3.5943,-3.5943,-3.6189,-3.641,-3.641,-3.6722,-3.6709,-3.5748,-3.5774,-3.5943,-3.5943,-3.5943,0.0,0.0,0.0,-3.702,-3.7332,-3.7657,-3.7851,-3.7851,-3.7851,-3.7851,-3.7851,-3.7267,-3.6903,-3.6903,-3.6059,-3.5566,-3.5566,-3.3249,-3.1816,0.0,0.0,0.0,0.0,0.0,0.0,0.0,0.0,0.0,0.0,0.0,0.0,0.0,0.0,0.0,0.0,0.0,0.0,0.0,0.0,0.0,0.0,0.0,0.0,0.0,0.0,0.0,0.0,0.0,-3.2444,-3.3017,0.0,0.0,0.0,0.0,0.0,0.0,0.0,0.0,0.0,0.0,0.0,0.0,0.0,-3.4945,-3.4945,-3.4945,-3.4945,-3.4945,-3.5012,-3.4963,-3.457,-3.4649,-3.4573,-3.4266,-3.4707,0.0,-3.4451,-3.4843,0.0,0.0,0.0,0.0,0.0,0.0,0.0,0.0,0.0,0.0,0.0,0.0,0.0,0.0,0.0,0.0,0.0,0.0,0.0,0.0,0.0,0.0,-3.5709,-3.5709,-3.5709,-3.5816,-3.6123,-3.5518,-3.4864,-3.4864,-3.5358,-3.5816,0.0,0.0,0.0,0.0,0.0,0.0,-3.6037,-3.5943,-3.5943,-3.5943,-3.5943,-3.5943,-3.5943,-3.5878,-3.5826,-3.5826,-3.528,-3.4825,-3.4747,-3.3878,0.0,0.0,0.0,0.0,0.0,0.0,0.0,0.0,0.0,0.0,0.0,0.0,0.0,0.0,0.0,0.0,0.0,0.0,0.0,0.0,0.0,0.0,0.0,0.0,0.0,0.0,0.0,0.0,0.0,0.0,0.0,0.0,0.0,0.0,0.0,0.0,0.0,0.0,0.0,0.0,0.0,0.0,0.0,0.0,0.0,0.0,0.0,0.0,0.0,0.0,-3.9393,-3.8516,-3.6537,-3.7134,-3.6263,-3.4418,-3.7409,-3.753,-3.5826,-3.7898,0.0,0.0,0.0,0.0,0.0,0.0,0.0,0.0,0.0,0.0,0.0,0.0,0.0,0.0,0.0,0.0,0.0,0.0,0.0,0.0,0.0,0.0,-3.4488,-3.4488,-3.4488,-3.5094,-3.7295,0.0,0.0,0.0,0.0,0.0,0.0,0.0,0.0,0.0,0.0,0.0,-3.6187,-3.5943,-3.5943,-3.5943,-3.5943,-3.5943,-3.5943,-3.5501,-3.5123,-3.5123,-3.467,-3.4125,0.0,0.0,0.0,0.0,0.0,0.0,0.0,0.0,0.0,0.0,0.0,0.0,0.0,0.0,0.0,0.0,0.0,0.0,0.0,0.0,0.0,0.0,0.0,0.0,0.0,0.0,0.0,0.0,0.0,0.0,0.0,0.0,0.0,0.0,0.0,0.0,0.0,0.0,0.0,0.0,0.0,0.0,0.0,0.0,0.0,0.0,0.0,0.0,0.0,0.0,0.0,0.0,0.0,0.0,0.0,0.0,0.0,0.0,-3.7823,-3.8952,0.0,0.0,0.0,0.0,0.0,0.0,0.0,0.0,0.0,0.0,0.0,0.0,0.0,0.0,0.0,0.0,0.0,0.0,0.0,0.0,0.0,0.0,0.0,0.0,0.0,0.0,0.0,0.0,0.0,0.0,0.0,0.0,0.0,0.0,0.0,0.0,0.0,0.0,0.0,0.0,-3.7236,-3.5846,-3.5021,-3.5021,-3.5021,-3.5021,-3.5021,-3.4774,-3.511,-3.6527,-3.4862,0.0,0.0,0.0,0.0,0.0,0.0,0.0,0.0,0.0,0.0,0.0,0.0,0.0,0.0,0.0,0.0,0.0,0.0,0.0,0.0,0.0,0.0,0.0,0.0,0.0,0.0,0.0,0.0,0.0,0.0,0.0,0.0,0.0,0.0,0.0,0.0,0.0,0.0,0.0,0.0,0.0,0.0,0.0,0.0,0.0,0.0,0.0,0.0,0.0,0.0,0.0,0.0,0.0,0.0,0.0,0.0,0.0,0.0,0.0,-3.8185,-4.0014,0.0,0.0,0.0,0.0,0.0,0.0,0.0,0.0,0.0,0.0,0.0,0.0,0.0,0.0,0.0,0.0,0.0,0.0,0.0,0.0,0.0,0.0,0.0,0.0,0.0,0.0,0.0,0.0,0.0,0.0,0.0,0.0,0.0,0.0,0.0,0.0,0.0,0.0,0.0,0.0,-3.8925,-3.6668,-3.5274,-3.5857,-3.5857,-3.5857,-3.5857,-3.5376,-3.6107,-3.8548,-3.5828,0.0,0.0,0.0,0.0,0.0,0.0,0.0,0.0,0.0,0.0,0.0,0.0,0.0,0.0,0.0,0.0,0.0,0.0,0.0,0.0,0.0,0.0,0.0,0.0,0.0,0.0,0.0,0.0,0.0,0.0,0.0,0.0,0.0,0.0,0.0,0.0,0.0,0.0,0.0,0.0,0.0,0.0,0.0,0.0,0.0,0.0,0.0,0.0,0.0,0.0,0.0,0.0,0.0,0.0,0.0,0.0,0.0,0.0,0.0,0.0,0.0,0.0,0.0,0.0,0.0,0.0,0.0,0.0,0.0,0.0,0.0,0.0,0.0,0.0,0.0,0.0,0.0,0.0,0.0,0.0,0.0,0.0,0.0,0.0,0.0,0.0,0.0,0.0,0.0,0.0,0.0,0.0,0.0,0.0,0.0,0.0,0.0,0.0,0.0,0.0,0.0,-4.1711,-3.9425,-3.864,-4.1198,-4.1494,-4.1494,-4.1494,-3.9125,-3.8589,-4.048,0.0,0.0,0.0,0.0,0.0,0.0,0.0,0.0,0.0,0.0,0.0,0.0,0.0,0.0,0.0,0.0,0.0,0.0,0.0,0.0,0.0,0.0,0.0,0.0,0.0,0.0,0.0,0.0,0.0,0.0,0.0,0.0,0.0,0.0,0.0,0.0,0.0,0.0,0.0,0.0,0.0,0.0,0.0,0.0,0.0,0.0,0.0,0.0,0.0,0.0,0.0,0.0,0.0,0.0,0.0,0.0,0.0,0.0,0.0,0.0,0.0,0.0,0.0,0.0,0.0,0.0,0.0,0.0,0.0,0.0,0.0,0.0,0.0,0.0,0.0,0.0,0.0,0.0,0.0,0.0,0.0,0.0,0.0,0.0,0.0,0.0,0.0,0.0,0.0,0.0,0.0,0.0,0.0,0.0,0.0,0.0,0.0,0.0,0.0,0.0,0.0,0.0,-4.4366,-4.2184,-4.1,-4.2086,-4.2184,-4.2184,-4.2184,-4.0723,-4.0751,-4.297,0.0,0.0,0.0,0.0,0.0,0.0,0.0,0.0,0.0,0.0,0.0,0.0,0.0,0.0,0.0,0.0,0.0,0.0,0.0,0.0,0.0,0.0,0.0,0.0,0.0,0.0,0.0,0.0,0.0,0.0,0.0,0.0,0.0,0.0,0.0,0.0,0.0,0.0,0.0,0.0,0.0,0.0,0.0,0.0,0.0,0.0,0.0,0.0,0.0,0.0,0.0,0.0,0.0,0.0,0.0,0.0,0.0,0.0,0.0,0.0,0.0,0.0,0.0,0.0,0.0,0.0,0.0,0.0,0.0,0.0,0.0,0.0,0.0,0.0,0.0,0.0,0.0,0.0,0.0,0.0,0.0,0.0,0.0,0.0,0.0,0.0,0.0,0.0,0.0,0.0,0.0,0.0,0.0,0.0,0.0,0.0,0.0,0.0,0.0,0.0,0.0,0.0,-4.6681,-4.4817,-4.3671,-4.4354,-4.4451,-4.4366,-4.4129,-4.276,-4.2863,-4.4987,0.0,0.0,0.0,0.0,0.0,0.0,0.0,0.0,0.0,0.0,0.0,0.0,0.0,0.0,0.0,0.0,0.0,0.0,0.0,0.0,0.0,0.0,0.0,0.0,0.0,0.0,0.0,0.0,0.0,0.0,0.0,0.0,0.0,0.0,0.0,0.0,0.0,0.0,0.0,0.0,0.0,0.0,0.0,0.0,0.0,0.0,0.0,0.0,0.0,0.0,0.0,0.0,0.0,0.0,0.0,0.0,0.0,0.0,0.0,0.0,0.0,0.0,0.0,0.0,0.0,0.0,0.0,0.0,0.0,0.0,0.0,0.0,0.0,0.0,0.0,0.0,0.0,0.0,0.0,0.0,0.0,0.0,0.0,0.0,0.0,0.0,0.0,0.0,0.0,0.0,0.0,0.0,0.0,0.0,0.0,0.0,0.0,0.0,0.0,0.0,0.0,0.0,-4.8339,-4.7119,-4.7033,-4.9622,-4.9831,-4.9584,-4.8805,-4.6226,-4.5079,0.0,0.0,0.0,0.0,0.0,0.0,0.0,0.0,0.0,0.0,0.0,0.0,0.0,0.0,0.0,0.0,0.0,0.0,0.0,0.0,0.0,0.0,0.0,0.0,0.0,0.0,0.0,0.0,0.0,0.0,0.0,0.0,0.0,0.0,0.0,0.0,0.0,0.0,0.0,0.0,0.0,0.0,0.0,0.0,0.0,0.0,0.0,0.0,0.0,0.0,0.0,0.0,0.0,0.0,0.0,0.0,0.0,0.0,0.0,0.0,0.0,0.0,0.0,0.0,0.0,0.0,0.0,0.0,0.0,0.0,0.0,0.0,0.0,0.0,0.0,0.0,0.0,0.0,0.0,0.0,0.0,0.0,0.0,0.0,0.0,0.0,0.0,0.0,0.0,0.0,0.0,0.0,0.0,0.0,0.0,0.0,0.0,0.0,0.0,0.0,0.0,0.0,0.0,-4.7652,-4.7933,-4.8047,-4.8239,-4.8786,-4.8786,-4.7932,-4.6607,-4.5645,-4.5359,0.0,0.0,0.0,0.0,0.0,0.0,0.0,0.0,0.0,0.0,0.0,0.0,0.0,0.0,0.0,0.0,0.0,0.0,0.0,0.0,0.0,0.0,0.0,0.0,0.0,0.0,0.0,0.0,0.0,0.0,0.0,0.0,0.0,0.0,0.0,0.0,0.0,0.0,0.0,0.0,0.0,0.0,0.0,0.0,0.0,0.0,0.0,0.0,0.0,0.0,0.0,0.0,0.0,0.0,0.0,0.0,0.0,0.0,0.0,0.0,0.0,0.0,0.0,0.0,0.0,0.0,0.0,0.0,0.0,0.0,0.0,0.0,0.0,0.0,0.0,0.0,0.0,0.0,0.0,0.0,0.0,0.0,0.0,0.0,0.0,0.0,0.0,0.0,0.0,0.0,0.0,0.0,0.0,0.0,0.0,0.0,0.0,0.0,0.0,0.0,0.0,0.0,0.0,-4.7742,-4.8045,-4.7514,-4.7932,-4.7913,-4.7077,-4.6527,-4.5749,-4.4506,0.0,0.0,0.0,0.0,0.0,0.0,0.0,0.0,0.0,0.0,0.0,0.0,0.0,0.0,0.0,0.0,0.0,0.0,0.0,0.0,0.0,0.0,0.0,0.0,0.0,0.0,0.0,0.0,0.0,0.0,0.0,0.0,0.0,0.0,0.0,0.0,0.0,0.0,0.0,0.0,0.0,0.0,0.0,0.0,0.0,0.0,0.0,0.0,0.0,0.0,0.0,0.0,0.0,0.0,0.0,0.0,0.0,0.0,0.0,0.0,0.0,0.0,0.0,0.0,0.0,0.0,0.0,0.0,0.0,0.0,0.0,0.0,0.0,0.0,0.0,0.0,0.0,0.0,0.0,0.0,0.0,0.0,0.0,0.0,0.0,0.0,0.0,0.0,0.0,0.0,0.0,0.0,0.0,0.0,0.0,0.0,0.0,0.0,0.0,0.0,0.0,0.0,0.0,-4.6869,-4.7362,-4.7286,-4.7343,-4.7039,-4.6223,-4.6109,-4.5388,-4.3774,-4.2901,0.0,0.0,0.0,0.0,0.0,0.0,0.0,0.0,0.0,0.0,0.0,0.0,0.0,0.0,0.0,0.0,0.0,0.0,0.0,0.0,0.0,0.0,0.0,0.0,0.0,0.0,0.0,0.0,0.0,0.0,0.0,0.0,0.0,0.0,0.0,0.0,0.0,0.0,0.0,0.0,0.0,0.0,0.0,0.0,0.0,0.0,0.0,0.0,0.0,0.0,0.0,0.0,0.0,0.0,0.0,0.0,0.0,0.0,0.0,0.0,0.0,0.0,0.0,0.0,0.0,0.0,0.0,0.0,0.0,0.0,0.0,0.0,0.0,0.0,0.0,0.0,0.0,0.0,0.0,0.0,0.0,0.0,0.0,0.0,0.0,0.0,0.0,0.0,0.0,0.0,0.0,0.0,0.0,0.0,0.0,0.0,0.0,0.0,0.0,0.0,0.0,0.0,-4.6014,-4.628,-4.5548,-4.6147,-4.6185,-4.5264,-4.4705,-4.3907,-4.2901,-4.2047,0.0,0.0,0.0,0.0,0.0,0.0,0.0,0.0,0.0,0.0,0.0,0.0,0.0,0.0,0.0,0.0,0.0,0.0,0.0,0.0,0.0,0.0,0.0,0.0,0.0,0.0,0.0,0.0,0.0,0.0,0.0,0.0,0.0,0.0,0.0,0.0,0.0,0.0,0.0,0.0,0.0,0.0,0.0,0.0,0.0,0.0,0.0,0.0,0.0,0.0,0.0,0.0,0.0,0.0,0.0,0.0,0.0,0.0,0.0,0.0,0.0,0.0,0.0,0.0,0.0,0.0,0.0,0.0,0.0,0.0,0.0,0.0,0.0,0.0,0.0,0.0,0.0,0.0,0.0,0.0,0.0,0.0,0.0,0.0,0.0,0.0,0.0,0.0,0.0,0.0,0.0,0.0,0.0,0.0,0.0,0.0,0.0,0.0,0.0,0.0,0.0,0.0,-4.7499,-4.6942,-4.6471,-4.7772,-4.802,-4.6536,-4.5729,-4.4884,-4.3841,-4.2607,0.0,0.0,0.0,0.0,0.0,0.0,0.0,0.0,0.0,0.0,0.0,0.0,0.0,0.0,0.0,0.0,0.0,0.0,0.0,0.0,0.0,0.0,0.0,0.0,0.0,0.0,0.0,0.0,0.0,0.0,0.0,0.0,0.0,0.0,0.0,0.0,0.0,0.0,0.0,0.0,0.0,0.0,0.0,0.0,0.0,0.0,0.0,0.0,0.0,0.0,0.0,0.0,0.0,0.0,0.0,0.0,0.0,0.0,0.0,0.0,0.0,0.0,0.0,0.0,0.0,0.0,0.0,0.0,0.0,0.0,0.0,0.0,0.0,0.0,0.0,0.0,0.0,0.0,0.0,0.0,0.0,0.0,0.0,0.0,0.0,0.0,0.0,0.0,0.0,0.0,0.0,0.0,0.0,0.0,0.0,0.0,0.0,0.0,0.0,0.0,0.0,0.0,0.0,-4.8676,-4.8676,-5.0389,-5.0669,-4.8634,-4.7404,-4.6502,-4.5579,0.0,0.0,0.0,0.0,0.0,0.0,0.0,0.0,0.0,0.0,0.0,0.0,0.0,0.0,0.0,0.0,0.0,0.0,0.0,0.0,0.0,0.0,0.0,0.0,0.0,0.0,0.0,0.0,0.0,0.0,0.0,0.0,0.0,0.0,0.0,0.0,0.0,0.0,0.0,0.0,0.0,0.0,0.0,0.0,0.0,0.0,0.0,0.0,0.0,0.0,0.0,0.0,0.0,0.0,0.0,0.0,0.0,0.0,0.0,0.0,0.0,0.0,0.0,0.0,0.0,0.0,0.0,0.0,0.0,0.0,0.0,0.0,0.0,0.0,0.0,0.0,0.0,0.0,0.0,0.0,0.0,0.0,0.0,0.0,0.0,0.0,0.0,0.0,0.0,0.0,0.0,0.0,0.0,0.0,0.0,0.0,0.0,0.0,0.0,0.0,0.0,0.0,0.0,0.0,-5.0975,-5.0975,-5.1297,-5.0971,-4.9631,-4.7327,-4.61,-4.6761,0.0,0.0,0.0,0.0,0.0,0.0,0.0,0.0,0.0,0.0,0.0,0.0,0.0,0.0]}],[{"header":{"parameterUnit":"kt","parameterCategory":2,"dx":1,"dy":1,"la1":29.285339999999998,"la2":30.599998999999997,"lo1":-89.70041500000002,"lo2":-87.6738589999976,"nx":112,"ny":82,"refTime":"2022-10-08T00:00:00:Z","depth":0,"parameterNumber":2,"parameterNumberName":"V-component_of_WINDS"},"data":[10.8248,10.8105,0.0,10.6814,10.6564,0.0,10.4031,0.0,10.2843,0.0,0.0,0.0,0.0,0.0,0.0,0.0,0.0,0.0,0.0,9.4755,0.0,0.0,0.0,0.0,0.0,0.0,0.0,0.0,0.0,0.0,0.0,0.0,11.5758,11.7374,11.8908,12.0514,12.2035,12.2035,12.2035,12.2035,12.2035,12.2035,12.2035,12.2035,12.2035,12.2035,12.2035,12.2035,12.2035,12.2035,12.2035,12.2035,12.2035,12.3118,12.4902,12.7506,12.9754,13.1573,13.1573,13.1573,13.1573,13.1573,13.1573,13.1573,13.1573,13.1573,13.1466,13.0895,13.1145,13.143,13.0895,13.1181,13.1573,13.1573,13.1573,13.198,13.3374,13.4249,13.5156,13.6517,13.7336,13.7815,13.7815,13.7815,13.7815,13.7815,13.7815,13.7815,13.7815,13.7815,13.7815,13.7815,13.7815,13.7815,13.7815,13.7815,13.7815,13.7815,13.7815,13.7815,13.7815,13.7815,13.7815,13.7815,13.7815,13.7815,13.7815,13.7815,13.7815,13.7815,13.7815,13.7815,0.0,0.0,10.4673,10.3639,0.0,0.0,0.0,0.0,0.0,0.0,0.0,0.0,0.0,0.0,0.0,0.0,0.0,0.0,0.0,0.0,0.0,0.0,0.0,0.0,0.0,0.0,0.0,0.0,0.0,0.0,0.0,11.4734,11.6375,11.7374,11.9443,12.1049,12.2035,12.2035,12.2035,12.2035,12.2035,12.2035,12.2035,12.2035,12.2035,12.2035,12.2035,12.2035,12.2035,12.2035,12.2035,12.2106,12.2725,12.3938,12.5687,12.8327,13.0253,13.1573,13.1573,13.1573,13.1573,13.1573,13.1573,13.1573,13.1573,13.1573,13.1573,13.1573,13.1573,13.1573,13.1573,13.1573,13.1573,13.1573,13.1863,13.242,13.3463,13.4494,13.556,13.6618,13.7336,13.7815,13.7815,13.7815,13.7815,13.7815,13.7815,13.7815,13.7815,13.7815,13.7815,13.7815,13.7815,13.7815,13.7815,13.7815,13.7815,13.7815,13.7815,13.7815,13.7815,13.7815,13.7815,13.7815,13.7815,13.7815,13.7815,13.7815,13.7815,13.7815,13.7815,13.7815,0.0,0.0,0.0,9.879,0.0,0.0,0.0,0.0,9.8294,0.0,0.0,0.0,0.0,0.0,0.0,0.0,0.0,0.0,0.0,0.0,0.0,0.0,0.0,0.0,0.0,0.0,0.0,0.0,0.0,0.0,11.2808,11.5733,11.7445,11.7481,12.0478,12.2035,12.2035,12.2035,12.2035,12.2035,12.2035,12.2035,12.2035,12.2035,12.2035,12.2035,12.2035,12.2035,12.2035,12.2035,12.2035,12.2213,12.3938,12.5544,12.7149,12.8755,13.0289,13.1573,13.1573,13.1573,13.1573,13.1573,13.1573,13.1573,13.1573,13.1573,13.1573,13.1573,13.1573,13.1573,13.1573,13.1573,13.1573,13.1573,13.242,13.3419,13.4453,13.5524,13.6549,13.7579,13.7789,13.7815,13.7815,13.7815,13.7815,13.7815,13.7815,13.7815,13.7815,13.7815,13.7815,13.7815,13.7815,13.7815,13.7815,13.7815,13.7815,13.7815,13.7815,13.7815,13.7815,13.7815,13.7815,13.7815,13.7815,13.7815,13.7815,13.7815,13.7815,13.7815,13.7815,13.7815,9.9821,0.0,0.0,0.0,0.0,0.0,0.0,0.0,0.0,0.0,0.0,0.0,0.0,0.0,0.0,0.0,0.0,9.9908,0.0,0.0,0.0,0.0,0.0,0.0,0.0,0.0,0.0,0.0,0.0,11.3236,11.4413,11.6339,11.7945,11.9051,12.1049,12.2035,12.2035,12.2035,12.2035,12.2035,12.2035,12.2035,12.2035,12.2035,12.2035,12.2035,12.2035,12.2035,12.2035,12.2035,12.2035,12.2213,12.3938,12.5544,12.7292,12.9968,13.1216,13.1573,13.1573,13.1573,13.1573,13.1573,13.1573,13.1573,13.1573,13.1573,13.1573,13.1573,13.1573,13.1573,13.1573,13.1573,13.1573,13.1573,13.242,13.323,13.3508,13.5006,13.6352,13.6649,13.7308,13.7815,13.7815,13.7815,13.7815,13.7815,13.7815,13.7815,13.7815,13.7815,13.7815,13.7815,13.7815,13.7815,13.7815,13.7815,13.7815,13.7815,13.7815,13.7815,13.7815,13.7815,13.7815,13.7815,13.7815,13.7815,13.7815,13.7815,13.7815,13.7815,13.7815,13.7815,0.0,0.0,0.0,0.0,0.0,0.0,9.7747,0.0,9.7336,0.0,0.0,0.0,0.0,0.0,0.0,0.0,10.1283,0.0,0.0,0.0,0.0,0.0,0.0,0.0,0.0,0.0,0.0,0.0,11.3298,11.3837,11.5019,11.6554,11.8123,11.9657,12.1263,12.2035,12.2035,12.2035,12.2035,12.2035,12.2035,12.2035,12.2035,12.2035,12.2035,12.2035,12.2035,12.2035,12.2035,12.2035,12.2035,12.2284,12.4652,12.6543,12.822,13.0681,13.1573,13.1573,13.1573,13.1573,13.1573,13.1573,13.1573,13.1573,13.1573,13.1573,13.1573,13.1573,13.1573,13.1573,13.1573,13.1573,13.1573,13.1573,13.2733,13.3821,13.3821,13.5452,13.6902,13.6902,13.743,13.7815,13.7815,13.7815,13.7815,13.7815,13.7815,13.7815,13.7815,13.7815,13.7815,13.7815,13.7815,13.7815,13.7815,13.7815,13.7815,13.7815,13.7815,13.7815,13.7815,13.7815,13.7815,13.7815,13.7815,13.7815,13.7815,13.7815,13.7815,13.7815,13.7815,13.7815,0.0,0.0,0.0,0.0,9.6394,0.0,0.0,0.0,9.677,9.677,0.0,0.0,0.0,0.0,0.0,0.0,0.0,0.0,0.0,0.0,0.0,0.0,0.0,0.0,0.0,11.5169,11.5238,11.4328,11.4171,11.4483,11.5461,11.6707,11.8195,11.9943,12.137,12.2035,12.2035,12.2035,12.2035,12.2035,12.2035,12.2035,12.2035,12.2035,12.2035,12.2035,12.2035,12.2035,12.2035,12.2035,12.2177,12.269,12.5758,12.7899,12.9468,13.1002,13.1573,13.1573,13.1573,13.1573,13.1573,13.1573,13.1573,13.1573,13.1573,13.1573,13.1573,13.1573,13.1573,13.1573,13.1573,13.1573,13.1573,13.1573,13.3129,13.4574,13.4693,13.6253,13.7671,13.7789,13.7815,13.7815,13.7815,13.7815,13.7815,13.7815,13.7815,13.7815,13.7815,13.7815,13.7815,13.7815,13.7815,13.7815,13.7815,13.7815,13.7815,13.7815,13.7815,13.7815,13.7815,13.7815,13.7815,13.7815,13.7815,13.7815,13.7815,13.7815,13.7815,13.7815,13.7815,13.7815,0.0,0.0,0.0,0.0,0.0,9.811,0.0,0.0,0.0,0.0,0.0,0.0,0.0,0.0,0.0,0.0,0.0,0.0,0.0,0.0,0.0,0.0,0.0,0.0,11.5349,11.6124,11.6189,11.5273,11.4481,11.5241,11.7921,11.7627,11.873,12.1548,12.1892,12.2035,12.2035,12.2035,12.2035,12.2035,12.2035,12.2035,12.2035,12.2035,12.2035,12.2035,12.2035,12.2035,12.2035,12.2035,12.2868,12.4295,12.6222,12.7899,12.9468,13.1002,13.1573,13.1573,13.1573,13.1573,13.1573,13.1573,13.1573,13.1573,13.1573,13.1573,13.1573,13.1573,13.1573,13.1573,13.1573,13.1573,13.1573,13.1573,13.2578,13.3648,13.4534,13.5667,13.681,13.7671,13.7815,13.7815,13.7815,13.7815,13.7815,13.7815,13.7815,13.7815,13.7815,13.7815,13.7815,13.7815,13.7815,13.7815,13.7815,13.7815,13.7815,13.7815,13.7815,13.7815,13.7815,13.7815,13.7815,13.7815,13.7815,13.7815,13.7815,13.7815,13.7815,13.7815,13.7815,13.7815,9.7499,9.7782,0.0,9.8146,0.0,0.0,0.0,10.0162,10.1232,10.1085,10.2547,10.3994,10.4743,10.5683,10.6537,10.7204,10.7956,10.8744,10.9607,0.0,0.0,0.0,0.0,0.0,11.684,11.7269,11.7314,11.6859,11.6003,11.6454,11.8655,11.8322,11.9331,12.2012,12.2035,12.2035,12.2035,12.2035,12.2035,12.2035,12.2035,12.2035,12.2035,12.2035,12.2035,12.2035,12.2035,12.2035,12.2035,12.2035,12.3546,12.5865,12.665,12.8362,13.0503,13.1288,13.1573,13.1573,13.1573,13.1573,13.1573,13.1573,13.1573,13.1573,13.1573,13.1573,13.1573,13.1573,13.1573,13.1573,13.1573,13.1573,13.1573,13.1573,13.242,13.332,13.3821,13.4735,13.5809,13.6841,13.6618,13.6421,13.6932,13.7029,13.7213,13.7725,13.7815,13.7815,13.7815,13.7815,13.7815,13.7815,13.7815,13.7815,13.7815,13.7815,13.7815,13.7815,13.7815,13.7815,13.7815,13.7815,13.7815,13.7815,13.7815,13.7815,13.7815,13.7815,13.7815,13.7815,13.7815,13.8264,9.8426,9.879,9.8972,9.9003,9.9189,0.0,9.9734,10.102,10.218,0.0,10.3869,10.5518,10.6674,10.7079,10.7537,10.8607,10.9054,10.9958,11.1955,11.3401,11.4723,0.0,0.0,0.0,11.8037,11.8186,11.8186,11.8186,11.748,11.7752,11.9254,11.8999,11.985,12.2323,12.218,12.2035,12.2035,12.2035,12.2035,12.2035,12.2035,12.2035,12.2035,12.2035,12.2035,12.2035,12.2035,12.2035,12.2035,12.2035,12.3961,12.6971,12.6971,12.8826,13.1573,13.1573,13.1573,13.159,13.1812,13.1879,13.1879,13.1879,13.1879,13.1863,13.1642,13.1573,13.1573,13.1573,13.1573,13.1573,13.1573,13.1573,13.1573,13.1573,13.2259,13.2933,13.3129,13.3821,13.4617,13.5488,13.4968,13.4735,13.5772,13.6117,13.6549,13.7402,13.7698,13.7815,13.7815,13.7815,13.7815,13.7815,13.7815,13.7815,13.7815,13.7815,13.7815,13.7815,13.7815,13.7815,13.7815,13.7815,13.7815,13.7815,13.7815,13.7815,13.7815,13.7815,13.7815,13.7815,13.8152,13.9049,9.8816,9.8929,9.9003,9.9245,9.9289,0.0,10.1068,10.2732,10.4339,0.0,10.7477,10.8736,10.8893,10.8942,10.899,10.9147,11.0368,11.2372,11.5597,11.6008,11.6536,11.8048,11.8061,11.7962,11.8149,11.8186,11.8186,11.8186,11.8103,11.9021,12.1231,11.9703,12.0196,12.3365,12.2583,12.2035,12.2035,12.2035,12.2035,12.2035,12.2035,12.2035,12.2035,12.2035,12.2035,12.2035,12.2035,12.2035,12.2035,12.2035,12.3961,12.6971,12.6971,12.8826,13.1573,13.1573,13.1573,13.1745,13.2638,13.299,13.299,13.299,13.299,13.2792,13.1879,13.1573,13.1573,13.1573,13.1573,13.1573,13.1573,13.1573,13.1573,13.1573,13.1693,13.1995,13.298,13.323,13.3365,13.3463,13.3374,13.3684,13.4733,13.5632,13.6319,13.6421,13.7213,13.7815,13.7815,13.7815,13.7815,13.7815,13.7815,13.7815,13.7815,13.7815,13.7815,13.7815,13.7815,13.7815,13.7815,13.7815,13.7815,13.7815,13.7815,13.7815,13.7815,13.7815,13.7815,13.7853,13.9348,14.0171,9.9095,9.9232,9.9332,9.9416,0.0,0.0,10.1985,10.4186,10.625,0.0,10.8419,10.9664,10.9492,11.0391,11.1144,11.0971,11.3208,11.543,11.6693,11.7473,11.8098,11.8527,11.8365,11.8186,11.8186,11.8186,11.8186,11.8186,11.8186,11.8594,11.9568,12.0189,12.1716,12.4448,12.3524,12.3016,12.3016,12.2383,12.2035,12.2035,12.2035,12.2035,12.2035,12.2035,12.2035,12.2035,12.2035,12.2035,12.2132,12.2733,12.453,12.6971,12.6971,12.8826,13.1573,13.1573,13.198,13.2481,13.2272,13.2638,13.3139,13.3139,13.2781,13.2308,13.2433,13.2096,13.1573,13.1573,13.1573,13.1573,13.1573,13.1573,13.1573,13.1573,13.1573,13.1745,13.2196,13.2259,13.2259,13.2259,13.2259,13.2542,13.364,13.4166,13.4852,13.6083,13.6649,13.7155,13.7725,13.7815,13.7815,13.7815,13.7815,13.7815,13.7815,13.7815,13.7815,13.7815,13.7815,13.7815,13.7815,13.7815,13.7815,13.7815,13.7815,13.7815,13.7815,13.7815,13.8339,13.9311,14.1031,14.2302,9.9299,0.0,0.0,0.0,0.0,0.0,10.3608,10.5734,10.7554,10.7855,10.9025,11.0098,11.0398,11.1608,11.2793,11.3513,11.6127,11.8032,11.787,11.8634,11.9148,11.8755,11.8467,11.8251,11.8171,11.8186,11.8186,0.0,11.8186,11.8186,11.8186,12.0261,12.248,12.478,12.434,12.391,12.3652,12.288,12.2489,12.2489,12.2192,12.2228,12.2489,12.2228,12.2192,12.2489,12.2489,12.2686,12.298,12.3437,12.5114,12.7288,12.7,12.8826,13.1573,13.1573,13.2259,13.3083,13.2626,13.3139,13.3998,13.3998,13.3508,13.299,13.3419,13.2839,13.1995,13.1995,13.1812,13.1573,13.1573,13.1573,13.1573,13.1573,13.1573,13.1573,13.1573,13.1573,13.1573,13.1573,13.1573,13.1863,13.259,13.2944,13.3778,13.556,13.6083,13.6612,13.7698,13.7815,13.7815,13.7815,13.7815,13.7815,13.7815,13.7815,13.7815,13.7815,13.7815,13.7815,13.7815,13.7815,13.7815,13.7815,13.7815,13.7815,13.7815,13.8301,13.9386,14.1068,14.2302,14.3723,0.0,0.0,0.0,10.1859,10.2393,10.3304,10.6607,10.7405,10.7974,10.9607,10.9986,11.0518,11.215,11.2492,11.3593,11.6744,11.8719,11.9857,11.9857,11.9665,11.9445,11.9197,11.8808,11.8448,11.8216,11.8186,11.8186,11.8186,11.8186,11.8186,11.8186,11.9831,12.1732,12.3992,12.4778,12.4673,12.3652,12.3609,12.3567,12.3567,12.2583,12.2594,12.3524,12.2536,12.264,12.3567,12.3567,12.412,12.5014,12.4033,12.5455,12.8136,12.7288,12.8826,13.1573,13.1573,13.2259,13.332,13.429,13.5269,13.615,13.615,13.615,13.5911,13.493,13.395,13.3129,13.3129,13.2371,13.1573,13.1573,13.1573,13.1573,13.1573,13.1573,13.1573,13.1573,13.1573,13.1573,13.1573,13.1573,13.1625,13.1677,13.2481,13.3508,13.4614,13.5632,13.6612,13.7698,13.7815,13.7815,13.7815,13.7815,13.7815,13.7815,13.7815,13.7815,13.7815,13.7815,13.7815,13.7815,13.7815,13.7815,13.7815,13.7815,13.7815,13.7815,13.946,14.1143,14.2825,14.2835,14.3723,9.9704,9.9764,10.0222,10.1975,10.3304,10.4709,10.6987,10.8354,10.9341,10.991,11.0898,11.1885,11.2454,11.4314,11.6479,11.8719,11.9554,11.9933,11.9933,11.9706,11.9492,11.943,11.8901,11.8555,11.8467,11.8278,11.8186,11.8186,11.8186,0.0,11.8186,11.9817,12.1531,12.3298,12.4696,12.5467,12.5585,12.4244,12.3992,12.4635,12.3609,12.3616,12.4635,12.3609,12.3658,12.4635,12.391,12.4559,12.6062,12.5688,12.7032,12.9305,12.8973,13.0847,13.3648,13.3648,13.4294,13.5157,13.485,13.5416,13.6286,13.6286,13.5772,13.5305,13.5632,13.4497,13.3139,13.3139,13.242,13.1573,13.1573,13.1573,13.1573,13.1573,13.1573,13.1573,13.1573,13.1573,13.1573,13.1573,13.1573,13.1573,13.1573,13.1914,13.2481,13.3508,13.4574,13.5596,13.6649,13.7402,13.7815,13.7815,13.7815,13.7815,13.7815,13.7815,13.7815,13.7815,13.7815,13.7815,13.7815,13.7815,13.7815,13.7815,13.7815,13.8937,14.118,14.1741,14.2863,14.4433,14.4433,14.5293,9.9847,10.0343,10.1216,10.2925,10.4633,10.6304,10.8012,10.9227,11.0214,11.0784,11.1809,11.291,11.4049,11.6479,11.8681,11.9744,11.9933,11.9933,11.9933,11.9803,11.9646,11.9559,11.9168,11.882,11.8602,11.841,11.8278,11.8171,11.8186,11.8186,11.8186,11.9196,12.0803,12.2972,12.4094,12.5466,12.7096,12.5518,12.4978,12.5657,12.4637,12.4675,12.5622,12.4637,12.4713,12.5622,12.4977,12.5622,12.7067,12.6701,12.8077,13.0373,13.0006,13.1836,13.4733,13.4733,13.5379,13.615,13.5488,13.5948,13.6841,13.6841,13.6352,13.5948,13.6618,13.5632,13.4207,13.3821,13.2944,13.2045,13.1693,13.1573,13.1573,13.1573,13.1573,13.1573,13.1573,13.1573,13.1573,13.1573,13.1573,13.1573,13.1573,13.1573,13.193,13.299,13.3691,13.4693,13.6083,13.6841,13.743,13.7789,13.7815,13.7815,13.7815,13.7815,13.7815,13.7815,13.7815,13.7815,13.7815,13.8413,13.8713,13.8713,13.9311,14.0993,14.3723,14.3723,14.4545,14.6116,14.6116,14.6714,9.9847,10.114,10.2849,10.4557,10.6266,10.7936,10.9645,11.0024,11.0518,11.2188,11.2644,11.3669,11.6934,11.8832,11.9933,11.9933,11.9933,11.9933,11.9933,11.9933,11.9852,11.9618,11.9559,11.9298,11.8678,11.8602,11.8466,11.8201,11.8171,11.8186,11.8186,11.8186,11.9682,12.2948,12.3023,12.4692,12.8057,12.7133,12.6633,12.6603,12.5657,12.5725,12.6603,12.5657,12.5725,12.6633,12.6633,12.719,12.8007,12.7039,12.8494,13.126,13.0372,13.1952,13.4779,13.4852,13.5488,13.6352,13.6352,13.6999,13.7815,13.7815,13.7815,13.7815,13.7815,13.7125,13.605,13.5044,13.4035,13.2897,13.193,13.1677,13.1573,13.1573,13.1573,13.1573,13.1573,13.1573,13.1573,13.1573,13.1573,13.1573,13.1573,13.1573,13.193,13.2897,13.3129,13.3907,13.6059,13.6298,13.6766,13.7959,13.805,13.7986,13.8077,13.8077,13.8077,13.8077,13.8077,13.8077,13.8077,13.961,14.047,14.047,14.2227,14.3872,14.5368,14.5368,14.6153,14.7723,14.7723,14.7723,9.9847,10.114,10.2849,10.4557,10.6266,10.7936,10.9645,11.0024,11.0518,11.2188,11.3555,11.5415,11.8681,11.963,11.9933,11.9933,11.9933,11.9933,11.9933,11.9933,11.9933,11.9852,11.965,11.9479,11.9306,11.8861,11.8572,11.8485,11.8299,11.8186,11.8186,11.8186,11.9682,12.2948,12.3023,12.4692,12.8057,12.7832,12.7691,12.7691,12.667,12.6701,12.7665,12.664,12.6768,12.7691,12.7691,12.7832,12.8094,12.7806,12.8885,13.0799,13.1761,13.3425,13.5436,13.6619,13.7184,13.743,13.743,13.7579,13.7815,13.7815,13.7815,13.7815,13.7815,13.7125,13.622,13.5948,13.4537,13.3083,13.2839,13.216,13.1573,13.1573,13.1573,13.1573,13.1573,13.1573,13.1573,13.1573,13.1573,13.1573,13.1573,13.1573,13.1693,13.198,13.2638,13.4076,13.6658,13.6921,13.8065,14.1267,14.082,14.0623,14.1499,14.1592,14.1592,14.1592,14.1592,14.1592,14.1592,14.2003,14.2227,14.2227,14.5031,14.6714,14.7088,14.7088,14.7312,14.7723,14.7723,14.7723,9.9887,10.171,10.3798,10.4747,10.6797,10.8847,10.9797,11.0024,11.0708,11.3138,11.4428,11.6061,11.9326,11.9933,11.9933,11.9933,11.9933,11.9933,11.9933,11.9933,11.9933,11.9933,11.9807,11.9654,11.9559,11.9235,11.8888,11.8602,11.8429,11.832,11.8171,11.8186,11.9383,12.1925,12.271,12.4318,12.6973,12.772,12.8094,12.8094,12.7521,12.7548,12.8094,12.7484,12.7548,12.8094,12.8094,12.8094,12.8094,12.8094,12.8991,13.0599,13.2319,13.4002,13.5684,13.7217,13.7815,13.7815,13.7815,13.7815,13.7815,13.7815,13.7815,13.7815,13.7815,13.743,13.6841,13.6421,13.5452,13.4294,13.3374,13.2733,13.216,13.1693,13.1573,13.1573,13.1573,13.1573,13.1573,13.1573,13.1573,13.1787,13.2501,13.2608,13.2857,13.3535,13.4175,13.5259,13.7259,13.7419,13.8591,14.1782,14.1525,14.1591,14.278,14.29,14.29,14.29,14.29,14.29,14.29,14.3536,14.391,14.391,14.6415,14.7723,14.7723,14.7723,14.7723,14.7723,14.7723,14.7723,9.9926,10.2052,10.4405,10.4861,10.7519,11.0024,11.0024,11.0024,11.0974,11.439,11.5074,11.6023,11.9022,11.9782,11.9933,11.9933,11.9933,11.9933,11.9933,11.9933,11.9933,11.9933,11.9933,11.9852,11.9628,11.9565,11.9306,11.877,11.8636,11.8466,11.8229,11.8194,11.8971,12.0677,12.2224,12.3869,12.5552,12.7234,12.8094,12.8094,12.8094,12.8094,12.8094,12.8094,12.8094,12.8094,12.8094,12.8094,12.8094,12.8094,12.8879,13.03,13.2207,13.3852,13.5385,13.7142,13.7815,13.7815,13.7815,13.7815,13.7815,13.7815,13.7815,13.7815,13.7815,13.7815,13.7606,13.6712,13.6389,13.5807,13.3864,13.3275,13.2886,13.1863,13.1693,13.1797,13.1625,13.1573,13.1573,13.1573,13.1752,13.2322,13.3714,13.4106,13.4713,13.6068,13.6247,13.6796,13.8171,13.8255,13.917,14.1707,14.1848,14.2259,14.3415,14.3536,14.3536,14.3536,14.3536,14.3536,14.3536,14.4807,14.5555,14.5555,14.7013,14.7723,14.7723,14.7723,14.7723,14.7723,14.7723,14.7723,9.9926,10.0343,10.1482,10.4254,10.7519,11.0024,11.0024,11.0024,11.0974,11.439,11.5074,11.5643,11.7504,11.8984,11.9933,11.9933,11.9933,11.9933,11.9933,11.9933,11.9933,11.9933,11.9933,11.9933,11.9893,11.9692,11.9492,11.9392,11.8875,11.8534,11.8502,11.8299,11.8971,12.0677,12.2224,12.3869,12.5552,12.7234,12.8094,12.8094,12.8094,12.8094,12.8094,12.8094,12.8094,12.8094,12.8094,12.8094,12.8094,12.8094,12.8244,12.8805,13.1796,13.3142,13.3777,13.6731,13.7815,13.7815,13.7815,13.7815,13.7815,13.7815,13.7815,13.7815,13.7815,13.7815,13.7789,13.7606,13.6902,13.5982,13.4772,13.3778,13.2886,13.1863,13.2259,13.2638,13.1797,13.1573,13.1573,13.1573,13.2643,13.3642,13.3892,13.4998,13.5961,13.6211,13.6247,13.7446,14.0746,14.0458,14.1644,14.6122,14.5702,14.5599,14.6807,14.6901,14.6901,14.6901,14.6901,14.6901,14.6901,14.7162,14.7312,14.7312,14.7574,14.7723,14.7723,14.7723,14.7723,14.7723,14.7723,14.7723,9.9926,9.9926,10.0723,10.4102,10.7519,11.0024,11.0024,11.0024,11.0746,11.3251,11.3745,11.4504,11.6972,11.8073,11.8908,11.9782,11.9933,11.9933,11.9933,11.9933,11.9933,11.9933,11.9933,11.9933,11.9933,11.9809,11.9699,11.9559,11.9263,11.9014,11.8909,11.8575,11.8783,11.9571,12.1861,12.3458,12.4243,12.6823,12.8094,12.8094,12.8094,12.8094,12.8094,12.8094,12.8094,12.8094,12.8094,12.8094,12.8094,12.8094,12.8094,12.8319,13.0711,13.217,13.3254,13.5721,13.7105,13.7815,13.7815,13.7815,13.7815,13.7815,13.7815,13.7815,13.7815,13.7815,13.7815,13.7815,13.7458,13.6841,13.5809,13.512,13.4376,13.2792,13.2792,13.2886,13.1812,13.1573,13.1823,13.2643,13.3909,13.5095,13.5872,13.7799,13.9498,14.0368,14.0513,14.1202,14.2968,14.277,14.3618,14.6516,14.6316,14.6454,14.7629,14.7723,14.7723,14.7723,14.7723,14.7723,14.7723,14.7723,14.7723,14.7723,14.7723,14.7723,14.7723,14.7723,14.7723,14.7723,14.7723,14.7723,9.9926,10.0191,10.1178,10.4216,10.7253,10.9569,10.9948,11.0024,11.0404,11.1733,11.2606,11.3745,11.5947,11.7238,11.8263,11.925,11.9706,11.9933,11.9933,11.9933,11.9933,11.9933,11.9933,11.9933,11.9933,11.9933,11.9852,11.9642,11.957,11.9459,11.9233,11.8885,11.8631,11.8586,12.1557,12.3126,12.3023,12.6412,12.8094,12.8094,12.8094,12.8094,12.8094,12.8094,12.8094,12.8094,12.8094,12.8094,12.8094,12.8094,12.8094,12.8244,12.9814,13.1459,13.3153,13.4862,13.6469,13.7815,13.7815,13.7815,13.7815,13.7815,13.7815,13.7815,13.7815,13.7815,13.7815,13.7815,13.7815,13.7579,13.6517,13.6286,13.5772,13.395,13.3508,13.322,13.216,13.193,13.2497,13.4256,13.5655,13.7049,13.8602,14.0856,14.2874,14.4231,14.4414,14.4498,14.4746,14.475,14.5148,14.6248,14.635,14.6758,14.7629,14.7723,14.7723,14.7723,14.7723,14.7723,14.7723,14.7723,14.7723,14.7723,14.7723,14.7723,14.7723,14.7723,14.7723,14.7723,14.7723,14.7723,9.9926,10.1027,10.2659,10.4519,10.6342,10.8126,10.9683,11.0024,11.0062,11.0214,11.272,11.4466,11.3213,11.6668,11.925,11.7845,11.8908,11.9933,11.9933,11.9933,11.9933,11.9933,11.9933,11.9933,11.9933,11.9933,11.9933,11.9895,11.9695,11.951,11.9492,11.9253,11.895,11.8586,12.1828,12.3402,12.3047,12.6412,12.8094,12.8094,12.8094,12.8094,12.8094,12.8094,12.8094,12.8094,12.8094,12.8094,12.8094,12.8094,12.8094,12.8244,12.9814,13.1459,13.3153,13.4862,13.6469,13.7815,13.7815,13.7815,13.7815,13.7815,13.7815,13.7815,13.7815,13.7815,13.7815,13.7815,13.7815,13.7579,13.6517,13.6286,13.5982,13.485,13.4574,13.429,13.323,13.299,13.3792,13.641,13.82,13.9707,14.1282,14.3052,14.4231,14.4414,14.4414,14.4787,14.5713,14.5858,14.6282,14.7438,14.7571,14.76,14.7723,14.7723,14.7723,14.7723,14.7723,14.7723,14.7723,14.7723,14.7723,14.7723,14.7723,14.7723,14.7723,14.7723,14.7723,14.7723,14.7723,14.7723,9.9887,10.0381,10.1558,10.4292,10.5469,10.6683,10.9417,11.0024,11.0024,11.0024,11.1087,11.215,11.2492,11.4163,11.5909,11.72,11.7959,11.8756,11.9782,11.9933,11.9933,11.9933,11.9933,11.9933,11.9933,11.9933,11.9933,11.9933,11.985,11.9763,11.9763,11.9542,11.9327,11.9158,12.2052,12.356,12.3402,12.6526,12.8094,12.8094,12.8094,12.8094,12.8094,12.8094,12.8094,12.8094,12.8094,12.8094,12.8094,12.8094,12.8094,12.8169,12.8767,13.0637,13.3041,13.374,13.5609,13.7815,13.7815,13.7815,13.7815,13.7815,13.7815,13.7815,13.7815,13.7815,13.7815,13.7815,13.7815,13.7725,13.7308,13.7184,13.6969,13.5913,13.5632,13.5379,13.4331,13.4849,13.6185,13.825,14.046,14.2536,14.4086,14.5486,14.639,14.639,14.639,14.6562,14.6991,14.7023,14.7183,14.7695,14.7723,14.7723,14.7723,14.7723,14.7723,14.7723,14.7723,14.7723,14.7723,14.7723,14.7723,14.7723,14.7723,14.7723,14.7723,14.7723,14.7723,14.7723,14.7723,14.7723,9.9847,10.0267,10.1368,10.4254,10.5355,10.6456,10.9379,11.0024,11.0024,11.0024,11.0442,11.0974,11.1657,11.2644,11.4049,11.6327,11.7086,11.7997,11.9706,11.9933,11.9933,11.9933,11.9933,11.9933,11.9933,11.9933,11.9933,11.9933,11.9933,11.9933,11.9933,11.9758,11.9633,11.9554,12.2374,12.3809,12.3614,12.6701,12.8174,12.8094,12.8094,12.8094,12.8094,12.8094,12.8094,12.8094,12.8094,12.8094,12.8094,12.8094,12.8094,12.8094,12.8094,12.9777,13.2282,13.2768,13.4749,13.718,13.7666,13.7815,13.7815,13.7815,13.7815,13.7815,13.7815,13.7815,13.7815,13.7815,13.7815,13.7815,13.7815,13.7815,13.7551,13.6517,13.6286,13.605,13.5342,13.6482,13.8252,14.0173,14.2481,14.4624,14.619,14.7183,14.7723,14.7723,14.7723,14.7723,14.7723,14.7723,14.7723,14.7723,14.7723,14.7723,14.7723,14.7723,14.7723,14.7723,14.7723,14.7723,14.7723,14.7723,14.7723,14.7723,14.7723,14.7723,14.7723,14.7723,14.7723,14.7723,14.7723,14.7723,9.9847,10.114,10.2811,10.4557,10.6228,10.7936,10.9645,11.0024,11.0024,11.0024,11.1353,11.2037,11.0366,11.2796,11.5074,11.5112,11.6403,11.7997,11.9706,11.9933,11.9933,11.9933,11.9933,11.9933,11.9933,11.9933,11.9933,11.9933,11.9933,11.9933,11.9933,11.9933,11.9807,11.9559,12.2842,12.4298,12.3632,12.6869,12.8345,12.8094,12.8094,12.8094,12.8094,12.8094,12.8094,12.8094,12.8094,12.8094,12.8094,12.8094,12.8094,12.8094,12.8094,12.9066,13.0674,13.2356,13.4039,13.5759,13.7292,13.7815,13.7815,13.7815,13.7815,13.7815,13.7815,13.7815,13.7815,13.7815,13.7815,13.7815,13.7815,13.7815,13.7551,13.6517,13.6286,13.6253,13.6253,13.7588,13.9594,14.2321,14.4106,14.5714,14.7424,14.7723,14.7723,14.7723,14.7723,14.7723,14.7723,14.7723,14.7723,14.7723,14.7723,14.7723,14.7723,14.7723,14.7723,14.7723,14.7723,14.7723,14.7723,14.7723,14.7723,14.7723,14.7723,14.7723,14.7723,14.7723,14.7723,14.7723,14.7723,14.7723,9.9591,10.018,10.1102,10.2811,10.4519,10.6228,10.7898,10.9189,11.0024,11.0024,11.0442,11.067,11.01,11.0898,11.1999,11.3138,11.4732,11.6365,11.7959,11.9212,11.9933,11.9933,11.9933,11.9933,11.9933,11.9933,11.9933,11.9933,11.9933,11.9933,11.9933,11.9933,11.9894,11.9809,12.2934,12.4494,12.4271,12.71,12.8468,12.8366,12.816,12.8094,12.8094,12.8094,12.8094,12.8094,12.8094,12.8094,12.8094,12.8094,12.8094,12.8094,12.8094,12.9029,13.0637,13.2356,13.4039,13.5721,13.7292,13.7815,13.7815,13.7815,13.7815,13.7815,13.7815,13.7815,13.7815,13.7815,13.7815,13.7815,13.7815,13.7815,13.7725,13.743,13.7336,13.7336,13.7336,13.9545,14.1833,14.2695,14.5069,14.7125,14.7649,14.7723,14.7723,14.7723,14.7723,14.7723,14.7723,14.7723,14.7723,14.7723,14.7723,14.7723,14.7723,14.7723,14.7723,14.7723,14.7723,14.7723,14.7723,14.7723,14.7723,14.7723,14.7723,14.7723,14.7723,14.7723,14.7723,14.7723,14.7723,14.7723,9.9491,9.9712,10.0305,10.2014,10.3229,10.4443,10.6152,10.786,10.9227,10.9873,11.0024,11.0024,11.0024,11.0024,11.0594,11.2264,11.3973,11.5605,11.72,11.887,11.9933,11.9933,11.9933,11.9933,11.9933,11.9933,11.9933,11.9933,11.9933,11.9933,11.9933,11.9933,11.9933,11.9933,12.3063,12.4684,12.4592,12.7332,12.869,12.869,12.8288,12.8094,12.8094,12.8094,12.8094,12.8094,12.8094,12.8094,12.8094,12.8094,12.8094,12.8094,12.8094,12.8692,12.9814,13.2132,13.3628,13.4862,13.7067,13.7815,13.7815,13.7815,13.7815,13.7815,13.7815,13.7815,13.7815,13.7815,13.7815,13.7815,13.7815,13.7815,13.7815,13.7815,13.7815,13.7815,13.7815,14.047,14.29,14.29,14.5517,14.7723,14.7723,14.7723,14.7723,14.7723,14.7723,14.7723,14.7723,14.7723,14.7723,14.7723,14.7723,14.7723,14.7723,14.7723,14.7723,14.7723,14.7723,14.7723,14.7723,14.7723,14.7723,14.7723,14.7723,14.7723,14.7723,14.7723,14.7723,14.7723,14.7723,14.7723,9.948,9.9707,10.0267,10.1862,10.2355,10.2887,10.4595,10.6266,10.7974,10.9683,11.0024,11.0024,11.0024,11.0024,11.0518,11.2112,11.3897,11.5567,11.7048,11.8794,11.9933,11.9933,11.9933,11.9933,11.9933,11.9933,11.9933,11.9933,11.9933,11.9933,11.9933,11.9933,11.9933,11.9933,12.3236,12.4858,12.4648,12.7575,12.9084,12.9084,12.8424,12.8106,12.8094,12.8094,12.8094,12.8094,12.8094,12.8094,12.8094,12.8094,12.8094,12.8094,12.8094,12.8094,12.8468,13.1609,13.288,13.3378,13.6544,13.7703,13.7815,13.7815,13.7815,13.7815,13.7815,13.7815,13.7815,13.7815,13.7815,13.7815,13.7815,13.7815,13.7815,13.7815,13.7815,13.7815,13.7815,14.047,14.29,14.29,14.5517,14.7723,14.7723,14.7723,14.7723,14.7723,14.7723,14.7723,14.7723,14.7723,14.7723,14.7723,14.7723,14.7723,14.7723,14.7723,14.7723,14.7723,14.7723,14.7723,14.7723,14.7723,14.7723,14.7723,14.7723,14.7723,14.7723,14.7723,14.7723,14.7723,14.7723,14.7723,9.9382,9.9659,10.0001,10.0381,10.1482,10.2887,10.4595,10.6266,10.7974,10.9683,11.0024,11.0024,11.0024,11.0024,11.0176,11.0556,11.3138,11.5226,11.5567,11.8111,11.9933,11.9933,11.9933,11.9933,11.9933,11.9933,11.9933,11.9933,11.9933,11.9933,11.9933,11.9933,11.9933,11.9933,12.3236,12.4944,12.4899,12.7659,12.9084,12.9084,12.8631,12.8294,12.8094,12.8094,12.8094,12.8094,12.8094,12.8094,12.8094,12.8094,12.8094,12.8094,12.8094,12.8094,12.8319,13.03,13.187,13.3254,13.531,13.6806,13.7815,13.7815,13.7815,13.7815,13.7815,13.7815,13.7815,13.7815,13.7815,13.7815,13.7815,13.7815,13.7815,13.7815,13.7815,13.7815,13.7815,14.047,14.29,14.29,14.5517,14.7723,14.7723,14.7723,14.7723,14.7723,14.7723,14.7723,14.7723,14.7723,14.7723,14.7723,14.7723,14.7723,14.7723,14.7723,14.7723,14.7723,14.7723,14.7723,14.7723,14.7723,14.7723,14.7723,14.7723,14.7723,14.7723,14.7723,14.7723,14.7723,14.7723,14.7723,9.9279,9.9512,9.995,10.0836,10.1748,10.3077,10.5582,10.6835,10.7974,10.9683,11.0024,11.0024,11.0024,11.0024,11.0024,11.0024,11.2872,11.534,11.6061,11.8339,11.9933,11.9933,11.9933,11.9933,11.9933,11.9933,11.9933,11.9933,11.9933,11.9933,11.9933,11.9933,11.9933,11.9933,12.3236,12.4983,12.4983,12.7816,12.9183,12.9084,12.8695,12.8345,12.8094,12.8094,12.8094,12.8094,12.8094,12.8094,12.8094,12.8094,12.8094,12.8094,12.8094,12.8094,12.8206,12.9029,13.0375,13.2132,13.4637,13.6507,13.7815,13.7815,13.7815,13.7815,13.7815,13.7815,13.7815,13.7815,13.7815,13.7815,13.7815,13.7815,13.7815,13.7815,13.7815,13.7815,13.7815,14.047,14.29,14.29,14.5517,14.7723,14.7723,14.7723,14.7723,14.7723,14.7723,14.7723,14.7723,14.7723,14.7723,14.7723,14.7723,14.7723,14.7723,14.7723,14.7723,14.7723,14.7723,14.7723,14.7723,14.7723,14.7723,14.7723,14.7723,14.7723,14.7723,14.7723,14.7723,14.7723,14.7723,14.7723,9.9249,9.9636,10.0316,10.2011,10.2621,10.3646,10.6759,10.7481,10.7974,10.9683,11.0024,11.0024,11.0024,11.0024,11.0024,11.0024,11.2644,11.534,11.7162,11.887,11.9933,11.9933,11.9933,11.9933,11.9933,11.9933,11.9933,11.9933,11.9933,11.9933,11.9933,11.9933,11.9933,11.9933,12.3236,12.4983,12.4983,12.8018,12.9392,12.9084,12.8722,12.8426,12.8094,12.8094,12.8094,12.8094,12.8094,12.8094,12.8094,12.8094,12.8094,12.8094,12.8094,12.8094,12.8094,12.8094,12.8917,13.0487,13.3628,13.5908,13.7516,13.774,13.7815,13.7815,13.7815,13.7815,13.7815,13.7815,13.7815,13.7815,13.7815,13.7815,13.7815,13.7815,13.7815,13.7815,13.7815,14.047,14.29,14.29,14.5517,14.7723,14.7723,14.7723,14.7723,14.7723,14.7723,14.7723,14.7723,14.7723,14.7723,14.7723,14.7723,14.7723,14.7723,14.7723,14.7723,14.7723,14.7723,14.7723,14.7723,14.7723,14.7723,14.7723,14.7723,14.7723,14.7723,14.7723,14.7723,14.7723,14.7723,14.7723,9.9299,10.0469,10.18,10.2315,10.3532,10.5089,10.7063,10.7481,10.7974,10.9683,11.0024,11.0024,11.0024,11.0024,11.0024,11.0024,11.1657,11.3973,11.6972,11.887,11.9933,11.9933,11.9933,11.9933,11.9933,11.9933,11.9933,11.9933,11.9933,11.9933,11.9933,11.9933,11.9933,11.9933,12.3236,12.4983,12.4983,12.8285,12.9654,12.9084,12.8995,12.8649,12.8094,12.8094,12.8094,12.8094,12.8094,12.8094,12.8094,12.8094,12.8094,12.8094,12.8094,12.8094,12.8094,12.8094,12.8244,12.873,13.0562,13.3216,13.6058,13.7404,13.7815,13.7815,13.7815,13.7815,13.7815,13.7815,13.7815,13.7815,13.7815,13.7815,13.7815,13.7815,13.7815,13.7815,13.7815,14.047,14.29,14.29,14.5517,14.7723,14.7723,14.7723,14.7723,14.7723,14.7723,14.7723,14.7723,14.7723,14.7723,14.7723,14.7723,14.7723,14.7723,14.7723,14.7723,14.7723,14.7723,14.7723,14.7723,14.7723,14.7723,14.7723,14.7723,14.7723,14.7723,14.7723,14.7723,14.7723,14.7723,14.7723,9.9364,10.0826,10.2721,10.4709,10.5772,10.6759,10.8468,10.8847,10.9075,10.9873,11.0024,11.0024,11.0024,11.0024,11.0328,11.1239,11.2796,11.4732,11.7086,11.887,11.9933,11.9933,11.9933,11.9933,11.9933,11.9933,11.9933,11.9933,11.9933,11.9933,11.9933,11.9933,11.9933,11.9933,12.3236,12.4983,12.4983,12.8362,12.971,12.9084,12.9084,12.8716,12.8094,12.8094,12.8094,12.8094,12.8094,12.8094,12.8094,12.8094,12.8094,12.8094,12.8094,12.8094,12.8094,12.8094,12.8094,12.8319,12.9889,13.2057,13.4525,13.703,13.7815,13.7815,13.7815,13.7815,13.7815,13.7815,13.7815,13.7815,13.7815,13.7815,13.7815,13.7815,13.7815,13.7815,13.7815,14.047,14.29,14.29,14.5517,14.7723,14.7723,14.7723,14.7723,14.7723,14.7723,14.7723,14.7723,14.7723,14.7723,14.7723,14.7723,14.7723,14.7723,14.7723,14.7723,14.7723,14.7723,14.7723,14.7723,14.7723,14.7723,14.7723,14.7723,14.7723,14.7723,14.7723,14.7723,14.7723,14.7723,14.7723,10.0005,0.0,10.4254,10.6835,10.7784,10.843,0.0,11.0024,11.0024,11.0024,11.0024,11.0024,11.0024,11.0024,11.0594,11.2264,11.3973,11.5605,11.72,11.887,11.9933,11.9933,11.9933,11.9933,11.9933,11.9933,11.9933,11.9933,11.9933,11.9933,11.9933,11.9933,11.9933,11.9933,12.3236,12.4983,12.4983,12.8362,12.971,12.9084,12.9084,12.8716,12.8094,12.8094,12.8094,12.8094,12.8094,12.8094,12.8094,12.8094,12.8094,12.8094,12.8094,12.8094,12.8094,12.8094,12.8094,12.8281,12.944,13.1235,13.3366,13.5871,13.718,13.7815,13.7815,13.7815,13.7815,13.7815,13.7815,13.7815,13.7815,13.7815,13.7815,13.7815,13.7815,13.7815,13.7815,14.0171,14.2414,14.2825,14.5181,14.7275,14.7649,14.7723,14.7723,14.7723,14.7723,14.7723,14.7723,14.7723,14.7723,14.7723,14.7723,14.7723,14.7723,14.7723,14.7723,14.7723,14.7723,14.7723,14.7723,14.7723,14.7723,14.7723,14.7723,14.7723,14.7723,14.7723,14.7723,14.7723,14.7723,14.7723,0.0,10.4633,10.7177,10.7443,10.8696,10.9873,10.9986,11.0024,0.0,11.0024,11.0024,11.0024,11.0024,11.0024,11.0594,11.2264,11.3973,11.5605,11.72,11.887,11.9933,11.9933,11.9933,11.9933,11.9933,11.9933,11.9933,11.9933,11.9933,11.9933,11.9933,11.9933,11.9933,11.9933,12.3236,12.4983,12.4983,12.8362,12.971,12.9084,12.9084,12.8716,12.8094,12.8094,12.8094,12.8094,12.8094,12.8094,12.8094,12.8094,12.8094,12.8094,12.8094,12.8094,12.8094,12.8094,12.8094,12.8094,12.8244,13.0337,13.2992,13.3254,13.5348,13.7815,13.7815,13.7815,13.7815,13.7815,13.7815,13.7815,13.7815,13.7815,13.7815,13.7815,13.7815,13.7815,13.7815,13.9236,14.0993,14.2564,14.4246,14.5891,14.7462,14.7723,14.7723,14.7723,14.7723,14.7723,14.7723,14.7723,14.7723,14.7723,14.7723,14.7723,14.7723,14.7723,14.7723,14.7723,14.7723,14.7723,14.7723,14.7723,14.7723,14.7723,14.7723,14.7723,14.7723,14.7723,14.7723,14.7723,14.7723,14.7723,10.3532,10.5734,10.7746,10.8809,10.9569,11.0024,11.0024,11.0024,11.0024,11.0024,11.0024,11.0024,11.0024,11.086,11.215,11.3859,11.5491,11.7086,11.8756,11.9516,11.9933,11.9933,11.9933,11.9933,11.9933,11.9933,11.9933,11.9933,11.9933,11.9933,11.9933,11.9933,11.9933,11.9933,12.3236,12.4983,12.4983,12.8362,12.971,12.9084,12.9084,12.8716,12.8094,12.8094,12.8094,12.8094,12.8094,12.8094,0.0,12.8094,12.8094,12.8094,12.8094,12.8094,12.8094,12.8094,12.8094,12.8094,12.8094,12.9552,13.1571,13.2618,13.4525,13.6544,13.7516,13.7815,13.7815,13.7815,13.7815,13.7815,13.7815,13.7815,13.7815,13.7815,13.7815,13.7815,13.7815,13.9124,14.0844,14.2564,14.4134,14.5742,14.7424,14.7723,14.7723,14.7723,14.7723,14.7723,14.7723,14.7723,14.7723,14.7723,14.7723,14.7723,14.7723,14.7723,14.7723,14.7723,14.7723,14.7723,14.7723,14.7723,14.7723,14.7723,14.7723,14.7723,14.7723,14.7723,14.7723,14.7723,14.7723,14.7723,10.5317,10.7025,10.8582,10.9721,11.0024,11.0024,11.0024,11.0024,11.0024,11.0024,11.0442,11.0822,11.0822,11.2188,11.3897,11.5529,11.6706,11.7997,11.9706,11.9933,11.9933,11.9933,11.9933,11.9933,11.9933,11.9933,11.9933,11.9933,11.9933,11.9933,11.9933,11.9933,11.9933,11.9933,12.3236,12.4983,12.4983,12.8362,12.971,12.9084,12.9084,12.8716,12.8094,12.8094,12.8094,12.8094,12.8094,12.8094,12.8094,12.8094,12.8094,12.8094,12.8094,12.8094,12.8094,12.8094,12.8094,12.8094,12.8094,12.9104,13.0599,13.1758,13.3665,13.5684,13.6768,13.7441,13.7815,13.7815,13.7815,13.7815,13.7815,13.7815,13.7815,13.7815,13.7815,13.7815,13.7815,13.8713,14.0059,14.1741,14.3386,14.4994,14.6639,14.7387,14.7723,14.7723,14.7723,14.7723,14.7723,14.7723,14.7723,14.7723,14.7723,14.7723,14.7723,14.7723,14.7723,14.7723,14.7723,14.7723,14.7723,14.7723,14.7723,14.7723,14.7723,14.7723,14.7723,14.7723,14.7723,14.7723,14.7723,14.7723,10.7025,10.8734,11.0024,11.0024,11.0024,11.0024,11.0024,11.0024,11.0024,11.0024,11.1391,11.2568,11.2568,11.3973,11.5605,11.7162,11.7428,11.7997,11.9706,11.9933,11.9933,11.9933,11.9933,11.9933,11.9933,11.9933,11.9933,11.9933,11.9933,11.9933,11.9933,11.9933,11.9933,11.9933,12.3236,12.4983,12.4983,12.8362,12.971,12.9084,12.9084,12.8716,12.8094,12.8094,12.8094,12.8094,12.8094,12.8094,12.8094,12.8094,12.8094,12.8094,12.8094,12.8094,12.8094,12.8094,12.8094,12.8094,12.8094,12.9104,13.0412,13.0412,13.2693,13.546,13.546,13.6544,13.7815,13.7815,13.7815,13.7815,13.7815,13.7815,13.7815,13.7815,13.7815,13.7815,13.7815,13.7815,13.8339,14.0021,14.1704,14.3386,14.4957,14.6602,14.7723,14.7723,14.7723,14.7723,14.7723,14.7723,14.7723,14.7723,14.7723,14.7723,14.7723,14.7723,14.7723,14.7723,14.7723,14.7723,14.7723,14.7723,14.7723,14.7723,14.7723,14.7723,14.7723,14.7723,14.7723,14.7723,14.7723,14.7723,10.7025,10.8734,11.0024,11.0024,11.0024,11.0024,11.0024,11.0936,11.1809,11.1809,11.3138,11.4352,11.4352,11.5643,11.6858,11.7314,11.8415,11.9364,11.9857,11.9933,11.9933,11.9933,11.9933,11.9933,11.9933,11.9933,11.9933,11.9933,11.9933,11.9933,11.9933,11.9933,11.9933,11.9933,12.3236,12.4983,12.4983,12.8069,12.9459,12.9084,12.8784,12.8468,12.8094,12.8094,12.8094,12.8094,12.8094,12.8094,12.8094,12.8094,12.8094,12.8094,12.8094,12.8094,12.8094,12.8094,12.8094,12.8094,12.8094,12.8393,12.8954,13.0076,13.1908,13.3702,13.3702,13.4862,13.6394,13.7516,13.7815,13.7815,13.7815,13.7815,13.7815,13.7815,13.7815,13.7815,13.7815,13.7815,13.8339,14.0021,14.1704,14.3386,14.4957,14.6602,14.7723,14.7723,14.7723,14.7723,14.7723,14.7723,14.7723,14.7723,14.7723,14.7723,14.7723,14.7723,14.7723,14.7723,14.7723,14.7723,14.7723,14.7723,14.7723,14.7723,14.7723,14.7723,14.7723,14.7723,14.7723,14.7723,14.7723,14.7723,10.805,10.9227,11.0024,11.0024,11.0024,11.0214,11.086,11.1809,11.2758,11.3441,11.4846,11.6023,11.6023,11.7314,11.8415,11.8415,11.9288,11.9933,11.9933,11.9933,11.9933,11.9933,11.9933,11.9933,11.9933,11.9933,11.9933,11.9933,11.9933,11.9933,11.9933,11.9933,11.9933,11.9933,12.3236,12.4983,12.4983,12.7965,12.9322,12.9084,12.8695,12.8345,12.8094,12.8094,12.8094,12.8094,12.8094,12.8094,12.8094,12.8094,12.8094,12.8094,12.8094,12.8094,12.8094,12.8094,12.8094,12.8094,12.8094,12.8094,12.8244,12.9178,13.0599,13.1945,13.1945,13.359,13.5684,13.6619,13.7329,13.7815,13.7815,13.7815,13.7815,13.7815,13.7815,13.7815,13.7815,13.7815,13.8114,13.9124,14.0732,14.2377,14.4022,14.563,14.6976,14.7649,14.7723,14.7723,14.7723,14.7723,14.7723,14.7723,14.7723,14.7723,14.7723,14.7723,14.7723,14.7723,14.7723,14.7723,14.7723,14.7723,14.7723,14.7723,14.7723,14.7723,14.7723,14.7723,14.7723,14.7723,14.7723,14.7723,10.9569,11.0024,11.0024,11.0024,11.0024,11.048,11.215,11.2682,11.3251,11.4922,11.6554,11.7655,11.7655,11.8908,11.9933,11.9933,11.9933,11.9933,11.9933,11.9933,11.9933,11.9933,11.9933,11.9933,11.9933,11.9933,11.9933,11.9933,11.9933,11.9933,11.9933,11.9933,11.9933,11.9933,12.3236,12.4983,12.4983,12.7956,12.9297,12.9084,12.8645,12.8341,12.8094,12.8094,12.8094,12.8094,12.8094,12.8094,12.8094,12.8094,12.8094,12.8094,12.8094,12.8094,12.8094,12.8094,12.8094,12.8094,12.8094,12.8094,12.8094,12.8094,12.9029,13.0225,13.0375,13.2581,13.5086,13.5385,13.6507,13.7628,13.7778,13.7815,13.7815,13.7815,13.7815,13.7815,13.7815,13.7815,13.7815,13.7815,13.9161,14.0844,14.2377,14.4059,14.5742,14.7275,14.7649,14.7723,14.7723,14.7723,14.7723,14.7723,14.7723,14.7723,14.7723,14.7723,14.7723,14.7723,14.7723,14.7723,14.7723,14.7723,14.7723,14.7723,14.7723,14.7723,14.7723,14.7723,14.7723,14.7723,14.7723,14.7723,10.9569,11.0024,11.0024,11.0024,11.0024,11.048,11.215,11.3593,11.496,11.6554,11.8225,11.9402,11.9402,11.9668,11.9933,11.9933,11.9933,11.9933,11.9933,11.9933,11.9933,11.9933,11.9933,11.9933,11.9933,11.9933,11.9933,11.9933,11.9933,11.9933,11.9933,11.9933,11.9933,11.9933,12.3236,12.4983,12.4983,12.7731,12.9117,12.9084,12.8466,12.8164,12.8094,12.8094,12.8094,12.8094,12.8094,12.8094,12.8094,12.8094,12.8094,12.8094,12.8094,12.8094,12.8094,12.8094,12.8094,12.8094,12.8094,12.8094,12.8094,12.8094,12.8319,12.8842,13.0038,13.0936,13.2057,13.4712,13.5721,13.6282,13.7516,13.7815,13.7815,13.7815,13.7815,13.7815,13.7815,13.7815,13.7815,13.7815,13.9161,14.047,14.0844,14.3274,14.533,14.5704,14.6863,14.7723,14.7723,14.7723,14.7723,14.7723,14.7723,14.7723,14.7723,14.7723,14.7723,14.7723,14.7723,14.7723,14.7723,14.7723,14.7723,14.7723,14.7723,14.7723,14.7723,14.7723,14.7723,14.7723,14.7723,14.7723,10.9797,11.0024,11.0024,11.0024,11.0024,11.067,11.3176,11.4428,11.5757,11.8111,11.9326,11.9894,11.9761,11.9852,11.9894,11.9761,11.9853,11.9933,11.9933,11.9933,11.9933,11.9933,11.9933,11.9933,11.9933,11.9933,11.9933,11.9933,11.9933,11.9933,11.9933,11.9933,11.9933,11.9933,12.2439,12.4186,12.4983,12.6888,12.8289,12.9071,12.842,12.8094,12.8094,12.8094,12.8094,12.8094,12.8094,12.8094,12.8094,12.8094,12.8094,12.8094,12.8094,12.8094,12.8094,12.8094,12.8094,12.8094,12.8094,12.8094,12.8094,12.8094,12.8094,12.8244,12.9066,12.9814,13.0786,13.2581,13.4226,13.5684,13.6507,13.7254,13.7815,13.7815,13.7815,13.7815,13.7815,13.7815,13.7815,13.7815,13.8526,13.9386,14.0208,14.1741,14.3162,14.3984,14.548,14.6527,14.6527,14.6527,14.6527,14.6527,14.7237,14.7723,14.7723,14.7723,14.7723,14.7723,14.7723,14.7723,14.7723,14.7723,14.7723,14.7723,14.7723,14.7723,14.7723,14.6938,14.6527,14.6527,14.5742,14.5405,11.0024,11.0024,11.0024,11.0024,11.0024,11.0822,11.3935,11.4807,11.5831,11.887,11.9664,11.9756,11.957,11.9695,11.9753,11.957,11.9709,11.9894,11.9933,11.9933,11.9933,11.9933,11.9933,11.9933,11.9933,11.9933,11.9933,11.9933,11.9933,11.9933,11.9933,11.9933,11.9933,11.9933,12.13,12.2932,12.4903,12.5992,12.7382,12.8956,12.8379,12.8094,12.8094,12.8094,12.8094,12.8094,12.8094,12.8094,12.8094,12.8094,12.8094,12.8094,12.8094,12.8094,12.8094,12.8094,12.8094,12.8094,12.8094,12.8094,12.8094,12.8094,12.8094,12.8094,12.8094,12.8991,13.0076,13.0337,13.2431,13.4749,13.5348,13.6432,13.7479,13.774,13.7815,13.7815,13.7815,13.7815,13.7815,13.7815,13.7815,13.8264,13.9647,14.0133,14.0806,14.2227,14.3797,14.4807,14.4807,14.4807,14.4807,14.4807,14.6078,14.6901,14.6901,14.6901,14.6901,14.6901,14.6901,14.6901,14.6901,14.6901,14.6901,14.6901,14.6901,14.6901,14.6863,14.548,14.4807,14.477,14.3498,14.29,11.0024,11.0024,11.0024,11.0024,11.0024,11.0518,11.2454,11.3759,11.5168,11.7312,11.8541,11.93,11.9492,11.9407,11.9347,11.9498,11.957,11.9692,11.9895,11.9933,11.9933,11.9933,11.9933,11.9933,11.9933,11.9933,11.9933,11.9933,11.9933,11.9933,11.9933,11.9933,11.9933,11.9933,12.0161,12.1669,12.4621,12.5909,12.7211,12.8558,12.8259,12.8094,12.8094,12.8094,12.8094,12.8094,12.8094,12.8094,12.8094,12.8094,12.8094,12.8094,12.8094,12.8094,12.8094,12.8094,12.8094,12.8094,12.8094,12.8094,12.8094,12.8094,12.8094,12.8094,12.8094,12.8244,12.8692,13.0038,13.0749,13.1758,13.4712,13.5647,13.6133,13.7479,13.7815,13.7815,13.7815,13.7815,13.7815,13.7815,13.7815,13.789,13.8114,13.9348,14.0395,14.0657,14.2115,14.3172,14.3172,14.3172,14.3172,14.3172,14.3386,14.3536,14.3536,14.3536,14.3536,14.3536,14.3536,14.3536,14.3536,14.3536,14.3536,14.3536,14.3536,14.3536,14.3536,14.3311,14.3172,14.3172,14.2975,14.29,11.0024,11.0024,11.0024,11.0024,10.9903,11.0255,11.1928,11.2596,11.3631,11.6408,11.7378,11.8002,11.8863,11.9076,11.9125,11.9014,11.9298,11.9575,11.9703,11.985,11.9933,11.9933,11.9933,11.9933,11.9933,11.9933,11.9933,11.9933,11.9933,11.9933,11.9933,11.9933,11.9933,11.9933,11.9933,12.0614,12.196,12.4062,12.5785,12.7075,12.7764,12.8094,12.8094,12.8094,12.8094,12.8094,12.8094,12.8094,12.8094,12.8094,12.8094,12.8094,12.8094,12.8094,12.8094,12.8094,12.8094,12.8094,12.8094,12.8094,12.8094,12.8094,12.8094,12.8094,12.8094,12.8094,12.8244,12.8917,12.9739,13.0786,13.2244,13.3366,13.4488,13.6133,13.6507,13.6768,13.7628,13.7815,13.7815,13.7815,13.7815,13.7815,13.7815,13.8451,13.8937,13.8937,14.0358,14.1105,14.0171,14.0881,14.1442,14.1442,14.2302,14.29,14.29,14.29,14.29,14.29,14.29,14.29,14.29,14.29,14.29,14.29,14.29,14.29,14.29,14.1928,14.1442,14.1442,14.047,14.0059,10.9695,10.9846,10.9846,10.9846,10.9674,10.9861,11.1112,11.1445,11.2213,11.4798,11.559,11.6235,11.7715,11.8144,11.8356,11.8544,11.905,11.9466,11.9548,11.9761,11.9933,11.9933,11.9933,11.9933,11.9933,11.9933,11.9933,11.9933,11.9933,11.9933,11.9933,11.9933,11.9933,11.9933,11.9892,11.985,11.985,12.2122,12.4164,12.5871,12.6947,12.7683,12.8094,12.8094,12.8094,12.8094,12.8094,12.8094,12.8094,12.8094,12.8094,12.8094,12.8094,12.8094,12.8094,12.8094,12.8094,12.8094,12.8094,12.8094,12.8094,12.8094,12.8094,12.8094,12.8094,12.8094,12.8094,12.8094,12.8917,12.9926,13.0337,13.1347,13.2768,13.445,13.5198,13.5796,13.6955,13.7554,13.7815,13.7815,13.7815,13.7815,13.7815,13.7815,13.7815,13.7815,13.89,13.9236,13.7965,13.8937,13.9685,13.9685,14.0844,14.1592,14.1592,14.1592,14.1592,14.1592,14.1592,14.1592,14.1592,14.1592,14.1592,14.1592,14.1592,14.1592,14.1592,14.032,13.9685,13.9647,13.8413,13.7815,10.8862,10.9268,10.9268,10.9268,10.9296,10.9286,10.9362,11.0327,11.1329,11.1756,11.2734,11.4102,11.6034,11.608,11.6425,11.8291,11.8899,11.9243,11.9492,11.9761,11.9933,11.9933,11.9933,11.9933,11.9933,11.9933,11.9933,11.9933,11.9933,11.9933,11.9933,11.9933,11.9933,11.9933,11.9699,11.9565,11.9565,12.0677,12.2693,12.56,12.5688,12.6561,12.8094,12.8094,12.8094,12.8094,12.8094,12.8094,12.8094,12.8094,12.8094,12.8094,12.8094,12.8094,12.8094,12.8094,12.8094,12.8094,12.8094,12.8094,12.8094,12.8094,12.8094,12.8094,12.8094,12.8094,12.8094,12.8094,12.8132,12.8543,13.0038,13.0487,13.0973,13.2693,13.4338,13.5497,13.5572,13.6768,13.7815,13.7815,13.7815,13.7815,13.7815,13.7815,13.7815,13.7815,13.789,13.7927,13.7853,13.789,13.7965,13.7965,13.804,13.8077,13.8077,13.8077,13.8077,13.8077,13.8077,13.8077,13.8077,13.8077,13.8077,13.8077,13.8077,13.8077,13.8077,13.8002,13.7965,13.7965,13.7853,13.7815,10.746,10.8406,10.9227,10.9227,10.9043,10.8875,10.8875,10.9121,10.9664,11.084,11.1406,11.2231,11.4047,11.4261,11.44,11.5097,11.6372,11.7305,11.7403,11.8748,11.9695,11.9695,11.9849,11.9933,11.9933,11.9933,11.9933,11.9933,11.9763,11.9695,11.9695,11.9542,11.9437,11.9437,11.9365,11.9282,11.9282,11.9418,12.0532,12.2709,12.4654,12.5888,12.6486,12.7571,12.8094,12.8094,12.8094,12.8094,12.8094,12.8094,12.8094,12.8094,12.8094,12.8094,12.8094,12.8094,12.8094,12.8094,12.8094,12.8094,12.8094,12.8094,12.8094,12.8094,12.8094,12.8094,12.8094,12.8094,12.8094,12.8244,12.8767,12.8917,12.9328,13.0936,13.1796,13.2543,13.3628,13.5161,13.632,13.632,13.7142,13.7815,13.7815,13.7815,13.7815,13.7815,13.7815,13.7815,13.7815,13.7815,13.7815,13.7815,13.7815,13.7815,13.7815,13.7815,13.7815,13.7815,13.7815,13.7815,13.7815,13.7815,13.7815,13.7815,13.7815,13.7815,13.7815,13.7815,13.7815,13.7815,13.7815,13.7815,10.616,10.6838,10.7555,10.8635,10.833,10.7874,10.84,10.8388,10.8577,10.972,10.9944,11.0447,11.2167,11.2466,11.2653,11.3251,11.4505,11.5386,11.5386,11.6716,11.7921,11.8482,11.8773,11.9162,11.9732,11.9219,11.8823,11.8823,11.9195,11.9422,11.9422,11.9271,11.9163,11.9163,11.9029,11.8964,11.8964,11.8606,11.9012,12.0157,12.2707,12.3944,12.4019,12.6225,12.7234,12.7272,12.7832,12.8094,12.8094,12.8094,12.8094,12.8094,12.8094,12.8094,12.8094,12.8094,12.8094,12.8094,12.8094,12.8094,12.8094,12.8094,12.8094,12.8094,12.8094,12.8094,12.8094,12.8094,12.8094,12.8094,12.8094,12.8094,12.8356,12.9403,13.0038,13.0749,13.187,13.3441,13.4637,13.4637,13.546,13.6357,13.6955,13.703,13.7217,13.774,13.7815,13.7441,13.632,13.6208,13.6208,13.6208,13.6208,13.6208,13.6208,13.6208,13.6208,13.6208,13.6208,13.6208,13.6208,13.6208,13.6208,13.6208,13.6208,13.6208,13.6208,13.6208,13.6208,13.6208,13.6208,13.6208,10.4876,10.4614,10.4165,10.7343,10.7007,10.6334,10.7867,10.8241,10.8278,10.8278,10.8278,10.8764,11.0388,11.0708,11.1291,11.2914,11.3416,11.36,11.36,11.389,11.4695,11.6349,11.6762,11.7581,11.9201,11.7672,11.6549,11.6549,11.8115,11.9038,11.9038,11.9102,11.9102,11.9102,11.8763,11.8552,11.8552,11.8282,11.8186,11.8186,11.9854,12.0677,12.0827,12.3981,12.5477,12.5589,12.7234,12.7982,12.8019,12.8019,12.8057,12.8094,12.8094,12.8094,12.8094,12.8094,12.8094,12.8094,12.8094,12.8094,12.8094,12.8094,12.8094,12.8094,12.8094,12.8094,12.8094,12.8094,12.8094,12.8094,12.8094,12.8094,12.8094,12.8094,12.9253,13.0337,13.0337,13.1684,13.288,13.288,13.2892,13.3478,13.5123,13.5422,13.5946,13.7441,13.7666,13.6544,13.3366,13.2929,13.2929,13.2929,13.2929,13.2929,13.2929,13.2929,13.2929,13.2929,13.2929,13.2929,13.2929,13.2929,13.2929,13.2929,13.2929,13.2929,13.2929,13.2929,13.2929,13.2929,13.2929,13.2929,10.1735,10.2819,10.3642,10.4539,10.5362,10.6035,10.6483,10.7456,10.8278,10.8278,10.8278,10.839,10.8876,10.8951,10.9101,10.9587,11.0759,11.1572,11.1591,11.2894,11.3989,11.4479,11.4754,11.5002,11.53,11.5007,11.4782,11.4782,11.6218,11.7028,11.7028,11.792,11.8464,11.8464,11.8324,11.8278,11.8278,11.8239,11.8186,11.8186,11.8635,11.9532,12.0752,12.1626,12.2673,12.3757,12.4243,12.514,12.6262,12.6262,12.6973,12.8094,12.8094,12.8094,12.8094,12.8094,12.8094,12.8094,12.8094,12.8094,12.8094,12.8094,12.8094,12.8094,12.8094,12.8094,12.8094,12.8094,12.8094,12.8094,12.8094,12.8094,12.8094,12.8094,12.8431,12.873,12.873,13.0001,13.1123,13.1123,13.2132,13.3142,13.359,13.3665,13.3815,13.4263,13.4301,13.3964,13.3079,13.2929,13.2929,13.2929,13.2929,13.2929,13.2929,13.2929,13.2929,13.2929,13.2929,13.2929,13.2929,13.2929,13.2929,13.2929,13.2929,13.2929,13.2929,13.2929,13.2929,13.2929,13.2929,13.2929,9.9679,10.0651,10.1698,10.3081,10.3642,10.4016,10.4726,10.5586,10.6222,10.6222,10.6783,10.7306,10.7306,10.7829,10.8278,10.8278,10.9101,10.9736,10.9757,11.0713,11.1688,11.2401,11.2003,11.1615,11.1443,11.2207,11.2724,11.2724,11.4122,11.5011,11.5011,11.6363,11.7139,11.7139,11.7812,11.8186,11.8186,11.8186,11.8186,11.8186,11.8186,11.871,11.9667,11.9667,12.0542,12.2112,12.2748,12.3608,12.4542,12.4542,12.5514,12.7047,12.7047,12.7459,12.8019,12.7309,12.7047,12.7159,12.7832,12.8094,12.8094,12.8094,12.8094,12.8094,12.8094,12.8094,12.8094,12.8094,12.8094,12.8094,12.8094,12.8094,12.8094,12.8094,12.8094,12.8094,12.8094,12.8805,12.944,12.944,13.0263,13.1123,13.1796,13.1908,13.1684,13.1048,13.0936,13.0936,13.0936,13.0936,13.0936,13.0936,13.0936,13.0936,13.0936,13.0936,13.0936,13.0936,13.0936,13.0936,13.0936,13.0936,13.0936,13.0936,13.0936,13.0936,13.0936,13.0936,13.0936,13.0936,13.0936,13.0936,9.8576,9.8576,9.9249,10.2146,10.1865,10.1267,0.0,10.3268,10.3418,10.3418,10.4614,10.5661,10.5661,10.6932,10.8016,10.8016,10.8166,10.8278,10.8278,10.8278,10.8839,11.0356,10.9196,10.8278,10.8278,10.9645,11.0505,11.0505,11.2092,11.3026,11.3026,11.4522,11.5419,11.5419,11.7027,11.7887,11.7887,11.8074,11.8186,11.8186,11.8186,11.8186,11.8186,11.8186,11.9032,12.049,12.1888,12.2523,12.25,12.271,12.3757,12.529,12.529,12.6225,12.7346,12.5851,12.529,12.5552,12.7234,12.7795,12.7832,12.8019,12.8094,12.8094,12.8094,12.8094,12.8094,12.8094,12.8094,12.8094,12.8094,12.8094,12.8094,12.8094,12.8094,12.8094,12.8094,12.8094,12.8094,12.8094,12.8094,12.8543,12.9926,13.0188,12.9702,12.8319,12.8094,12.8094,12.8094,12.8094,12.8094,12.8094,12.8094,12.8094,12.8094,12.8094,12.8094,12.8094,12.8094,12.8094,12.8094,12.8094,12.8094,12.8094,12.8094,12.8094,12.8094,12.8094,12.8094,12.8094,12.8094,12.7907,0.0,0.0,0.0,0.0,0.0,0.0,0.0,10.2445,10.3418,10.3418,10.3679,10.3904,10.3904,10.525,10.6371,10.6371,10.7456,10.8278,10.8278,10.8278,10.839,10.8727,10.8465,10.8278,10.8278,10.854,10.8764,10.8764,11.0356,11.1291,11.1291,11.2877,11.3774,11.3774,11.5345,11.613,11.613,11.7513,11.8186,11.8186,11.8186,11.8186,11.8186,11.8186,11.8336,11.8672,11.9009,11.9121,11.9233,12.0579,12.2075,12.3533,12.3533,12.3757,12.3981,12.3682,12.3533,12.3794,12.5477,12.6075,12.63,12.7646,12.8094,12.8094,12.8094,12.8094,12.8094,12.8094,12.8094,12.8094,12.8094,12.8094,12.8094,12.8094,12.8094,12.8094,12.8094,12.8094,12.8094,12.8094,12.8094,12.8206,12.8505,12.8543,12.8431,12.8132,12.8094,12.8094,12.8094,12.8094,12.8094,12.8094,12.8094,12.8094,12.8094,12.8094,12.8094,12.8094,12.8094,12.8094,12.8094,12.8094,12.8094,12.8094,12.8094,12.8094,12.8094,12.8094,12.8094,12.8094,12.8094,12.6636,0.0,0.0,0.0,0.0,0.0,0.0,0.0,0.0,0.0,0.0,0.0,10.2127,10.2127,0.0,10.4689,10.4689,10.5324,10.6147,10.6969,10.7119,10.7119,10.7119,10.7119,10.7418,10.8203,10.8278,10.8278,10.8278,10.9026,10.9533,10.9533,11.1157,11.2054,11.2054,11.3625,11.4485,11.4485,11.5345,11.5756,11.5756,11.6541,11.6915,11.6952,11.7775,11.8186,11.8186,11.8186,11.8186,11.8224,11.9083,12.0392,12.1813,12.0953,12.0616,12.0729,12.1551,12.1888,12.2112,12.3757,12.4318,12.4467,12.529,12.5589,12.5739,12.6599,12.6823,12.701,12.787,12.8094,12.8094,12.8094,12.8094,12.8094,12.8094,12.8094,12.8094,12.8094,12.8094,12.8094,12.8094,12.8094,12.8094,12.8094,12.8094,12.8094,12.8094,12.8094,12.8094,12.8094,12.8094,12.8094,12.8094,12.8094,12.8094,12.8094,12.8094,12.8094,12.8094,12.8094,12.8094,12.8094,12.7272,12.6823,12.6823,12.6,12.5589,12.5589,12.5589,12.5589,12.5552,12.3907,12.2224,0.0,0.0,0.0,0.0,0.0,0.0,0.0,0.0,0.0,0.0,0.0,0.0,0.0,0.0,0.0,10.2931,10.3193,10.3904,10.525,10.5175,10.51,10.5399,10.5437,10.5923,10.7194,10.7642,10.7829,10.7829,10.8091,10.8278,10.8278,10.957,11.0318,11.0318,11.1942,11.284,11.284,11.3176,11.3326,11.3363,11.4597,0.0,11.527,11.6616,11.7251,11.7251,11.7251,11.7401,11.77,11.77,11.8672,12.0041,11.8037,11.7251,11.7438,11.9144,11.9742,12.0041,12.1925,12.2598,12.2635,12.2948,12.3023,12.3308,12.4692,12.5103,0.0,12.6748,12.7346,12.7608,12.7608,12.7832,12.8094,12.8094,12.8094,12.8094,12.8094,12.8094,12.8094,12.8094,12.8094,12.8094,12.8094,12.8094,12.8032,12.7806,12.7945,12.8007,12.7806,12.7982,12.8094,12.8094,12.8094,12.8094,12.8094,12.8094,12.8094,12.8094,12.7795,12.7459,12.7122,12.5813,12.5103,12.5103,12.3757,12.2897,12.2598,12.2598,12.2448,12.2037,11.8784,11.7251,0.0,0.0,0.0,0.0,0.0,0.0,0.0,0.0,0.0,0.0,0.0,0.0,0.0,0.0,0.0,0.0,10.2445,10.3492,10.3679,10.2388,10.2014,10.353,10.3717,10.3754,10.3941,10.5324,10.6222,10.6222,10.7493,10.8278,10.8278,10.8428,0.0,0.0,0.0,11.1104,11.1104,11.2578,11.3326,11.3326,11.3513,11.3587,11.3587,11.3812,11.3886,11.3886,11.3886,11.4672,11.5943,11.5943,11.6952,11.8149,11.5083,11.3886,11.4073,11.5644,11.6242,11.6691,11.9869,0.0,0.0,12.2598,12.3023,12.3084,12.3285,12.3346,12.3359,12.357,12.4692,12.5851,12.5851,12.6973,12.8094,12.8094,12.8094,12.8094,12.8094,12.8094,12.8094,12.8094,12.8094,12.8094,12.8094,12.8094,12.778,12.6886,12.7521,12.778,12.6819,12.7548,12.8094,12.8094,12.8094,0.0,12.8094,12.8094,12.8094,12.8094,12.6673,12.5178,12.3682,12.3458,12.3346,12.3346,12.3135,12.2374,12.0976,12.0976,12.0205,11.8635,11.5382,11.3886,0.0,0.0,0.0,0.0,0.0,0.0,0.0,0.0,0.0,0.0,0.0,0.0,0.0,0.0,0.0,0.0,10.0127,10.044,9.9957,9.9705,10.0127,10.1753,10.194,10.2314,10.3305,10.4053,10.4464,10.4464,10.51,10.5437,10.5437,10.6371,10.6895,10.6895,10.8465,10.9346,10.9346,11.0035,11.0372,11.0409,11.1381,11.183,11.1867,11.2877,11.3326,11.3326,11.3326,11.3699,11.4298,11.4298,11.4746,11.5232,0.0,0.0,0.0,0.0,11.4298,11.4522,11.5943,11.6429,11.6653,11.8261,11.8747,11.9121,12.1102,12.1663,12.1888,12.2785,12.357,12.4094,12.4094,12.4654,12.5178,12.5178,12.5178,12.544,12.6412,12.6636,12.6898,12.7907,12.8094,0.0,12.4805,12.3939,12.3598,12.3688,12.3628,12.3598,12.3688,12.3665,12.3604,12.3604,12.4063,12.4352,12.4352,12.4843,0.0,0.0,0.0,12.3794,12.3084,12.3023,0.0,0.0,0.0,11.7102,11.6429,11.6429,0.0,0.0,10.7306,10.6558,0.0,0.0,0.0,0.0,0.0,0.0,0.0,0.0,0.0,0.0,0.0,0.0,0.0,0.0,0.0,0.0,9.811,9.7931,9.7167,9.772,9.8599,9.9511,9.9986,10.063,10.1683,10.2345,10.2707,10.2707,10.3156,10.3418,10.3418,10.4577,10.525,10.525,10.6334,10.6932,10.6932,10.6932,10.7156,10.7642,10.8897,10.9683,11.0131,11.1381,11.1942,11.1942,11.1942,11.2204,11.2615,11.2615,11.2914,11.3154,11.1602,11.1101,11.1344,11.1793,11.2094,11.2369,11.2779,11.3118,11.3513,11.4634,11.5008,11.5494,11.7924,11.8672,11.9009,12.0579,12.1364,12.1813,12.2299,12.271,12.3023,12.3023,12.3023,12.3359,12.4617,12.4879,12.5253,12.6449,12.6322,12.4985,12.1841,12.0759,12.0456,12.0861,12.0592,12.049,12.0894,12.0558,12.0352,12.0352,12.0889,12.1342,12.1342,12.1917,12.2305,12.2305,12.1475,12.1107,12.136,12.0464,11.8994,11.6878,11.4073,11.2204,0.0,0.0,0.0,0.0,0.0,0.0,0.0,0.0,0.0,0.0,0.0,0.0,0.0,0.0,0.0,0.0,0.0,0.0,0.0,0.0,0.0,0.0,0.0,0.0,9.6403,9.6943,9.7179,9.644,9.769,9.8362,9.765,9.9639,10.0968,10.0968,10.2463,10.3418,10.3418,10.3492,10.3492,10.3492,10.353,10.3567,10.3567,10.3567,10.439,10.5997,10.6072,10.6895,10.8353,10.839,10.8428,10.8428,10.8428,10.9362,11.0879,11.0879,11.183,11.2774,10.721,10.5504,10.6334,10.7867,10.8972,10.9979,11.1473,11.2578,11.3326,11.34,11.34,11.3438,11.3513,11.355,11.3886,11.5457,11.7064,11.871,12.0378,12.1925,12.3023,12.3023,12.3023,12.306,12.3098,12.3098,12.3135,12.3196,12.1768,12.0532,12.0387,12.0352,12.0034,11.9195,11.9778,0.0,11.9155,11.9815,12.0352,12.0352,12.0316,12.0387,12.0387,12.0421,12.0421,12.0421,11.759,11.6218,11.7008,11.3995,11.2676,11.3453,11.1755,10.9346,10.6184,0.0,0.0,0.0,0.0,0.0,0.0,0.0,0.0,0.0,0.0,0.0,0.0,0.0,0.0,0.0,0.0,0.0,0.0,0.0,0.0,0.0,0.0,0.0,0.0,9.6114,9.6503,9.6227,9.6699,9.6881,9.6647,9.7309,9.7795,9.7795,9.88,9.9438,9.9438,10.0899,10.1715,10.1715,10.2819,10.3418,10.3418,10.3418,10.3717,10.4277,10.4277,10.4539,10.5005,10.4515,10.4281,10.4258,10.3733,10.4118,10.5076,10.4586,10.47,10.5006,10.31,10.2464,10.2787,10.3305,10.3726,10.4022,10.4574,10.4926,10.5587,10.7742,10.8777,10.9515,11.1144,11.1661,11.1772,11.229,11.2844,11.3428,11.3982,11.4537,11.4944,11.4944,11.5728,11.6771,11.791,11.8952,11.9987,12.1058,11.6834,11.3138,11.3138,11.2613,11.2294,11.2611,11.3277,11.3883,11.4165,11.4867,11.5312,11.5312,11.5808,11.6195,11.6195,11.5792,11.5584,11.5584,11.3599,11.2548,11.2798,11.1274,11.0031,10.9218,10.8123,10.6241,10.35,0.0,0.0,0.0,0.0,0.0,0.0,0.0,0.0,0.0,0.0,0.0,0.0,0.0,0.0,0.0,0.0,0.0,0.0,0.0,0.0,0.0,0.0,0.0,0.0,0.0,0.0,9.5359,9.5882,0.0,9.5822,9.6056,9.6199,9.6199,9.6699,9.6994,9.6994,9.8383,9.9222,9.9222,10.0285,10.0842,10.0842,10.0842,10.114,10.1734,10.1734,10.2032,10.2552,10.2053,10.1837,10.1811,10.1275,10.1368,10.1648,9.9414,9.8853,9.9402,9.9724,10.0003,10.0312,10.0891,10.0935,10.0693,10.0958,10.0906,10.1059,10.3415,10.4526,10.5277,10.6844,10.7353,10.7463,10.8082,10.8638,10.9226,10.9813,11.0364,11.0804,11.0804,11.158,11.2608,11.3705,11.47,11.5342,11.5178,11.1776,10.8958,10.8958,10.8461,10.8288,10.8879,10.9321,10.9784,11.0351,11.082,11.1059,11.1059,11.1604,11.1945,11.1945,11.16,11.1318,11.1318,10.9354,10.8292,10.8561,10.7017,10.581,10.4962,10.392,10.2336,0.0,0.0,0.0,0.0,0.0,0.0,0.0,0.0,0.0,0.0,0.0,0.0,0.0,0.0,0.0,0.0,0.0,0.0,0.0,0.0,0.0,0.0,0.0,0.0,0.0,0.0,0.0,9.3689,9.5068,0.0,0.0,0.0,0.0,9.6085,9.6142,9.6142,9.6142,9.6199,9.6199,9.6199,9.6199,9.6199,9.6199,9.6199,9.7034,9.8632,9.8632,9.9366,10.0855,10.076,10.0797,10.0797,10.0701,10.0767,10.0422,9.5807,9.4753,9.6174,9.7044,9.7885,9.87,10.0159,10.0257,9.9712,10.0437,10.0225,9.9709,10.0529,10.0804,10.0848,10.0877,10.0951,0.0,0.0,10.4436,10.5914,10.7554,10.9094,11.0199,11.0199,11.0236,11.0309,11.0309,11.0419,10.9521,10.609,10.66,10.7642,10.7642,0.0,10.7599,10.7713,10.7777,10.7891,10.792,10.8034,10.8105,10.8105,10.8105,10.8105,10.8105,10.792,10.7813,10.7813,10.4923,10.3511,10.4244,10.1384,10.0114,10.0767,9.9292,0.0,0.0,0.0,0.0,0.0,0.0,0.0,0.0,0.0,0.0,0.0,0.0,0.0,0.0,0.0,0.0,0.0,0.0,0.0,0.0,0.0,0.0,0.0,0.0,0.0,0.0,9.0009,9.0615,9.1973,9.2475,9.3116,0.0,0.0,0.0,0.0,0.0,0.0,9.5332,9.5911,9.6199,9.6199,9.6199,9.6199,9.6199,9.6199,9.6447,9.6851,9.6851,9.7071,9.7437,9.6875,9.6595,9.6563,9.6012,9.6044,9.6463,9.4625,9.4122,9.448,9.4733,9.4948,9.5161,9.5592,9.5594,9.5486,9.563,9.5594,9.5558,9.6341,9.7044,9.7713,9.8183,0.0,0.0,0.0,0.0,10.0701,10.1133,10.1529,10.1853,10.1853,10.2717,10.3581,10.3581,10.5378,10.5761,10.1404,10.0856,10.1142,10.1142,10.1142,0.0,10.2676,10.3853,10.503,10.6208,10.7349,10.8105,10.8105,10.8105,10.8105,10.8105,10.5922,10.4602,10.4602,10.1677,10.0047,10.0212,9.8829,9.7573,9.6631,0.0,0.0,0.0,0.0,0.0,0.0,0.0,0.0,0.0,0.0,0.0,0.0,0.0,0.0,0.0,0.0,0.0,0.0,0.0,0.0,0.0,0.0,0.0,0.0,0.0,0.0,0.0,8.7335,8.8798,9.0367,9.051,9.0902,0.0,0.0,0.0,0.0,0.0,0.0,0.0,0.0,0.0,9.4194,9.4847,9.5177,9.5177,9.5177,9.5177,9.5177,9.5177,9.5177,9.5177,9.4753,9.4547,9.4512,9.4085,9.4122,9.4514,9.4049,9.3899,9.3899,0.0,0.0,0.0,0.0,9.3899,9.3899,9.3899,9.3899,9.3974,9.4408,0.0,0.0,0.0,0.0,0.0,0.0,0.0,9.7717,9.7717,9.8252,9.8751,9.8751,9.9429,10.0036,10.0036,10.0892,10.0856,9.8216,9.8287,9.8751,9.8751,9.8751,0.0,0.0,0.0,10.1712,10.2569,10.346,10.3996,10.3996,10.3996,10.3996,10.3996,10.239,10.1391,10.1391,9.9072,9.7717,9.7717,9.5881,9.4405,0.0,0.0,0.0,0.0,0.0,0.0,0.0,0.0,0.0,0.0,0.0,0.0,0.0,0.0,0.0,0.0,0.0,0.0,0.0,0.0,0.0,0.0,0.0,0.0,0.0,0.0,0.0,0.0,0.0,8.6201,8.8014,0.0,0.0,0.0,0.0,0.0,0.0,0.0,0.0,0.0,0.0,0.0,0.0,0.0,9.2846,9.2846,9.2846,9.2846,9.2846,9.3023,9.3204,9.3391,9.3605,9.3714,9.3826,9.3138,0.0,9.3071,9.2884,0.0,0.0,0.0,0.0,0.0,0.0,0.0,0.0,0.0,0.0,0.0,0.0,0.0,0.0,0.0,0.0,0.0,0.0,0.0,0.0,0.0,0.0,9.8109,9.8109,9.8109,9.807,9.7917,9.6926,9.6114,9.6114,9.7146,9.807,0.0,0.0,0.0,0.0,0.0,0.0,9.8676,9.8751,9.8751,9.8751,9.8751,9.8751,9.8751,9.8573,9.843,9.843,9.6932,9.6007,9.5792,9.3079,0.0,0.0,0.0,0.0,0.0,0.0,0.0,0.0,0.0,0.0,0.0,0.0,0.0,0.0,0.0,0.0,0.0,0.0,0.0,0.0,0.0,0.0,0.0,0.0,0.0,0.0,0.0,0.0,0.0,0.0,0.0,0.0,0.0,0.0,0.0,0.0,0.0,0.0,0.0,0.0,0.0,0.0,0.0,0.0,0.0,0.0,0.0,0.0,0.0,0.0,8.8477,8.9648,9.0718,9.191,9.295,9.3609,8.921,8.7881,8.8672,8.7682,0.0,0.0,0.0,0.0,0.0,0.0,0.0,0.0,0.0,0.0,0.0,0.0,0.0,0.0,0.0,0.0,0.0,0.0,0.0,0.0,0.0,0.0,9.4755,9.4755,9.4755,9.4492,9.3482,0.0,0.0,0.0,0.0,0.0,0.0,0.0,0.0,0.0,0.0,0.0,9.8419,9.8751,9.8751,9.8751,9.8751,9.8751,9.8751,9.7538,9.6827,9.6827,9.5255,9.3757,0.0,0.0,0.0,0.0,0.0,0.0,0.0,0.0,0.0,0.0,0.0,0.0,0.0,0.0,0.0,0.0,0.0,0.0,0.0,0.0,0.0,0.0,0.0,0.0,0.0,0.0,0.0,0.0,0.0,0.0,0.0,0.0,0.0,0.0,0.0,0.0,0.0,0.0,0.0,0.0,0.0,0.0,0.0,0.0,0.0,0.0,0.0,0.0,0.0,0.0,0.0,0.0,0.0,0.0,0.0,0.0,0.0,0.0,8.7508,8.622,0.0,0.0,0.0,0.0,0.0,0.0,0.0,0.0,0.0,0.0,0.0,0.0,0.0,0.0,0.0,0.0,0.0,0.0,0.0,0.0,0.0,0.0,0.0,0.0,0.0,0.0,0.0,0.0,0.0,0.0,0.0,0.0,0.0,0.0,0.0,0.0,0.0,0.0,0.0,0.0,9.5138,9.5873,9.6218,9.6218,9.6218,9.6218,9.6218,9.554,9.4851,9.4233,9.3242,0.0,0.0,0.0,0.0,0.0,0.0,0.0,0.0,0.0,0.0,0.0,0.0,0.0,0.0,0.0,0.0,0.0,0.0,0.0,0.0,0.0,0.0,0.0,0.0,0.0,0.0,0.0,0.0,0.0,0.0,0.0,0.0,0.0,0.0,0.0,0.0,0.0,0.0,0.0,0.0,0.0,0.0,0.0,0.0,0.0,0.0,0.0,0.0,0.0,0.0,0.0,0.0,0.0,0.0,0.0,0.0,0.0,0.0,0.0,8.4275,8.3422,0.0,0.0,0.0,0.0,0.0,0.0,0.0,0.0,0.0,0.0,0.0,0.0,0.0,0.0,0.0,0.0,0.0,0.0,0.0,0.0,0.0,0.0,0.0,0.0,0.0,0.0,0.0,0.0,0.0,0.0,0.0,0.0,0.0,0.0,0.0,0.0,0.0,0.0,0.0,0.0,9.1702,9.2791,9.3411,9.3108,9.3108,9.3108,9.3108,9.3373,9.2848,9.1367,9.1245,0.0,0.0,0.0,0.0,0.0,0.0,0.0,0.0,0.0,0.0,0.0,0.0,0.0,0.0,0.0,0.0,0.0,0.0,0.0,0.0,0.0,0.0,0.0,0.0,0.0,0.0,0.0,0.0,0.0,0.0,0.0,0.0,0.0,0.0,0.0,0.0,0.0,0.0,0.0,0.0,0.0,0.0,0.0,0.0,0.0,0.0,0.0,0.0,0.0,0.0,0.0,0.0,0.0,0.0,0.0,0.0,0.0,0.0,0.0,0.0,0.0,0.0,0.0,0.0,0.0,0.0,0.0,0.0,0.0,0.0,0.0,0.0,0.0,0.0,0.0,0.0,0.0,0.0,0.0,0.0,0.0,0.0,0.0,0.0,0.0,0.0,0.0,0.0,0.0,0.0,0.0,0.0,0.0,0.0,0.0,0.0,0.0,0.0,0.0,0.0,0.0,9.0219,9.1489,9.1864,9.0662,9.0527,9.0527,9.0527,9.1617,9.1185,8.857,0.0,0.0,0.0,0.0,0.0,0.0,0.0,0.0,0.0,0.0,0.0,0.0,0.0,0.0,0.0,0.0,0.0,0.0,0.0,0.0,0.0,0.0,0.0,0.0,0.0,0.0,0.0,0.0,0.0,0.0,0.0,0.0,0.0,0.0,0.0,0.0,0.0,0.0,0.0,0.0,0.0,0.0,0.0,0.0,0.0,0.0,0.0,0.0,0.0,0.0,0.0,0.0,0.0,0.0,0.0,0.0,0.0,0.0,0.0,0.0,0.0,0.0,0.0,0.0,0.0,0.0,0.0,0.0,0.0,0.0,0.0,0.0,0.0,0.0,0.0,0.0,0.0,0.0,0.0,0.0,0.0,0.0,0.0,0.0,0.0,0.0,0.0,0.0,0.0,0.0,0.0,0.0,0.0,0.0,0.0,0.0,0.0,0.0,0.0,0.0,0.0,0.0,8.8985,9.0208,9.0752,9.0254,9.0208,9.0208,9.0208,8.9877,8.8905,8.7135,0.0,0.0,0.0,0.0,0.0,0.0,0.0,0.0,0.0,0.0,0.0,0.0,0.0,0.0,0.0,0.0,0.0,0.0,0.0,0.0,0.0,0.0,0.0,0.0,0.0,0.0,0.0,0.0,0.0,0.0,0.0,0.0,0.0,0.0,0.0,0.0,0.0,0.0,0.0,0.0,0.0,0.0,0.0,0.0,0.0,0.0,0.0,0.0,0.0,0.0,0.0,0.0,0.0,0.0,0.0,0.0,0.0,0.0,0.0,0.0,0.0,0.0,0.0,0.0,0.0,0.0,0.0,0.0,0.0,0.0,0.0,0.0,0.0,0.0,0.0,0.0,0.0,0.0,0.0,0.0,0.0,0.0,0.0,0.0,0.0,0.0,0.0,0.0,0.0,0.0,0.0,0.0,0.0,0.0,0.0,0.0,0.0,0.0,0.0,0.0,0.0,0.0,8.7105,8.8674,8.9539,8.9203,8.9155,8.8985,8.8509,8.7914,8.6679,8.4609,0.0,0.0,0.0,0.0,0.0,0.0,0.0,0.0,0.0,0.0,0.0,0.0,0.0,0.0,0.0,0.0,0.0,0.0,0.0,0.0,0.0,0.0,0.0,0.0,0.0,0.0,0.0,0.0,0.0,0.0,0.0,0.0,0.0,0.0,0.0,0.0,0.0,0.0,0.0,0.0,0.0,0.0,0.0,0.0,0.0,0.0,0.0,0.0,0.0,0.0,0.0,0.0,0.0,0.0,0.0,0.0,0.0,0.0,0.0,0.0,0.0,0.0,0.0,0.0,0.0,0.0,0.0,0.0,0.0,0.0,0.0,0.0,0.0,0.0,0.0,0.0,0.0,0.0,0.0,0.0,0.0,0.0,0.0,0.0,0.0,0.0,0.0,0.0,0.0,0.0,0.0,0.0,0.0,0.0,0.0,0.0,0.0,0.0,0.0,0.0,0.0,0.0,8.4362,8.6782,8.7993,8.6821,8.6746,8.6099,8.4532,8.5582,8.456,0.0,0.0,0.0,0.0,0.0,0.0,0.0,0.0,0.0,0.0,0.0,0.0,0.0,0.0,0.0,0.0,0.0,0.0,0.0,0.0,0.0,0.0,0.0,0.0,0.0,0.0,0.0,0.0,0.0,0.0,0.0,0.0,0.0,0.0,0.0,0.0,0.0,0.0,0.0,0.0,0.0,0.0,0.0,0.0,0.0,0.0,0.0,0.0,0.0,0.0,0.0,0.0,0.0,0.0,0.0,0.0,0.0,0.0,0.0,0.0,0.0,0.0,0.0,0.0,0.0,0.0,0.0,0.0,0.0,0.0,0.0,0.0,0.0,0.0,0.0,0.0,0.0,0.0,0.0,0.0,0.0,0.0,0.0,0.0,0.0,0.0,0.0,0.0,0.0,0.0,0.0,0.0,0.0,0.0,0.0,0.0,0.0,0.0,0.0,0.0,0.0,0.0,0.0,8.2743,8.4506,8.514,8.3763,8.45,8.45,8.302,8.2378,8.109,7.8762,0.0,0.0,0.0,0.0,0.0,0.0,0.0,0.0,0.0,0.0,0.0,0.0,0.0,0.0,0.0,0.0,0.0,0.0,0.0,0.0,0.0,0.0,0.0,0.0,0.0,0.0,0.0,0.0,0.0,0.0,0.0,0.0,0.0,0.0,0.0,0.0,0.0,0.0,0.0,0.0,0.0,0.0,0.0,0.0,0.0,0.0,0.0,0.0,0.0,0.0,0.0,0.0,0.0,0.0,0.0,0.0,0.0,0.0,0.0,0.0,0.0,0.0,0.0,0.0,0.0,0.0,0.0,0.0,0.0,0.0,0.0,0.0,0.0,0.0,0.0,0.0,0.0,0.0,0.0,0.0,0.0,0.0,0.0,0.0,0.0,0.0,0.0,0.0,0.0,0.0,0.0,0.0,0.0,0.0,0.0,0.0,0.0,0.0,0.0,0.0,0.0,0.0,0.0,8.2691,8.3217,8.2297,8.302,8.2987,8.154,8.0587,7.9239,7.7282,0.0,0.0,0.0,0.0,0.0,0.0,0.0,0.0,0.0,0.0,0.0,0.0,0.0,0.0,0.0,0.0,0.0,0.0,0.0,0.0,0.0,0.0,0.0,0.0,0.0,0.0,0.0,0.0,0.0,0.0,0.0,0.0,0.0,0.0,0.0,0.0,0.0,0.0,0.0,0.0,0.0,0.0,0.0,0.0,0.0,0.0,0.0,0.0,0.0,0.0,0.0,0.0,0.0,0.0,0.0,0.0,0.0,0.0,0.0,0.0,0.0,0.0,0.0,0.0,0.0,0.0,0.0,0.0,0.0,0.0,0.0,0.0,0.0,0.0,0.0,0.0,0.0,0.0,0.0,0.0,0.0,0.0,0.0,0.0,0.0,0.0,0.0,0.0,0.0,0.0,0.0,0.0,0.0,0.0,0.0,0.0,0.0,0.0,0.0,0.0,0.0,0.0,0.0,8.1179,8.2034,8.1902,8.2001,8.1475,8.0061,7.9864,7.8614,7.5819,7.4307,0.0,0.0,0.0,0.0,0.0,0.0,0.0,0.0,0.0,0.0,0.0,0.0,0.0,0.0,0.0,0.0,0.0,0.0,0.0,0.0,0.0,0.0,0.0,0.0,0.0,0.0,0.0,0.0,0.0,0.0,0.0,0.0,0.0,0.0,0.0,0.0,0.0,0.0,0.0,0.0,0.0,0.0,0.0,0.0,0.0,0.0,0.0,0.0,0.0,0.0,0.0,0.0,0.0,0.0,0.0,0.0,0.0,0.0,0.0,0.0,0.0,0.0,0.0,0.0,0.0,0.0,0.0,0.0,0.0,0.0,0.0,0.0,0.0,0.0,0.0,0.0,0.0,0.0,0.0,0.0,0.0,0.0,0.0,0.0,0.0,0.0,0.0,0.0,0.0,0.0,0.0,0.0,0.0,0.0,0.0,0.0,0.0,0.0,0.0,0.0,0.0,0.0,7.9699,8.0159,7.9091,7.9929,7.9995,7.8598,7.7431,7.605,7.4307,7.2827,0.0,0.0,0.0,0.0,0.0,0.0,0.0,0.0,0.0,0.0,0.0,0.0,0.0,0.0,0.0,0.0,0.0,0.0,0.0,0.0,0.0,0.0,0.0,0.0,0.0,0.0,0.0,0.0,0.0,0.0,0.0,0.0,0.0,0.0,0.0,0.0,0.0,0.0,0.0,0.0,0.0,0.0,0.0,0.0,0.0,0.0,0.0,0.0,0.0,0.0,0.0,0.0,0.0,0.0,0.0,0.0,0.0,0.0,0.0,0.0,0.0,0.0,0.0,0.0,0.0,0.0,0.0,0.0,0.0,0.0,0.0,0.0,0.0,0.0,0.0,0.0,0.0,0.0,0.0,0.0,0.0,0.0,0.0,0.0,0.0,0.0,0.0,0.0,0.0,0.0,0.0,0.0,0.0,0.0,0.0,0.0,0.0,0.0,0.0,0.0,0.0,0.0,7.7134,7.774,7.696,7.701,7.7035,7.6877,7.5546,7.4149,7.2783,7.0734,0.0,0.0,0.0,0.0,0.0,0.0,0.0,0.0,0.0,0.0,0.0,0.0,0.0,0.0,0.0,0.0,0.0,0.0,0.0,0.0,0.0,0.0,0.0,0.0,0.0,0.0,0.0,0.0,0.0,0.0,0.0,0.0,0.0,0.0,0.0,0.0,0.0,0.0,0.0,0.0,0.0,0.0,0.0,0.0,0.0,0.0,0.0,0.0,0.0,0.0,0.0,0.0,0.0,0.0,0.0,0.0,0.0,0.0,0.0,0.0,0.0,0.0,0.0,0.0,0.0,0.0,0.0,0.0,0.0,0.0,0.0,0.0,0.0,0.0,0.0,0.0,0.0,0.0,0.0,0.0,0.0,0.0,0.0,0.0,0.0,0.0,0.0,0.0,0.0,0.0,0.0,0.0,0.0,0.0,0.0,0.0,0.0,0.0,0.0,0.0,0.0,0.0,0.0,7.5314,7.5314,7.4179,7.3896,7.4889,7.3875,7.2469,7.1031,0.0,0.0,0.0,0.0,0.0,0.0,0.0,0.0,0.0,0.0,0.0,0.0,0.0,0.0,0.0,0.0,0.0,0.0,0.0,0.0,0.0,0.0,0.0,0.0,0.0,0.0,0.0,0.0,0.0,0.0,0.0,0.0,0.0,0.0,0.0,0.0,0.0,0.0,0.0,0.0,0.0,0.0,0.0,0.0,0.0,0.0,0.0,0.0,0.0,0.0,0.0,0.0,0.0,0.0,0.0,0.0,0.0,0.0,0.0,0.0,0.0,0.0,0.0,0.0,0.0,0.0,0.0,0.0,0.0,0.0,0.0,0.0,0.0,0.0,0.0,0.0,0.0,0.0,0.0,0.0,0.0,0.0,0.0,0.0,0.0,0.0,0.0,0.0,0.0,0.0,0.0,0.0,0.0,0.0,0.0,0.0,0.0,0.0,0.0,0.0,0.0,0.0,0.0,0.0,7.3824,7.3824,7.36,7.3133,7.2214,7.1843,7.065,6.8197,0.0,0.0,0.0,0.0,0.0,0.0,0.0,0.0,0.0,0.0,0.0,0.0,0.0,0.0]}]]]